     2.11           OBSERVATION DATA    G (GPS)             RINEX VERSION / TYPE
teqc 2010Oct21 OPUS Account 20111025 18:28:51UTC            PGM / RUN BY / DATE
N 1521                                                      MARKER NAME
1141                                                        MARKER NUMBER
CSMIDDLETON NGS                                             OBSERVER / AGENCY
0220320152 TRIMBLE 5700 2.01                                REC # / TYPE / VERS
12214372 TRM41249.00 NONE                                   ANT # / TYPE
  -737755.2426 -5467932.9725  3189231.7394                  APPROX POSITION XYZ
        2.0000        0.0000        0.0000                  ANTENNA: DELTA H/E/N
     1     1                                                WAVELENGTH FACT L1/2
     5    L1    L2    C1    P1    P2                        # / TYPES OF OBSERV
    15                                                      LEAP SECONDS
  2011     7    26     0     0   30.0000000     GPS         TIME OF FIRST OBS
                                                            END OF HEADER
 11  7 26  0  0 30.0000000  0  8G10G17G04G09G28G20G27G02
  -5473338.73057  -4250368.12554  23926623.5474                   23926625.6174
 -35334355.37558 -27516937.23856  21338563.2504                   21338561.1954
 -33789324.73458 -26312096.89856  20040626.3204                   20040624.6844
 -14665701.72357 -11411825.44555  22336830.5704                   22336829.9264
 -40292115.17258 -31383674.60556  21733693.6804                   21733692.1024
  -8713856.60556  -6782938.91053  24168124.1884                   24168123.5594
 -21659198.62957 -16862476.94155  22521199.9384                   22521198.7814
 -15332066.28557 -11931001.36355  22658614.5164                   22658612.8364
 11  7 26  0  1  0.0000000  0  8G10G17G04G09G28G20G27G02
  -5600067.27747  -4349117.35944  23902508.1804                   23902510.0704
 -35337258.52748 -27519199.45346  21338010.8914                   21338008.9024
 -33846201.96548 -26356416.80146  20029802.8754                   20029801.0824
 -14735758.15647 -11466414.85245  22323498.8674                   22323498.9184
 -40279662.33248 -31373971.15246  21736063.5164                   21736061.5204
  -8720097.57046  -6787802.04743  24166937.9924                   24166936.0204
 -21709882.46947 -16901970.84045  22511554.9924                   22511553.6724
 -15448999.88347 -12022118.34445  22636363.4384                   22636361.2234
 11  7 26  0  1 30.0000000  0  8G10G17G04G09G28G20G27G02
  -5726793.06646  -4447864.46543  23878392.7814                   23878393.8634
 -35340048.19548 -27521373.23046  21337480.1334                   21337478.0274
 -33902494.61748 -26400281.18046  20019091.0314                   20019089.0704
 -14805182.84447 -11520511.99245  22310288.3834                   22310288.0704
 -40266829.85548 -31363971.87546  21738505.5004                   21738503.7344
  -8725824.94946  -6792264.93043  24165847.5634                   24165846.0084
 -21760065.20348 -16941074.27345  22502005.6254                   22502004.6954
 -15565656.77047 -12113019.69145  22614164.2504                   22614162.0314
 11  7 26  0  2  0.0000000  0  8G10G17G04G09G28G20G27G02
  -5853514.66046  -4546608.28944  23854277.9774                   23854279.8404
 -35342726.49648 -27523460.21146  21336970.7504                   21336968.3834
 -33958204.48448 -26443691.44146  20008489.6094                   20008488.0904
 -14873976.81247 -11574117.66445  22297197.0164                   22297196.6604
 -40253618.56248 -31353677.41446  21741019.7034                   21741017.5904
  -8731041.04346  -6796329.43043  24164855.1484                   24164854.3444
 -21809748.56648 -16979788.57445  22492550.9924                   22492550.1174
 -15682037.36747 -12203705.75445  22592017.6804                   22592015.4884
 11  7 26  0  2 30.0000000  0  8G10G17G04G09G28G20G27G02
  -5980231.64847  -4645348.52343  23830164.6644                   23830166.6454
 -35345296.17648 -27525462.56246  21336481.1024                   21336479.3094
 -34013333.69548 -26486649.25046  19997998.5784                   19997997.0204
 -14942141.19947 -11627232.73445  22284225.6484                   22284225.4224
 -40240031.77348 -31343090.35546  21743605.2504                   21743603.6954
  -8735748.53946  -6799997.62143  24163959.1174                   24163958.3984
 -21858934.36347 -17018115.17245  22483191.3914                   22483190.4964
 -15798142.28547 -12294177.00045  22569923.3834                   22569921.2074
 11  7 26  0  3  0.0000000  0  8G10G17G04G09G28G20G27G02
  -6106937.59446  -4744080.16843  23806052.8204                   23806054.2154
 -35347754.39848 -27527378.04746  21336013.6884                   21336011.1884
 -34067878.76648 -26529151.88746  19987619.3204                   19987617.2074
 -15009671.64847 -11679853.84045  22271375.2194                   22271374.6024
 -40226065.69148 -31332207.75446  21746263.1954                   21746261.1804
  -8739944.28146  -6803267.02043  24163161.0004                   24163159.5354
 -21907619.26247 -17056051.46145  22473926.8524                   22473926.2704
 -15913966.95747 -12384429.86745  22547882.4304                   22547880.2584
 11  7 26  0  3 30.0000000  0  8G10G17G04G09G28G20G27G02
  -6233629.80946  -4842801.12143  23781943.9144                   23781945.7814
 -35350102.24248 -27529207.53546  21335566.7504                   21335564.7194
 -34121840.48848 -26571199.97746  19977350.6174                   19977349.0474
 -15076567.87147 -11731980.73845  22258645.1884                   22258644.8554
 -40211720.38348 -31321029.64146  21748992.5864                   21748990.8554
  -8743628.96946  -6806138.19143  24162459.2584                   24162458.4924
 -21955803.52347 -17093597.64545  22464758.1334                   22464756.4184
 -16029510.29747 -12474463.52045  22525895.1174                   22525892.8204
 11  7 26  0  4  0.0000000  0  8G10G17G04G09G28G20G27G02
  -6360307.16047  -4941510.51644  23757838.0634                   23757839.6644
 -35352341.72748 -27530952.58646  21335140.6954                   21335138.6724
 -34175220.34448 -26612794.66447  19967192.8134                   19967191.2664
 -15142830.39547 -11783613.84045  22246035.9614                   22246034.6604
 -40196997.19948 -31309557.08246  21751794.8364                   21751792.6524
  -8746804.78146  -6808612.83243  24161854.3834                   24161854.3324
 -22003488.67247 -17130754.90645  22455683.6484                   22455682.8954
 -16144772.44147 -12564278.05545  22503961.5234                   22503959.0704
 11  7 26  0  4 30.0000000  0  8G10G17G04G09G28G20G27G02
  -6486965.79746  -5040205.32443  23733734.8524                   23733736.9614
 -35354472.53148 -27532612.95346  21334735.2584                   21334732.8794
 -34228017.52748 -26653935.31647  19957145.8524                   19957144.1914
 -15208457.60247 -11834751.91045  22233547.2504                   22233546.0984
 -40181895.44948 -31297789.52746  21754668.6174                   21754666.5124
  -8749471.60246  -6810690.90643  24161347.7274                   24161346.8754
 -22050673.80147 -17167522.55945  22446704.3524                   22446703.6644
 -16259751.25847 -12653871.81645  22482081.7274                   22482079.5124
 11  7 26  0  5  0.0000000  0  8G10G17G04G09G28G20G27G02
  -6613604.84446  -5138884.85543  23709636.2274                   23709637.7194
 -35356497.50448 -27534190.85946  21334349.8914                   21334348.1054
 -34280234.29348 -26694623.69146  19947209.0554                   19947207.6724
 -15273450.60547 -11885395.78145  22221179.6254                   22221178.2664
 -40166416.64148 -31285728.16445  21757614.0084                   21757611.6524
  -8751631.91046  -6812374.28543  24160936.2814                   24160935.0204
 -22097360.87547 -17203902.10945  22437820.7034                   22437819.8244
 -16374447.66448 -12743245.52345  22460255.7194                   22460253.3444
 11  7 26  0  5 30.0000000  0  8G10G17G04G09G28G20G27G02
  -6740219.88346  -5237545.70343  23685542.1484                   23685543.8444
 -35358415.34048 -27535685.27346  21333984.7194                   21333982.5004
 -34331869.34848 -26734858.77747  19937383.4224                   19937381.7664
 -15337807.30947 -11935543.83245  22208932.3204                   22208930.9064
 -40150559.68448 -31273372.13345  21760631.4614                   21760629.3484
  -8753284.71546  -6813662.20743  24160622.1954                   24160621.3404
 -22143548.35947 -17239892.37545  22429031.1024                   22429030.4104
 -16488858.72347 -12832396.87145  22438484.0704                   22438481.5594
 11  7 26  0  6  0.0000000  0  8G10G17G04G09G28G20G27G02
  -6866807.77746  -5336185.39843  23661453.1884                   23661455.1134
 -35360226.90247 -27537096.87946  21333640.0944                   21333637.9454
 -34382922.67648 -26774640.57047  19927668.3674                   19927666.5634
 -15401526.74247 -11985195.30945  22196807.2894                   22196805.1804
 -40134324.31648 -31260721.23845  21763721.2584                   21763718.6954
  -8754430.49646  -6814555.02343  24160404.2664                   24160403.1804
 -22189236.25047 -17275493.34845  22420337.2584                   22420336.3634
 -16602982.85548 -12921324.66045  22416766.5004                   22416764.2304
 11  7 26  0  6 30.0000000  0  8G10G17G04G09G28G20G27G02
  -6993365.76646  -5434801.79743  23637369.3134                   23637371.1374
 -35361932.94147 -27538426.27746  21333315.0784                   21333313.2774
 -34433395.07448 -26813969.68047  19918063.5634                   19918061.8054
 -15464608.57047 -12034349.94945  22184803.5944                   22184801.5084
 -40117710.82448 -31247775.69545  21766882.7344                   21766880.4344
  -8755069.93446  -6815053.28143  24160283.2894                   24160281.4064
 -22234424.69547 -17310705.15245  22411738.0164                   22411737.2194
 -16716819.27748 -13010028.25045  22395104.1334                   22395101.3874
 11  7 26  0  7  0.0000000  0  8G10G17G04G09G28G20G27G02
  -7119891.37146  -5533392.94944  23613292.5164                   23613294.5824
 -35363534.09447 -27539673.94546  21333010.7814                   21333008.8244
 -34483286.77348 -26852846.30147  19908569.8204                   19908567.7114
 -15527052.24647 -12083007.33645  22172921.3364                   22172918.8364
 -40100719.42647 -31234535.67645  21770115.9614                   21770113.6564
  -8755204.24246  -6815157.94143  24160256.1024                   24160255.9064
 -22279114.14547 -17345528.10945  22403233.8284                   22403232.8714
 -16830366.90248 -13098506.82045  22373496.7194                   22373494.2664
 11  7 26  0  7 30.0000000  0  8G10G17G04G09G28G20G27G02
  -7246381.85946  -5631956.75844  23589222.5634                   23589223.9734
 -35365031.26248 -27540840.59046  21332725.9144                   21332723.7734
 -34532598.52748 -26891271.01647  19899186.0234                   19899184.0274
 -15588857.64147 -12131167.36745  22161159.6024                   22161157.6254
 -40083350.73048 -31221001.66445  21773421.2974                   21773419.4884
  -8754834.46946  -6814869.78943  24160327.0944                   24160326.4224
 -22323305.08247 -17379962.63345  22394824.7194                   22394823.8484
 -16943624.74647 -13186759.59445  22351944.6644                   22351942.1054
 11  7 26  0  8  0.0000000  0  8G10G17G04G09G28G20G27G02
  -7372834.13347  -5730490.77744  23565159.0084                   23565160.5394
 -35366424.72348 -27541926.41446  21332460.4774                   21332458.3794
 -34581330.28948 -26929243.78947  19889912.4844                   19889910.4964
 -15650023.71547 -12178829.23445  22149520.4694                   22149518.2894
 -40065604.37148 -31207173.37145  21776798.1484                   21776796.0274
  -8753960.59046  -6814188.86343  24160493.7584                   24160492.7274
 -22366997.28147 -17414008.52345  22386510.3984                   22386509.7544
 -17056591.34048 -13274785.42645  22330447.3284                   22330444.6024
 11  7 26  0  8 30.0000000  0  8G10G17G04G09G28G20G27G02
  -7499245.38746  -5828992.86744  23541103.7894                   23541105.0664
 -35367715.19147 -27542931.99646  21332215.3834                   21332213.2504
 -34629482.68448 -26966765.11747  19880749.3834                   19880747.6524
 -15710550.19547 -12225992.70745  22138002.2894                   22138000.9024
 -40047480.78948 -31193051.13745  21780246.8984                   21780244.8954
  -8752583.83246  -6813116.05943  24160755.5634                   24160754.2894
 -22410191.07047 -17447666.05145  22378290.8674                   22378290.4224
 -17169265.62148 -13362583.47745  22309006.0164                   22309003.6804
 11  7 26  0  9  0.0000000  0  8G10G17G04G09G28G20G27G02
  -7625612.78946  -5927460.80144  23517056.1414                   23517057.6644
 -35368903.58647 -27543858.03546  21331988.8754                   21331987.0004
 -34677056.37148 -27003835.50447  19871696.2814                   19871694.6484
 -15770436.86747 -12272657.64545  22126606.6564                   22126605.0204
 -40028980.21547 -31178635.15245  21783767.5234                   21783765.3874
  -8750705.03546  -6811652.09443  24161113.1334                   24161112.7074
 -22452886.83647 -17480935.49245  22370166.1254                   22370165.5354
 -17281646.65648 -13450153.03145  22287621.0004                   22287617.9964
 11  7 26  0  9 30.0000000  0  8G10G17G04G09G28G20G27G02
  -7751932.58246  -6025891.61343  23493017.8914                   23493019.9694
 -35369989.37947 -27544704.12546  21331782.5474                   21331780.5944
 -34724050.68048 -27040454.41847  19862753.6334                   19862752.0904
 -15829682.09847 -12318822.74245  22115332.2194                   22115331.3324
 -40010101.69947 -31163924.66045  21787360.0314                   21787358.1484
  -8748324.05946  -6809796.81643  24161566.5554                   24161564.9614
 -22495083.72747 -17513816.20345  22362136.0234                   22362136.1134
 -17393732.22748 -13537492.34445  22266290.9064                   22266288.8244
 11  7 26  0 10  0.0000000  0  8G10G17G04G09G28G20G27G02
  -7878200.93047  -6124282.31644  23468989.9694                   23468991.5904
 -35370972.58247 -27545470.28946  21331595.3134                   21331593.4534
 -34770465.53148 -27076621.81647  19853920.8914                   19853919.3834
 -15888284.87547 -12364487.24645  22104180.4454                   22104179.6604
 -39990844.85248 -31148919.36345  21791024.6254                   21791022.5274
  -8745440.99246  -6807550.27043  24162114.9144                   24162114.2774
 -22536781.55947 -17546308.04345  22354201.4304                   22354201.2774
 -17505520.56648 -13624600.06245  22245019.0554                   22245016.1884
 11  7 26  0 10 30.0000000  0  8G10G17G04G09G28G20G27G02
  -8004416.53547  -6222631.96944  23444972.2814                   23444973.0514
 -35371854.87548 -27546157.82046  21331427.3524                   21331425.5314
 -34816302.84848 -27112339.18447  19845198.8984                   19845197.3874
 -15946246.14547 -12409651.87545  22093150.8914                   22093149.9694
 -39971211.13747 -31133620.41445  21794760.6724                   21794758.9654
  -8742058.30546  -6804914.39543  24162759.1334                   24162757.3674
 -22577981.84847 -17578412.17645  22346361.1174                   22346361.1294
 -17617011.77048 -13711476.23445  22223802.6644                   22223799.9804
 11  7 26  0 11  0.0000000  0  8G10G17G04G09G28G20G27G02
  -8130574.83646  -6320936.93744  23420964.9534                   23420965.8284
 -35372635.63748 -27546766.22746  21331278.8134                   21331276.9534
 -34861561.51648 -27147605.66447  19836585.9924                   19836584.3524
 -16003564.17247 -12454315.27345  22082243.9144                   22082242.7074
 -39951199.41047 -31118026.91445  21798568.7424                   21798566.8524
  -8738175.18446  -6801888.59443  24163497.2424                   24163496.7074
 -22618683.12947 -17610127.46945  22338616.3984                   22338615.5984
 -17728203.27048 -13798118.87545  22202643.4064                   22202640.8554
 11  7 26  0 11 30.0000000  0  8G10G17G04G09G28G20G27G02
  -8256673.89847  -6419195.73844  23396968.7114                   23396969.9414
 -35373316.21948 -27547296.57446  21331149.6094                   21331147.2304
 -34906243.30148 -27182422.63347  19828083.3914                   19828081.5594
 -16060239.58647 -12498477.95345  22071458.9304                   22071457.4654
 -39930810.88348 -31102139.79745  21802449.0164                   21802446.8444
  -8733793.72346  -6798474.48843  24164331.1094                   24164330.3244
 -22658886.93447 -17641455.10945  22330965.4384                   22330965.1954
 -17839095.11348 -13884528.02345  22181541.4534                   22181538.7304
 11  7 26  0 12  0.0000000  0  8G10G17G04G09G28G20G27G02
  -8382710.00847  -6517405.50844  23372984.8444                   23372985.6884
 -35373896.76248 -27547748.96946  21331038.9304                   21331036.6604
 -34950347.78148 -27216789.75047  19819690.8284                   19819688.9384
 -16116271.24647 -12542139.00445  22060796.3754                   22060795.1954
 -39910045.17248 -31085958.78145  21806400.4614                   21806398.7854
  -8728913.86746  -6794671.99243  24165259.4454                   24165258.3404
 -22698593.00447 -17672394.90645  22323409.9844                   22323409.0164
 -17949685.31248 -13970702.11346  22160496.8914                   22160494.2894
 11  7 26  0 12 30.0000000  0  8G10G17G04G09G28G20G27G02
  -8508681.74646  -6615565.10944  23349012.6954                   23349013.8954
 -35374378.81647 -27548124.60946  21330947.2734                   21330945.3014
 -34993877.19148 -27250708.77047  19811407.0394                   19811405.7934
 -16171660.44147 -12585299.43045  22050255.6804                   22050254.9494
 -39888903.79747 -31069485.04745  21810423.4614                   21810421.6844
  -8723537.88346  -6790482.95343  24166282.6644                   24166281.9884
 -22737803.16047 -17702948.27345  22315948.3984                   22315947.8524
 -18059974.25447 -14056641.46545  22139509.5314                   22139506.6334
 11  7 26  0 13  0.0000000  0  8G10G17G04G09G28G20G27G02
  -8634583.80946  -6713670.41444  23325054.7274                   23325055.2854
 -35374761.12947 -27548422.55146  21330874.3984                   21330872.5234
 -35036829.97348 -27284178.45747  19803233.7584                   19803231.7624
 -16226404.77047 -12627957.36745  22039838.5704                   22039837.5314
 -39867385.07047 -31052717.27045  21814518.2584                   21814516.2814
  -8717665.02046  -6785906.69143  24167400.4064                   24167399.4694
 -22776515.75447 -17733113.93045  22308581.5944                   22308581.2974
 -18169958.85548 -14142343.67245  22118580.0634                   22118577.5394
 11  7 26  0 13 30.0000000  0  8G10G17G04G09G28G20G27G02
  -8760413.34846  -6811719.21944  23301109.5944                   23301110.7234
 -35375043.70348 -27548642.76646  21330821.0704                   21330818.7854
 -35079206.38348 -27317199.02746  19795169.6254                   19795167.9304
 -16280503.53147 -12670112.27045  22029543.2114                   22029542.5944
 -39845488.76647 -31035655.28145  21818685.1804                   21818683.1804
  -8711295.91046  -6780943.76643  24168612.8834                   24168611.3444
 -22814730.88347 -17762891.93745  22301309.4144                   22301309.0124
 -18279637.77748 -14227807.68046  22097708.6564                   22097706.3444
 11  7 26  0 14  0.0000000  0  8G10G17G04G09G28G20G27G02
  -8886166.15246  -6909708.27344  23277180.0474                   23277180.2814
 -35375225.96547 -27548784.80946  21330786.2734                   21330784.3984
 -35121006.23448 -27349770.32047  19787215.3984                   19787213.6254
 -16333955.88347 -12711763.47345  22019371.7194                   22019371.1214
 -39823214.30547 -31018298.61745  21822923.8364                   21822922.2344
  -8704430.09046  -6775593.79343  24169919.2274                   24169918.1604
 -22852447.92647 -17792281.82845  22294132.2424                   22294131.4924
 -18389008.87148 -14313031.84045  22076896.2274                   22076893.3134
 11  7 26  0 14 30.0000000  0  8G10G17G04G09G28G20G27G02
  -9011836.80146  -7007633.27044  23253265.2734                   23253266.0634
 -35375306.11348 -27548847.28146  21330770.4924                   21330768.9574
 -35162227.69548 -27381890.92247  19779371.3444                   19779369.3094
 -16386758.73047 -12752908.57445  22009323.7114                   22009323.2464
 -39800559.53147 -31000645.61345  21827234.8364                   21827232.8874
  -8697066.64546  -6769856.06643  24171320.5784                   24171318.9614
 -22889664.89147 -17821282.05545  22287050.1884                   22287049.9654
 -18498068.51648 -14398013.30545  22056142.7584                   22056139.6524
 11  7 26  0 15  0.0000000  0  8G10G17G04G09G28G20G27G02
  -9137426.32846  -7105495.08644  23229366.4694                   23229366.8164
 -35375288.50048 -27548833.58246  21330774.2974                   21330772.3094
 -35202875.60548 -27413564.59847  19771636.2274                   19771634.0944
 -16438916.37947 -12793550.91845  21999398.5944                   21999398.0664
 -39777528.67247 -30982699.55945  21831617.7974                   21831615.7704
  -8689210.37146  -6763734.26643  24172814.4614                   24172814.2774
 -22926386.11347 -17849895.98845  22280062.6414                   22280061.6884
 -18606819.53948 -14482754.30145  22035448.1724                   22035445.3634
 11  7 26  0 15 30.0000000  0  8G10G17G04G09G28G20G27G02
  -9262927.60946  -7203288.12944  23205483.7814                   23205484.6174
 -35375169.49248 -27548740.86746  21330796.8754                   21330794.7274
 -35242946.23448 -27444788.44546  19764011.1414                   19764008.7894
 -16490424.40647 -12833687.05945  21989596.9224                   21989596.5984
 -39754118.27047 -30964457.75045  21836072.4224                   21836070.4344
  -8680857.93746  -6757225.91043  24174405.3204                   24174403.9454
 -22962607.86747 -17878120.71145  22273169.5784                   22273168.9924
 -18715256.74648 -14567250.75046  22014813.0474                   22014810.2384
 11  7 26  0 16  0.0000000  0  8G10G17G04G09G28G20G27G02
  -9388337.93746  -7301010.29344  23181618.8674                   23181619.8674
 -35374949.91448 -27548569.79346  21330838.8134                   21330836.5354
 -35282440.60948 -27475563.26246  19756495.6804                   19756494.0354
 -16541282.80147 -12873316.98845  21979918.9614                   21979918.2624
 -39730328.53947 -30945920.35545  21840599.7974                   21840598.1174
  -8672011.07046  -6750332.25443  24176089.0634                   24176087.1914
 -22998331.09447 -17905956.98045  22266371.6254                   22266371.3404
 -18823379.47748 -14651502.16046  21994237.6094                   21994234.8754
 11  7 26  0 16 30.0000000  0  8G10G17G04G09G28G20G27G02
  -9513653.90247  -7398658.94944  23157772.1024                   23157772.9574
 -35374629.84448 -27548320.41046  21330899.6254                   21330897.5354
 -35321359.46948 -27505889.62546  19749089.5394                   19749087.4614
 -16591491.28547 -12912440.50045  21970364.6644                   21970363.9614
 -39706159.55547 -30927087.43445  21845199.0004                   21845197.2774
  -8662670.44546  -6743053.86343  24177865.6414                   24177864.5044
 -23033556.32447 -17933405.19945  22259668.2274                   22259667.9144
 -18931186.58648 -14735507.62946  21973722.8444                   21973719.8054
 11  7 26  0 17  0.0000000  0  8G10G17G04G09G28G20G27G02
  -9638872.59446  -7496231.79344  23133943.7424                   23133944.3754
 -35374210.04348 -27547993.31646  21330979.2814                   21330977.4344
 -35359703.51248 -27535768.08246  19741792.6884                   19741790.5514
 -16641049.96547 -12951057.65245  21960933.9454                   21960932.9614
 -39681611.84847 -30907959.40245  21849870.0784                   21849868.5984
  -8652837.43446  -6735391.81243  24179736.5084                   24179735.2424
 -23068283.85947 -17960465.60245  22253060.0944                   22253059.2934
 -19038677.05548 -14819266.35946  21953268.1094                   21953265.3634
 11  7 26  0 17 30.0000000  0  8G10G17G04G09G28G20G27G02
  -9763991.85246  -7593727.17244  23110133.7814                   23110134.8404
 -35373691.54748 -27547589.32046  21331078.0554                   21331076.1414
 -35397474.46948 -27565199.98446  19734605.2734                   19734603.2814
 -16689959.57447 -12989169.03145  21951627.4144                   21951626.0004
 -39656686.84847 -30888537.37145  21854613.3524                   21854611.6524
  -8642513.62546  -6727347.28143  24181701.4924                   24181700.4064
 -23102514.96947 -17987139.18445  22246546.0004                   22246545.4224
 -19145850.68448 -14902778.21146  21932873.5394                   21932871.0354
 11  7 26  0 18  0.0000000  0  8G10G17G04G09G28G20G27G02
  -8313584.79346  -6463539.72744  23386137.4534                   23386137.7114
 -33797655.18048 -26319509.05546  21630987.9304                   21630985.8404
 -33859252.28948 -26366585.28946  20027319.1174                   20027317.1844
 -15162799.44147 -11799174.09845  22242235.6644                   22242235.1254
 -38055966.11347 -29641222.55545  22159219.9774                   22159218.5354
  -7056280.93446  -5491321.83643  24483551.3204                   24483550.3834
 -21560829.50047 -16785825.81645  22539919.0704                   22539918.6094
 -17677283.23048 -13758439.85946  22212332.5704                   22212330.1454
 11  7 26  0 18 30.0000000  0  8G10G17G04G09G28G20G27G02
  -8438494.50446  -6560871.83244  23362367.4614                   23362368.4414
 -33796939.10548 -26318951.09846  21631124.3134                   21631122.1564
 -33895878.26648 -26395125.00447  20020349.3984                   20020347.6524
 -15210410.46547 -11836273.58245  22233175.7584                   22233175.3874
 -38030286.09847 -29621212.19145  22164107.2194                   22164105.3244
  -7044977.81646  -5482514.27043  24485702.0314                   24485701.3404
 -21594068.17647 -16811726.07845  22533593.4844                   22533592.9064
 -17783818.83648 -13841454.54346  22192059.3754                   22192056.7074
 11  7 26  0 19  0.0000000  0  8G10G17G04G09G28G20G27G02
  -8563293.58646  -6658117.73444  23338619.1334                   23338619.6524
 -33796123.48848 -26318315.57046  21631279.5554                   21631277.4224
 -33931931.88348 -26423218.72747  20013488.6174                   20013486.7344
 -15257370.75847 -11872865.97345  22224239.3054                   22224238.8634
 -38004227.65647 -29600906.95745  22169065.6174                   22169064.1254
  -7033185.76246  -5473325.65243  24487945.6094                   24487945.7974
 -21626810.28947 -16837239.41445  22527363.1954                   22527362.6024
 -17890032.44148 -13924218.31646  22171847.7734                   22171844.8954
 11  7 26  0 19 30.0000000  0  8G10G17G04G09G28G20G27G02
  -8687979.30546  -6755275.30144  23314892.0004                   23314892.6764
 -33795209.32048 -26317603.25846  21631453.7814                   21631451.6724
 -33967414.02048 -26450867.14847  20006736.6334                   20006734.8014
 -15303680.66447 -11908951.57845  22215426.9384                   22215426.1644
 -37977791.68447 -29580307.53945  22174096.4224                   22174094.6684
  -7020906.12946  -5463757.12543  24490282.7974                   24490282.2734
 -21659056.82047 -16862366.59045  22521227.0554                   22521226.2154
 -17995923.52048 -14006730.77746  22151697.3284                   22151694.4924
 11  7 26  0 20  0.0000000  0  8G10G17G04G09G28G20G27G02
  -8812548.37546  -6852341.99244  23291187.4534                   23291188.0594
 -33794196.69548 -26316814.21546  21631645.9694                   21631644.1884
 -34002325.59448 -26478070.98047  20000092.9454                   20000091.3594
 -15349340.19947 -11944530.39145  22206738.0704                   22206737.5234
 -37950978.55947 -29559414.23445  22179198.8754                   22179197.4534
  -7008139.58245  -5453809.19943  24492712.0784                   24492711.5784
 -21690808.15647 -16887107.87945  22515184.8524                   22515184.7814
 -18101490.93448 -14088991.02346  22131608.3204                   22131605.3714
 11  7 26  0 20 30.0000000  0  8G10G17G04G09G28G20G27G02
  -8936997.14146  -6949314.93744  23267505.2504                   23267505.6484
 -33793085.43748 -26315948.32446  21631857.5084                   21631855.9414
 -34036666.84848 -26504830.39846  19993558.4534                   19993556.4144
 -15394349.02347 -11979602.14145  22198173.2274                   22198172.7544
 -37923788.03547 -29538226.86745  22184373.3674                   22184371.5824
  -6994887.09446  -5443482.61343  24495233.8834                   24495233.5084
 -21722064.38347 -16911463.39145  22509237.0084                   22509236.5084
 -18206733.04748 -14170997.79346  22111581.3594                   22111578.3834
 11  7 26  0 21  0.0000000  0  9G10G12G17G04G09G28G20G27G02
  -9061326.97746  -7046195.19144  23243845.6884                   23243846.3444
   1385062.79357   1094469.96154  24747878.1024                   24747878.6024
 -33791880.09048 -26315009.10246  21632087.2814                   21632085.4924
 -34070443.41048 -26531149.80947  19987130.8444                   19987129.0514
 -15438711.90247 -12014170.57045  22189731.1724                   22189730.9024
 -37896225.14847 -29516749.34045  22189618.2664                   22189616.7974
  -6981154.46946  -5432781.85243  24497847.1954                   24497846.9384
 -21752830.79747 -16935437.23045  22503382.0394                   22503381.6994
 -18311653.52048 -14252753.94946  22091615.7114                   22091612.4224
 11  7 26  0 21 30.0000000  0  9G10G12G17G04G09G28G20G27G02
  -9185545.59446  -7142988.80144  23220208.2974                   23220207.9654
   1256010.57847    993909.82444  24723320.3594                   24723321.2384
 -33790592.07848 -26314005.46946  21632332.2194                   21632330.4454
 -34103666.93048 -26557038.27346  19980808.6254                   19980806.7194
 -15482439.73847 -12048244.16045  22181409.9224                   22181409.8874
 -37868300.99647 -29494990.30945  22194932.0784                   22194930.1914
  -6966953.77746  -5421716.43043  24500549.8984                   24500549.2624
 -21783118.88347 -16959038.35245  22497618.6414                   22497618.2584
 -18416261.90648 -14334266.90646  22071709.3754                   22071706.3364
 11  7 26  0 22  0.0000000  0  9G10G12G17G04G09G28G20G27G02
  -9309651.45747  -7239694.53944  23196591.8204                   23196591.8364
   1126928.84047    893326.63344  24698756.3834                   24698756.8524
 -33789223.05948 -26312938.71146  21632592.6564                   21632590.7734
 -34136339.63348 -26582497.52747  19974590.9064                   19974589.2424
 -15525534.30947 -12081824.30145  22173209.2504                   22173208.8914
 -37840017.68447 -29472951.43445  22200314.2584                   22200312.3444
  -6952287.48046  -5410288.16843  24503340.5474                   24503339.8094
 -21812930.68047 -16982268.34045  22491945.7664                   22491945.4454
 -18520559.05548 -14415537.34846  22051861.8834                   22051858.8874
 11  7 26  0 22 30.0000000  0  9G10G12G17G04G09G28G20G27G02
  -9433640.02047  -7336308.89144  23172997.1024                   23172997.6844
    997820.50847    792722.73444  24674187.8674                   24674188.5044
 -33787772.14547 -26311808.14546  21632868.4534                   21632866.7154
 -34168461.52748 -26607527.59047  19968478.6564                   19968476.5474
 -15567994.28547 -12114909.96145  22165129.5084                   22165129.1454
 -37811374.55147 -29450632.17645  22205764.8914                   22205763.3484
  -6937155.44546  -5398496.96943  24506220.4694                   24506219.1414
 -21842265.67647 -17005126.80145  22486363.4774                   22486362.9774
 -18624542.60548 -14496563.42646  22032074.7664                   22032071.8324
 11  7 26  0 23  0.0000000  0  9G10G12G17G04G09G28G20G27G02
  -9557497.98047  -7432821.46144  23149427.9454                   23149428.0164
    868697.78947    692107.62944  24649616.5004                   24649617.4344
 -33786229.45348 -26310606.05546  21633162.4844                   21633160.4064
 -34200023.41848 -26632121.27747  19962472.3364                   19962470.5784
 -15609810.12947 -12147493.70345  22157172.3984                   22157171.8674
 -37782361.59447 -29428024.75445  22211286.1254                   22211284.5004
  -6921549.46146  -5386336.47743  24509189.9614                   24509188.7304
 -21871114.67247 -17027606.56245  22480873.6954                   22480873.2774
 -18728201.45348 -14577336.48846  22012349.1954                   22012346.0514
 11  7 26  0 23 30.0000000  0  9G10G12G17G04G09G28G20G27G02
  -9681219.19147  -7529227.48444  23125884.1254                   23125884.3164
    739564.83246    591484.57444  24625043.4304                   24625043.9534
 -33784592.08647 -26309330.18746  21633474.0164                   21633472.0164
 -34231022.90248 -26656276.71547  19956573.6724                   19956571.6914
 -15650978.80547 -12179573.16845  22149338.3914                   22149337.7344
 -37752976.36747 -29405127.25045  22216878.2344                   22216876.3444
  -6905467.33246  -5373804.96943  24512250.5314                   24512248.5634
 -21899475.09447 -17049705.61345  22475477.2584                   22475476.3364
 -18831531.47348 -14657853.33646  21992686.2894                   21992682.7774
 11  7 26  0 24  0.0000000  0  9G10G12G17G04G09G28G20G27G02
  -9804798.00047  -7625522.57444  23102368.0784                   23102368.5594
    610425.59446    490856.64143  24600468.8914                   24600469.8134
 -33782857.68747 -26307978.71946  21633803.9064                   21633802.1644
 -34261458.68048 -26679992.90647  19950781.6724                   19950779.8244
 -15691498.30147 -12211146.77745  22141627.6094                   22141626.6564
 -37723216.86747 -29381938.10245  22222540.9304                   22222539.6054
  -6888907.34846  -5360901.05143  24515402.0704                   24515399.5204
 -21927345.07047 -17071422.50845  22470173.5164                   22470173.0354
 -18934529.32448 -14738111.34046  21973086.1644                   21973082.6094
 11  7 26  0 24 30.0000000  0  9G10G12G17G04G09G28G20G27G02
  -9928228.89847  -7721702.38344  23078879.5554                   23078879.9884
    481283.89546    390226.79343  24575893.5164                   24575895.1884
 -33781024.46947 -26306550.23446  21634152.5704                   21634150.8914
 -34291329.71148 -26703269.02747  19945097.2424                   19945095.9224
 -15731367.01647 -12242213.29345  22134040.8914                   22134039.9344
 -37693081.37147 -29358455.98045  22228275.4774                   22228274.0234
  -6871869.18746  -5347624.58243  24518643.3054                   24518642.8444
 -21954723.56647 -17092756.43445  22464963.6024                   22464963.1454
 -19037191.71548 -14818107.96546  21953549.7814                   21953546.8204
 11  7 26  0 25  0.0000000  0  9G10G12G17G04G09G28G20G27G02
 -10051507.58247  -7817763.59444  23055420.5394                   23055420.7544
    352142.47346    289597.20743  24551319.0234                   24551320.3874
 -33779091.95747 -26305044.38346  21634520.7424                   21634518.7074
 -34320636.34047 -26726105.35546  19939520.6254                   19939518.8874
 -15770584.32847 -12272772.24245  22126578.1954                   22126576.6524
 -37662569.64147 -29334680.68445  22234082.0004                   22234080.1764
  -6854353.19146  -5333975.77043  24521977.6884                   24521976.2234
 -21981610.20347 -17113707.08645  22459846.9774                   22459846.4494
 -19139516.91848 -14897841.84446  21934078.0314                   21934074.8874
 11  7 26  0 25 30.0000000  0  9G10G12G17G04G09G28G20G27G02
 -10174631.16846  -7913703.95744  23031990.6804                   23031991.0084
    223003.06646    188969.14143  24526744.3134                   24526746.4654
 -33777060.17247 -26303461.18746  21634907.4774                   21634905.3554
 -34349379.21948 -26748502.39147  19934051.3134                   19934049.2774
 -15809150.56248 -12302823.84845  22119239.0864                   22119238.0164
 -37631682.36747 -29310612.76645  22239959.6644                   22239957.6954
  -6836360.94946  -5319955.82842  24525400.8754                   24525399.5474
 -22008005.98447 -17134275.25845  22454823.9774                   22454823.6844
 -19241504.19548 -14977312.39546  21914670.5394                   21914667.4844
 11  7 26  0 26  0.0000000  0  9G10G12G17G04G09G28G20G27G02
 -10297595.36347  -8009520.10544  23008591.1644                   23008591.9734
     93867.59446     88344.20743  24502170.9384                   24502172.9964
 -33774928.19547 -26301799.91046  21635312.9844                   21635310.9964
 -34377558.72748 -26770460.43747  19928688.9774                   19928686.8674
 -15847064.80547 -12332367.41045  22112024.4224                   22112023.0984
 -37600418.63747 -29286251.50445  22245909.3284                   22245907.2344
  -6817892.42646  -5305564.80943  24528915.5554                   24528914.2344
 -22033910.34447 -17154460.49645  22449894.9144                   22449894.5234
 -19343151.18748 -15056517.79346  21895327.6024                   21895324.6564
 11  7 26  0 26 30.0000000  0  9G10G12G17G04G09G28G20G27G02
 -10420397.05947  -8105209.62944  22985222.5084                   22985223.6804
    -35261.98846    -12276.16043  24477598.7344                   24477600.3244
 -33772696.33247 -26300060.80546  21635737.8054                   21635735.5904
 -34405175.73448 -26791980.16447  19923433.3524                   19923431.5984
 -15884327.77348 -12361403.50445  22104933.7194                   22104931.9534
 -37568779.13347 -29261597.42645  22251929.8524                   22251928.0594
  -6798948.89146  -5290803.59043  24532520.2734                   24532518.5554
 -22059324.41847 -17174263.69545  22445058.9694                   22445058.4694
 -19444457.45348 -15135457.69146  21876049.7894                   21876046.6294
 11  7 26  0 27  0.0000000  0  9G10G12G17G04G09G28G20G27G02
 -10543033.16847  -8200770.11744  22961886.1884                   22961886.3874
   -164384.45346   -112890.95344  24453028.0164                   24453028.5594
 -33770365.13348 -26298244.28546  21636181.3674                   21636179.2504
 -34432231.97348 -26813062.93047  19918284.7424                   19918282.8404
 -15920940.50447 -12389932.91445  22097966.3754                   22097964.6914
 -37536764.96547 -29236651.40645  22258021.7424                   22258020.4224
  -6779532.48046  -5275673.90242  24536214.9534                   24536213.7274
 -22084249.59847 -17193685.94145  22440316.0164                   22440315.4924
 -19545422.31648 -15214131.55946  21856836.5864                   21856833.5704
 11  7 26  0 27 30.0000000  0  9G10G12G17G04G09G28G20G27G02
 -10665502.27347  -8296200.47344  22938580.6254                   22938580.9144
   -293499.54746   -213500.00444  24428457.9614                   24428458.8484
 -33767936.50848 -26296351.85546  21636643.7114                   21636641.5594
 -34458730.05948 -26833710.77047  19913242.5554                   19913240.6454
 -15956905.06647 -12417957.25845  22091123.0004                   22091120.6214
 -37504378.13747 -29211414.99245  22264185.3054                   22264183.3134
  -6759646.07045  -5260177.97742  24539999.1254                   24539997.7704
 -22108688.06647 -17212728.93445  22435665.5234                   22435664.8834
 -19646046.13347 -15292539.68046  21837688.7974                   21837685.3014
 11  7 26  0 28  0.0000000  0  9G10G12G17G04G09G28G20G27G02
 -10787798.55147  -8391496.15644  22915308.1414                   22915308.3834
   -422603.28547   -314100.23844  24403890.8054                   24403891.0864
 -33765408.15647 -26294381.71146  21637124.6094                   21637122.6414
 -34484668.70747 -26853922.68747  19908306.3054                   19908304.3204
 -15992219.76248 -12445475.21545  22084401.9694                   22084400.2774
 -37471616.91447 -29185886.83245  22270419.1564                   22270417.8054
  -6739288.69945  -5244315.11742  24543872.5394                   24543871.3054
 -22132638.25047 -17231391.43745  22431107.7974                   22431107.1214
 -19746325.80548 -15370679.63746  21818605.9144                   21818602.9774
 11  7 26  0 28 30.0000000  0  9G10G12G17G04G09G28G20G27G02
 -10909917.19947  -8486653.44144  22892070.0554                   22892069.6564
   -551692.06646   -414688.81644  24379325.7344                   24379326.3204
 -33762778.27047 -26292332.46146  21637625.0704                   21637623.4344
 -34510047.25448 -26873698.16046  19903476.9844                   19903474.9304
 -16026882.96147 -12472485.50445  22077805.9844                   22077804.3444
 -37438479.99247 -29160065.91845  22276725.2424                   22276723.8484
  -6718459.84045  -5228084.82842  24547836.2584                   24547835.4964
 -22156099.31647 -17249672.80945  22426643.3914                   22426643.0004
 -19846258.81648 -15448549.45746  21799589.3754                   21799586.3244
 11  7 26  0 29  0.0000000  0  9G10G12G17G04G09G28G20G27G02
 -11031855.20347  -8581669.95344  22868865.4774                   22868865.4264
   -680764.72346   -515264.84844  24354763.7424                   24354764.2504
 -33760047.41448 -26290204.53946  21638144.7344                   21638143.1484
 -34534867.49648 -26893038.58647  19898753.8204                   19898752.1884
 -16060895.68447 -12498988.94145  22071333.8054                   22071331.9264
 -37404968.44547 -29133953.09845  22283102.1024                   22283101.0514
  -6697161.41845  -5211488.71142  24551889.6094                   24551888.8094
 -22179072.64548 -17267574.12545  22422271.6884                   22422271.0234
 -19945844.57448 -15526148.68746  21780638.9694                   21780635.5904
 11  7 26  0 29 30.0000000  0  9G10G12G17G04G09G28G20G27G02
 -11153608.66847  -8676542.66844  22845697.1174                   22845696.4964
   -809818.98446   -615826.52044  24330205.3674                   24330205.5904
 -33757215.23847 -26287997.68046  21638683.7034                   21638681.9694
 -34559129.91448 -26911944.34447  19894136.7814                   19894134.8014
 -16094258.01247 -12524985.58245  22064985.4614                   22064983.4384
 -37371082.32047 -29107548.39145  22289550.8054                   22289549.5904
  -6675394.31245  -5194527.32842  24556031.6334                   24556031.1994
 -22201558.58247 -17285095.64545  22417992.8134                   22417991.9654
 -20045081.51648 -15603476.11346  21761754.3594                   21761751.2974
 11  7 26  0 30  0.0000000  0  9G10G12G17G04G09G28G20G27G02
 -11275174.26647  -8771269.00844  22822563.5164                   22822563.5554
   -938852.93046   -716372.39544  24305650.8594                   24305650.9224
 -33754281.68747 -26285711.81246  21639242.1484                   21639240.0514
 -34582835.63348 -26930416.30947  19889626.0004                   19889623.7664
 -16126970.42247 -12550475.77745  22058759.7114                   22058758.4384
 -37336822.24247 -29080852.29345  22296069.6804                   22296069.1094
  -6653159.76246  -5177201.66843  24560263.5704                   24560261.7194
 -22223557.91047 -17302237.98845  22413806.3984                   22413805.5274
 -20143968.84447 -15680531.11346  21742936.8834                   21742933.7584
 11  7 26  0 30 30.0000000  0  9G10G12G17G04G09G28G20G27G02
 -11396549.60247  -8865847.10244  22799466.4454                   22799466.1484
  -1067865.79746   -816901.87944  24281099.9844                   24281100.2274
 -33751247.80147 -26283347.76246  21639819.4064                   21639817.7584
 -34605986.66848 -26948456.04747  19885220.2034                   19885218.1254
 -16159034.39547 -12575460.71545  22052658.3284                   22052657.0594
 -37302189.40247 -29053865.71145  22302660.5314                   22302659.5274
  -6630460.50446  -5159513.96542  24564583.1884                   24564581.8554
 -22245072.58247 -17319002.66445  22409712.3914                   22409711.0864
 -20242506.60548 -15757313.72346  21724185.5394                   21724182.4344
 11  7 26  0 31  0.0000000  0  8G10G12G17G04G09G28G27G02
 -11517730.61347  -8960273.75444  22776406.5474                   22776406.1724
  -1196855.01646   -917412.91443  24256553.9844                   24256554.5824
 -33748112.41448 -26280904.64146  21640415.7424                   21640414.5164
 -34628583.31648 -26966063.80147  19880920.3984                   19880918.3714
 -16190449.89147 -12599940.34445  22046680.4304                   22046678.8554
 -37267183.60947 -29026588.52745  22309322.1024                   22309320.5474
 -22266102.57448 -17335389.67245  22405710.4064                   22405709.4184
 -20340692.69547 -15833822.30146  21705501.4144                   21705498.2074
 11  7 26  0 31 30.0000000  0  8G10G12G17G04G09G28G27G02
 -11638712.62147  -9054545.35944  22753383.9614                   22753384.5164
  -1325817.39846  -1017903.06643  24232013.3284                   24232013.3164
 -33744874.65248 -26278381.73046  21641032.3914                   21641030.3324
 -34650625.86348 -26983239.79747  19876725.6334                   19876723.7074
 -16221216.32447 -12623914.19545  22040825.6414                   22040824.6884
 -37231804.48047 -28999020.43045  22316054.5944                   22316053.4964
 -22286647.65248 -17351398.82445  22401800.9384                   22401799.5784
 -20438525.26648 -15910055.41446  21686884.6094                   21686881.3714
 11  7 26  0 32  0.0000000  0  8G10G12G17G04G09G28G27G02
 -11759481.26247  -9148650.69545  22730402.6644                   22730402.6524
  -1454739.98046  -1118362.21143  24207480.1884                   24207480.6524
 -33741523.32048 -26275770.33646  21641669.9304                   21641668.1994
 -34672104.21148 -26999976.14847  19872638.6724                   19872636.3054
 -16251323.30147 -12647374.18045  22035096.3204                   22035095.3244
 -37196041.28147 -28971153.05145  22322860.2974                   22322858.4534
 -22306697.62948 -17367022.18445  22397985.4844                   22397984.5984
 -20535992.44947 -15986003.80146  21668336.8754                   21668333.8634
 11  7 26  0 32 30.0000000  0  8G10G12G17G04G09G28G27G02
 -11880029.41447  -9242584.23044  22707463.3754                   22707462.9264
  -1583617.15646  -1218786.05144  24182955.4614                   24182956.1294
 -33738054.87548 -26273067.68046  21642330.3054                   21642328.2774
 -34693016.03548 -27016271.05947  19868659.0084                   19868657.0234
 -16280767.87147 -12670318.01245  22029493.4144                   22029491.8874
 -37159891.02747 -28942984.07845  22329739.2504                   22329737.9454
 -22326249.73847 -17382257.59445  22394264.7034                   22394263.9734
 -20633089.50048 -16061663.77746  21649860.0474                   21649856.7854
 11  7 26  0 33  0.0000000  0  8G10G12G17G04G09G28G27G02
 -12000357.82847  -9336346.55144  22684564.9064                   22684565.3524
  -1712451.03146  -1319176.03944  24158439.9694                   24158439.8014
 -33734472.81248 -26270276.48846  21643011.5784                   21643009.3204
 -34713366.38348 -27032128.45747  19864786.4844                   19864784.5744
 -16309554.43747 -12692749.09845  22024015.5474                   22024013.8714
 -37123358.05947 -28914516.87545  22336691.4614                   22336690.1524
 -22345308.78547 -17397108.80145  22390637.9844                   22390637.0944
 -20729819.21948 -16137037.52046  21631452.8364                   21631449.5744
 11  7 26  0 33 30.0000000  0  8G10G12G17G04G09G28G27G02
 -12120465.91047  -9429937.16844  22661709.3524                   22661709.6054
  -1841242.15246  -1419532.79344  24133932.2194                   24133931.3714
 -33730780.35947 -26267399.27746  21643714.8914                   21643712.5004
 -34733159.32448 -27047551.50847  19861020.1484                   19861018.0824
 -16337686.72347 -12714670.36345  22018662.0314                   22018660.6134
 -37086446.08247 -28885754.34845  22343714.8834                   22343714.2854
 -22363878.74647 -17411578.91445  22387104.4304                   22387103.4774
 -20826183.86748 -16212126.78546  21613115.3674                   21613112.0004
 11  7 26  0 34  0.0000000  0  8G10G12G17G04G09G28G27G02
 -12240352.37947  -9523355.09844  22638895.3984                   22638895.3524
  -1969991.45346  -1519856.92244  24109432.1094                   24109432.1374
 -33726979.81648 -26264437.84046  21644437.3914                   21644435.7304
 -34752398.60248 -27062543.13747  19857359.0704                   19857356.8874
 -16365168.04747 -12736084.38745  22013432.3754                   22013431.2344
 -37049158.12947 -28856698.85245  22350811.2034                   22350810.2584
 -22381963.06247 -17425670.59845  22383662.5784                   22383662.1054
 -20922184.95348 -16286932.76246  21594847.1644                   21594843.8364
 11  7 26  0 34 30.0000000  0  8G10G12G17G04G09G28G27G02
 -12360017.56647  -9616600.61345  22616123.9064                   22616123.9414
  -2098700.40247  -1620149.60944  24084939.2734                   24084939.6804
 -33723074.09447 -26261394.44146  21645180.8524                   21645179.0634
 -34771088.86348 -27077106.96547  19853802.2194                   19853800.3674
 -16392002.56647 -12756994.40645  22008326.4924                   22008325.0124
 -37011498.43447 -28827353.68445  22357977.5704                   22357976.4534
 -22399566.14148 -17439387.28945  22380313.2194                   22380312.4144
 -21017824.80548 -16361457.25846  21576647.2274                   21576643.8984
 11  7 26  0 35  0.0000000  0  8G10G12G17G04G09G28G27G02
 -12479460.69547  -9709673.09445  22593394.3594                   22593395.0664
  -2227369.82447  -1720411.44944  24060454.7344                   24060454.3444
 -33719066.51247 -26258271.66446  21645943.4844                   21645941.7774
 -34789234.49248 -27091246.39547  19850349.3444                   19850347.1954
 -16418194.10547 -12777403.38745  22003342.1254                   22003340.9494
 -36973470.40247 -28797721.48445  22365214.1644                   22365213.2234
 -22416691.82447 -17452731.99245  22377054.0474                   22377053.4264
 -21113105.82847 -16435702.13746  21558515.7974                   21558512.6724
 11  7 26  0 35 30.0000000  0  8G10G12G17G04G09G28G27G02
 -12598681.16447  -9802572.07045  22570707.7504                   22570707.8094
  -2356000.46546  -1820643.04744  24035976.9924                   24035976.8284
 -33714959.69147 -26255071.56246  21646724.9064                   21646723.1954
 -34806839.52748 -27104964.58246  19846999.1954                   19846997.3164
 -16443746.19147 -12797314.09045  21998479.7114                   21998478.7154
 -36935077.21547 -28767804.77045  22372520.2034                   22372519.0004
 -22433343.87947 -17465707.64145  22373885.5004                   22373884.5394
 -21208029.60248 -16509668.64146  21540452.1024                   21540449.0164
 11  7 26  0 36  0.0000000  0  8G10G12G17G04G09G28G27G02
 -12717679.10547  -9895297.66045  22548063.5784                   22548063.0124
  -2484594.05947  -1920845.75444  24011506.6174                   24011505.4144
 -33710756.80947 -26251796.59046  21647524.7194                   21647522.7624
 -34823908.59048 -27118265.13747  19843750.9224                   19843749.0744
 -16468663.04347 -12816729.80945  21993738.1644                   21993736.8984
 -36896322.96547 -28737606.70345  22379894.5634                   22379893.3444
 -22449526.98847 -17478317.87145  22370806.1724                   22370805.0594
 -21302599.14848 -16583359.12946  21522456.3204                   21522452.7074
 11  7 26  0 36 30.0000000  0  8G10G12G17G04G09G28G27G02
 -12836447.62547  -9987844.46545  22525462.2664                   22525462.1804
  -2613144.70746  -2021014.96144  23987044.2424                   23987043.4494
 -33706454.03547 -26248443.79346  21648343.5784                   21648341.6524
 -34840439.36748 -27131146.24647  19840605.0474                   19840603.3874
 -16492941.66447 -12835648.20345  21989118.1414                   21989116.8634
 -36857204.93747 -28707125.18045  22387338.6334                   22387337.5084
 -22465238.43747 -17490560.57845  22367815.7814                   22367814.9494
 -21396809.55548 -16656769.77346  21504528.3594                   21504525.2734
 11  7 26  0 37  0.0000000  0  8G10G12G17G04G09G28G27G02
 -12954983.47347 -10080209.97345  22502905.3674                   22502905.4804
  -2741650.77746  -2121149.42243  23962589.4774                   23962588.8674
 -33702051.75448 -26245013.44946  21649181.2344                   21649179.5274
 -34856433.59048 -27143609.27747  19837561.6724                   19837559.9654
 -16516583.57447 -12854070.45345  21984619.2664                   21984617.7504
 -36817724.54347 -28676361.28545  22394851.6884                   22394850.5044
 -22480479.91846 -17502437.07845  22364915.8364                   22364914.5634
 -21490660.24647 -16729900.11746  21486669.4534                   21486666.0514
 11  7 26  0 37 30.0000000  0  8G10G12G17G04G09G28G27G02
 -13073280.23047 -10172389.18445  22480394.1724                   22480393.9104
  -2870107.37946  -2221245.35544  23938144.7664                   23938144.2664
 -33697546.71148 -26241503.04346  21650038.7974                   21650036.5984
 -34871889.86748 -27155653.11747  19834620.3364                   19834618.5204
 -16539587.01648 -12871995.20745  21980241.9224                   21980240.5904
 -36777878.98847 -28645312.85944  22402434.0314                   22402432.9184
 -22495249.51247 -17513945.85945  22362104.8674                   22362104.1054
 -21584147.76647 -16802747.47346  21468879.1024                   21468875.8674
 11  7 26  0 38  0.0000000  0  8G10G12G17G04G09G28G27G02
 -13191334.28147 -10264379.27045  22457929.4774                   22457928.7584
  -2998512.60547  -2321301.25444  23913710.3284                   23913708.6094
 -33692939.08648 -26237912.69146  21650915.3284                   21650913.7624
 -34886809.50848 -27167278.80947  19831781.0944                   19831779.3914
 -16561952.84847 -12889423.10245  21975986.0164                   21975984.6054
 -36737669.29347 -28613980.68445  22410086.1484                   22410084.5234
 -22509548.26247 -17525087.77345  22359384.1954                   22359383.0514
 -21677271.08648 -16875311.03146  21451158.3284                   21451154.6524
 11  7 26  0 38 30.0000000  0  8G10G12G17G04G09G28G27G02
 -13309148.03547 -10356182.11345  22435510.0944                   22435509.5784
  -3126869.52047  -2421319.53144  23889284.0084                   23889282.4264
 -33688233.66848 -26234246.12546  21651810.6644                   21651809.3914
 -34901198.97348 -27178491.37147  19829042.9384                   19829041.2234
 -16583687.16847 -12906358.91845  21971849.8284                   21971848.9494
 -36697101.16047 -28582369.21145  22417805.4384                   22417804.6174
 -22523382.52047 -17535867.73045  22356751.5784                   22356750.7814
 -21770035.11748 -16947594.62146  21433505.6094                   21433502.3444
 11  7 26  0 39  0.0000000  0  8G10G12G17G04G09G28G27G02
 -13426716.53547 -10447793.83645  22413137.3674                   22413136.9844
  -3255175.03547  -2521297.78544  23864869.0944                   23864866.4264
 -33683429.22348 -26230502.39546  21652724.8754                   21652723.2074
 -34915058.77748 -27189291.21547  19826405.5474                   19826403.8524
 -16604789.85247 -12922802.54345  21967834.2814                   21967833.1294
 -36656174.01647 -28550477.99244  22425593.7034                   22425593.0664
 -22536752.30147 -17546285.76645  22354207.0784                   22354206.4964
 -21862437.71148 -17019596.57446  21415922.3204                   21415918.6844
 11  7 26  0 39 30.0000000  0  8G10G12G17G04G09G28G27G02
 -13544035.84847 -10539211.41045  22390812.4224                   22390811.9574
  -3383426.32847  -2621233.81644  23840463.7504                   23840461.3444
 -33678525.02048 -26226680.93746  21653658.2664                   21653656.5704
 -34928389.46548 -27199678.76247  19823868.8364                   19823866.7154
 -16625261.54347 -12938754.50845  21963937.8834                   21963937.4654
 -36614888.53947 -28518307.55944  22433450.6644                   22433449.2774
 -22549658.26246 -17556342.38745  22351751.5474                   22351750.7034
 -21954477.11748 -17091315.53546  21398407.5704                   21398403.9964
 11  7 26  0 40  0.0000000  0  8G10G12G17G04G09G28G27G02
 -13661103.17647 -10630432.62145  22368534.8834                   22368534.2974
  -3511621.60947  -2721126.19544  23816069.5394                   23816066.8754
 -33673521.31648 -26222781.94146  21654610.6954                   21654608.5124
 -34941193.00048 -27209655.54346  19821432.2274                   19821430.3014
 -16645103.71548 -12954215.92645  21960162.7734                   21960161.5984
 -36573245.78547 -28485858.73045  22441375.3134                   22441373.6294
 -22562102.01646 -17566038.83645  22349383.8284                   22349382.7734
 -22046153.43048 -17162751.55946  21380962.0394                   21380958.6564
 11  7 26  0 40 30.0000000  0  8G10G12G17G04G09G28G27G02
 -13777914.34447 -10721454.23845  22346306.5234                   22346305.8364
  -3639758.80547  -2820973.28544  23791685.5554                   23791683.2424
 -33668417.47348 -26218804.89846  21655581.6254                   21655579.8284
 -34953470.50048 -27219222.42647  19819096.0704                   19819094.1804
 -16664317.10547 -12969187.38745  21956506.6024                   21956505.5084
 -36531246.03147 -28453131.72344  22449367.2274                   22449366.6094
 -22574084.33247 -17575375.73045  22347103.5004                   22347103.0044
 -22137465.18748 -17233903.52346  21363586.1094                   21363582.4774
 11  7 26  0 41  0.0000000  0  8G10G12G17G04G09G28G27G02
 -13894466.78547 -10812274.24645  22324127.3364                   22324126.3634
  -3767836.46547  -2920774.00044  23767312.4844                   23767311.3164
 -33663214.12147 -26214750.31646  21656572.2424                   21656569.7774
 -34965224.14548 -27228381.10947  19816859.5634                   19816857.3674
 -16682903.34447 -12983670.16845  21952969.6414                   21952969.1054
 -36488890.73847 -28420127.66844  22457427.5704                   22457426.1604
 -22585606.92247 -17584354.39545  22344910.8524                   22344909.8324
 -22228412.30148 -17304771.35246  21346279.3524                   21346275.8984
 11  7 26  0 41 30.0000000  0  8G10G12G17G04G09G28G27G02
 -14010757.31647 -10902890.16044  22301997.1564                   22301997.3244
  -3895852.51647  -3020526.70744  23742952.2274                   23742950.5514
 -33657911.19147 -26210618.14546  21657580.5004                   21657578.7704
 -34976455.63748 -27237132.93447  19814722.3054                   19814720.1134
 -16700864.07047 -12997665.53545  21949551.7894                   21949550.6374
 -36446181.04347 -28386847.46544  22465554.4774                   22465553.5204
 -22596671.64547 -17592976.28145  22342805.3054                   22342804.7854
 -22318994.65648 -17375354.95346  21329042.1564                   21329038.6484
 11  7 26  0 42  0.0000000  0  8G10G12G17G04G09G28G27G02
 -14126781.27047 -10993298.34445  22279919.3054                   22279918.7624
  -4023803.77746  -3120228.91844  23718603.2584                   23718602.5594
 -33652507.12547 -26206407.17246  21658609.5634                   21658607.2734
 -34987165.20348 -27245478.05147  19812684.2034                   19812682.2664
 -16718199.04347 -13011173.30545  21946253.3054                   21946252.0274
 -36403116.41047 -28353290.69145  22473749.2344                   22473748.4804
 -22607278.43747 -17601241.34045  22340787.2344                   22340785.9454
 -22409210.31248 -17445652.81646  21311874.2114                   21311871.4024
 11  7 26  0 42 30.0000000  0  8G10G12G17G04G09G28G27G02
 -12667113.50447  -9855894.79344  22557684.7114                   22557683.8674
  -2576266.08646  -1992277.37144  23994060.1174                   23994059.1454
 -32071584.21147 -24974519.18046  21959448.9224                   21959447.1994
 -33421936.47348 -26025819.29747  20110536.9454                   20110535.0984
 -15159491.40248 -11796595.92645  22242865.0864                   22242864.1454
 -34784281.76647 -27091861.18745  22781803.6334                   22781802.7544
 -21042010.81247 -16381552.30945  22638648.5554                   22638647.3444
 -20923637.32048 -16288063.43446  21594569.7034                   21594566.4414
 11  7 26  0 43  0.0000000  0  8G10G12G17G04G09G28G27G02
 -12782596.35547  -9945881.32845  22535709.0164                   22535708.0664
  -2704083.52746  -2091875.31244  23969737.4144                   23969736.1054
 -32065979.97348 -24970152.24246  21960515.1644                   21960513.4534
 -33431609.46948 -26033356.69547  20108696.4064                   20108694.6094
 -15175581.39848 -11809133.58645  22239803.3914                   22239802.2304
 -34740512.52047 -27057755.35944  22790132.8364                   22790131.8284
 -21051708.25447 -16389108.77745  22636802.5634                   22636801.9804
 -21013119.19948 -16357789.53146  21577542.1484                   21577538.4024
 11  7 26  0 43 30.0000000  0  8G10G12G17G04G09G28G27G02
 -12897802.77747 -10035652.48045  22513785.3834                   22513785.3204
  -2831830.30546  -2191418.19544  23945427.8914                   23945427.0204
 -32060274.60948 -24965706.50046  21961600.9694                   21961598.9884
 -33440765.81648 -26040491.52047  20106954.2894                   20106952.0354
 -15191050.09048 -11821187.12545  22236859.8834                   22236859.0634
 -34696391.64147 -27023375.53944  22798528.4144                   22798527.8284
 -21060952.22747 -16396311.88345  22635043.1954                   22635042.8484
 -21102232.82048 -16427228.68746  21560584.2274                   21560580.8834
 11  7 26  0 44  0.0000000  0  8G10G12G17G04G09G28G27G02
 -13012728.74647 -10125205.07445  22491916.0164                   22491915.5704
  -2959503.50046  -2290903.74244  23921132.5004                   23921131.0594
 -32054467.48848 -24961181.45346  21962706.2894                   21962704.0864
 -33449406.57048 -26047224.57447  20105309.7114                   20105307.8014
 -15205898.19148 -11832757.08645  22234034.6414                   22234033.6174
 -34651919.25447 -26988721.82044  22806991.8444                   22806990.9304
 -21069743.56647 -16403162.30545  22633370.4534                   22633370.0784
 -21190976.69548 -16496379.72746  21543696.7894                   21543693.2274
 11  7 26  0 44 30.0000000  0  8G10G12G17G04G09G28G27G02
 -13127371.60547 -10214537.06645  22470100.0704                   22470099.6644
  -3087101.68747  -2390330.83244  23896851.6094                   23896849.6294
 -32048558.70748 -24956577.22346  21963830.2894                   21963828.5554
 -33457533.78148 -26053557.47747  20103763.3284                   20103761.3324
 -15220127.59447 -11843844.94545  22231326.7974                   22231325.8244
 -34607096.69947 -26953795.23844  22815520.9064                   22815519.5084
 -21078084.18447 -16409661.50845  22631783.1094                   22631782.6804
 -21279350.92248 -16565242.73046  21526879.6414                   21526876.0124
 11  7 26  0 45  0.0000000  0  8G10G12G17G04G09G28G27G02
 -13241728.98047 -10303646.62145  22448338.6884                   22448337.8754
  -3214623.66047  -2489698.53544  23872585.1954                   23872582.8594
 -32042549.01248 -24951894.34446  21964974.2584                   21964971.9774
 -33465149.94948 -26059492.15647  20102314.4384                   20102312.1604
 -15233740.79347 -11854452.64845  22228736.2194                   22228734.8754
 -34561926.09847 -26918597.45745  22824117.0634                   22824116.1884
 -21085976.23847 -16415811.18445  22630281.2424                   22630281.0514
 -21367355.53147 -16633817.72746  21510132.5944                   21510129.0904
 11  7 26  0 45 30.0000000  0  8G10G12G17G04G09G28G27G02
 -13355798.40647 -10392531.78545  22426631.7194                   22426631.3484
  -3342068.19547  -2589005.90644  23848333.4064                   23848331.9494
 -32036439.04748 -24947133.32846  21966136.9694                   21966134.7074
 -33472257.89148 -26065030.82047  20100961.4844                   20100959.6024
 -15246740.13747 -11864582.02745  22226262.6024                   22226261.5634
 -34516409.47347 -26883130.02744  22832778.2504                   22832777.2814
 -21093422.22747 -16421613.28145  22628864.3134                   22628864.2234
 -21454990.96147 -16702105.05546  21493456.2974                   21493452.6094
 11  7 26  0 46  0.0000000  0  8G10G12G17G04G09G28G27G02
 -13469573.18047 -10481187.35545  22404981.1724                   22404980.3444
  -3469429.79747  -2688248.64544  23824096.8834                   23824095.6454
 -32030225.19548 -24942291.38746  21967319.0474                   21967316.6564
 -33478855.58248 -26070171.87947  20099705.9304                   20099704.3204
 -15259123.66047 -11874231.54345  22223906.0164                   22223905.2854
 -34470544.19147 -26847390.92644  22841506.2274                   22841505.1604
 -21100420.21946 -16427066.27345  22627532.8754                   22627532.5164
 -21542253.28547 -16770101.64146  21476850.8984                   21476847.3404
 11  7 26  0 46 30.0000000  0  8G10G12G17G04G09G28G27G02
 -13583052.67247 -10569612.84445  22383386.8594                   22383385.8404
  -3596709.02747  -2787427.22344  23799876.8444                   23799875.5664
 -32023910.21148 -24937370.62946  21968521.0394                   21968518.9144
 -33484947.75448 -26074919.02746  20098546.7504                   20098544.4454
 -15270895.46148 -11883404.40245  22221665.6954                   22221664.5984
 -34424333.90647 -26811383.00844  22850299.6954                   22850298.7074
 -21106974.43447 -16432173.47345  22626285.4924                   22626284.8094
 -21629144.68747 -16837809.19546  21460316.1484                   21460312.4924
 11  7 26  0 47  0.0000000  0  8G10G12G17G04G09G28G27G02
 -13696232.98447 -10657805.20745  22361849.3284                   22361848.6134
  -3723903.22747  -2886539.53944  23775672.3284                   23775671.4414
 -32017493.46947 -24932370.59446  21969742.0554                   21969739.8324
 -33490535.57848 -26079273.17647  20097483.4384                   20097481.4104
 -15282056.69947 -11892101.48845  22219542.3524                   22219541.4264
 -34377779.07447 -26775106.59844  22859158.9844                   22859157.7034
 -21113086.05147 -16436935.78945  22625122.3984                   22625122.0864
 -21715664.32047 -16905227.06646  21443851.8524                   21443848.3554
 11  7 26  0 47 30.0000000  0  8G10G12G17G04G09G28G27G02
 -13809107.26247 -10745759.10245  22340369.9144                   22340369.4844
  -3851006.92647  -2985581.35244  23751485.3204                   23751484.7304
 -32010971.27747 -24927288.39546  21970982.9614                   21970981.0784
 -33495617.57848 -26083233.16847  20096516.2504                   20096514.5514
 -15292605.78947 -11900321.57845  22217534.5634                   22217533.8164
 -34330877.59447 -26738560.07444  22868084.4224                   22868083.1254
 -21118753.11347 -16441351.70745  22624044.2894                   22624043.3364
 -21801808.15648 -16972352.10546  21427459.1334                   21427455.8284
 11  7 26  0 48  0.0000000  0  8G10G12G17G04G09G28G27G02
 -13921674.50447 -10833473.76645  22318948.7894                   22318948.1644
  -3978020.42247  -3084552.91444  23727315.3984                   23727314.2384
 -32004345.70747 -24922125.64546  21972243.8054                   21972241.8444
 -33500197.68748 -26086802.07046  20095644.8284                   20095642.7854
 -15302546.54348 -11908067.63345  22215642.9454                   22215641.8164
 -34283633.20747 -26701746.35244  22877074.1094                   22877073.7464
 -21123979.33247 -16445424.10545  22623049.7894                   22623048.7894
 -21887577.99248 -17039185.72346  21411137.6254                   21411134.1994
 11  7 26  0 48 30.0000000  0  8G10G12G17G04G09G28G27G02
 -14033929.45347 -10920945.08245  22297587.3674                   22297586.5864
  -4104939.39847  -3183450.82044  23703163.5474                   23703161.9924
 -31997614.44547 -24916880.53946  21973524.5084                   21973522.4104
 -33504275.49248 -26089979.56647  20094868.5004                   20094866.8094
 -15311878.23447 -11915339.09845  22213867.4064                   22213866.4224
 -34236044.57847 -26664664.39144  22886129.6954                   22886129.3954
 -21128764.57446 -16449152.87945  22622139.4614                   22622138.1414
 -21972971.40248 -17105725.99646  21394887.8364                   21394883.9414
 11  7 26  0 49  0.0000000  0  8G10G12G17G04G09G28G27G02
 -14145867.35947 -11008169.35545  22276286.5164                   22276285.6644
  -4231760.18047  -3282272.19944  23679029.6334                   23679027.9064
 -31990775.96147 -24911551.88746  21974826.2504                   21974824.4574
 -33507851.57848 -26092766.10247  20094188.2114                   20094186.3284
 -15320601.31647 -11922136.31645  22212207.1254                   22212206.3094
 -34188111.32847 -26627313.88744  22895252.1644                   22895250.9264
 -21133108.91047 -16452538.09445  22621312.1954                   22621310.9224
 -22057986.53548 -17171971.51646  21378709.6564                   21378706.2974
 11  7 26  0 49 30.0000000  0  8G10G12G17G04G09G28G27G02
 -14257487.35247 -11095145.90245  22255045.5704                   22255044.7544
  -4358482.84046  -3381017.11344  23654915.7664                   23654914.1724
 -31983832.05947 -24906141.08646  21976148.0084                   21976145.3444
 -33510929.85548 -26095164.73847  20093602.5004                   20093600.5904
 -15328719.75447 -11928462.37945  22210662.1174                   22210661.2384
 -34139836.83647 -26589697.48844  22904438.3674                   22904437.3754
 -21137016.15247 -16455582.72345  22620569.0634                   22620567.7974
 -22142625.00448 -17237923.52346  21362603.8914                   21362599.9264
 11  7 26  0 50  0.0000000  0  8G10G12G17G04G09G28G27G02
 -14368784.27347 -11181870.71945  22233866.4844                   22233865.5664
  -4485103.54347  -3479682.56244  23630820.0234                   23630818.8094
 -31976780.77747 -24900646.62146  21977489.4384                   21977487.5664
 -33513510.56648 -26097175.65647  20093111.2584                   20093109.5124
 -15336233.62947 -11934317.35245  22209232.8834                   22209231.8674
 -34091220.34047 -26551814.60244  22913689.9924                   22913689.1134
 -21140486.40247 -16458286.83645  22619908.6334                   22619907.4144
 -22226884.54348 -17303580.25446  21346569.3674                   21346565.7464
 11  7 26  0 50 30.0000000  0  8G10G12G17G04G09G28G27G02
 -14479756.62147 -11268342.61745  22212748.9384                   22212748.3284
  -4611621.67247  -3578268.05144  23606744.7974                   23606743.8364
 -31969624.11747 -24895070.03146  21978851.7424                   21978849.6764
 -33515597.09048 -26098801.49647  20092714.1414                   20092712.1134
 -15343146.21147 -11939703.77745  22207917.0944                   22207916.6334
 -34042265.02747 -26513667.68744  22923005.4144                   22923005.0394
 -21143522.90647 -16460652.96545  22619330.9064                   22619329.4304
 -22310766.56247 -17368942.81646  21330607.5314                   21330603.8324
 11  7 26  0 51  0.0000000  0  8G10G12G17G04G09G28G27G02
 -14590398.78947 -11354557.22345  22191694.6094                   22191693.6214
  -4738032.96947  -3676770.28944  23582689.4064                   23582688.6174
 -31962358.88347 -24889408.84846  21980233.8364                   21980231.9884
 -33517189.15248 -26100042.03147  20092410.9774                   20092409.2934
 -15349456.91448 -11944621.21545  22206716.3204                   22206715.3404
 -33992969.48847 -26475255.69944  22932386.3754                   22932385.8324
 -21146124.87147 -16462680.48845  22618835.5084                   22618834.6724
 -22394268.50448 -17434009.19946  21314717.3834                   21314713.4064
 11  7 26  0 51 30.0000000  0  8G10G12G17G04G09G28G27G02
 -14700711.45347 -11440515.08245  22170702.4774                   22170702.0904
  -4864339.41047  -3775190.81245  23558654.5234                   23558653.0394
 -31954989.32447 -24883666.35945  21981636.6884                   21981634.3404
 -33518293.03148 -26100902.16846  20092201.0784                   20092199.1914
 -15355172.00847 -11949074.53945  22205628.5164                   22205627.8634
 -33943339.09447 -26436582.77344  22941830.7424                   22941830.2464
 -21148298.33647 -16464374.13345  22618422.0474                   22618421.1174
 -22477394.23448 -17498782.43446  21298898.8984                   21298895.0944
 11  7 26  0 52  0.0000000  0  8G10G12G17G04G09G28G27G02
 -14810685.71547 -11526209.24245  22149775.2114                   22149774.2424
  -4990532.77747  -3873523.21945  23534640.2114                   23534639.1564
 -31947509.33247 -24877837.80946  21983060.2894                   21983057.9414
 -33518904.28148 -26101378.43047  20092084.7034                   20092082.7814
 -15360287.35547 -11953060.53145  22204655.3674                   22204654.6684
 -33893369.41847 -26397645.46144  22951339.9694                   22951339.3444
 -21150038.98047 -16465730.50845  22618090.5314                   22618089.9534
 -22560137.34847 -17563257.52046  21283153.3524                   21283149.7424
 11  7 26  0 52 30.0000000  0  8G10G12G17G04G09G28G27G02
 -14920321.84047 -11611639.92245  22128912.2424                   22128911.5864
  -5116614.31647  -3971768.47744  23510648.1024                   23510646.1994
 -31939922.28148 -24871925.83646  21984503.4844                   21984501.8914
 -33519028.44548 -26101475.14846  20092061.1884                   20092058.9844
 -15364808.35947 -11956583.39845  22203794.8444                   22203794.4104
 -33843064.88347 -26358447.20744  22960912.6884                   22960911.4924
 -21151352.29347 -16466753.88745  22617841.0164                   22617840.4144
 -22642500.69548 -17627436.68746  21267480.2424                   21267476.0904
 11  7 26  0 53  0.0000000  0  8G10G12G17G04G09G28G27G02
 -15029617.87947 -11696805.58645  22108114.0164                   22108112.8484
  -5242583.27047  -4069926.01244  23486676.2894                   23486674.5124
 -31932229.11347 -24865931.18745  21985967.5554                   21985965.8244
 -33518669.00048 -26101195.03547  20092129.4304                   20092127.5164
 -15368738.10247 -11959645.54345  22203046.7584                   22203046.4534
 -33792428.25047 -26318990.16844  22970548.2814                   22970547.5514
 -21152241.25047 -16467446.61345  22617671.4064                   22617670.9264
 -22724485.85248 -17691321.16446  21251879.0234                   21251875.3134
 11  7 26  0 53 30.0000000  0  8G10G12G17G04G09G28G27G02
 -15138567.47347 -11781701.29745  22087381.0004                   22087379.8324
  -5368434.75047  -4167992.02344  23462727.1254                   23462725.3634
 -31924426.73847 -24859851.43445  21987452.0944                   21987450.2774
 -33517825.09448 -26100537.43046  20092290.0784                   20092288.2934
 -15372075.70347 -11962246.27045  22202411.9774                   22202411.3134
 -33741457.75447 -26279272.97744  22980248.3054                   22980246.9384
 -21152704.74247 -16467807.80145  22617583.7734                   22617583.2544
 -22806089.39148 -17754908.28546  21236350.6334                   21236346.9654
 11  7 26  0 54  0.0000000  0  8G10G12G17G04G09G28G27G02
 -15247169.86747 -11866326.45745  22066714.4844                   22066713.6134
  -5494168.19547  -4265966.08244  23438801.7274                   23438798.7304
 -31916516.73047 -24853687.78945  21988957.6334                   21988955.6414
 -33516500.38748 -26099505.18047  20092542.2664                   20092540.5554
 -15374825.13347 -11964388.70345  22201888.6564                   22201888.1094
 -33690156.68447 -26239298.19144  22990010.4224                   22990009.1254
 -21152746.52047 -16467840.37945  22617575.2504                   22617575.5164
 -22887312.81248 -17818199.20346  21220893.8284                   21220890.6484
 11  7 26  0 54 30.0000000  0  8G10G12G17G04G09G28G27G02
 -15355418.86747 -11950676.24245  22046115.5234                   22046114.9344
  -5619779.05547  -4363844.63344  23414898.6644                   23414895.9574
 -31908496.38347 -24847438.17246  21990483.6414                   21990482.1334
 -33514694.29748 -26098097.82847  20092885.8284                   20092883.9924
 -15376985.71947 -11966072.29345  22201476.9534                   22201477.1884
 -33638523.81647 -26199064.87944  22999835.9064                   22999835.0824
 -21152365.78947 -16467543.73845  22617648.4774                   22617647.8484
 -22968153.31248 -17881191.76246  21205510.7814                   21205506.7854
 11  7 26  0 55  0.0000000  0  8G10G12G17G04G09G28G27G02
 -15463310.15647 -12034747.28945  22025584.2894                   22025583.8134
  -5745263.90247  -4461624.98445  23391019.6644                   23391017.6024
 -31900364.27047 -24841101.46146  21992031.3134                   21992029.5904
 -33512407.53548 -26096315.93746  20093321.0314                   20093319.2734
 -15378558.41047 -11967297.78945  22201177.9614                   22201178.1804
 -33586558.85547 -26158572.77744  23009724.3834                   23009723.8674
 -21151563.28947 -16466918.44145  22617801.3674                   22617800.9224
 -23048609.56248 -17943884.89846  21190200.1414                   21190196.0594
 11  7 26  0 55 30.0000000  0  8G10G12G17G04G09G28G27G02
 -15570839.56247 -12118536.34445  22005122.6484                   22005121.4734
  -5870619.35947  -4559304.49645  23367165.1484                   23367163.2584
 -31892119.18747 -24834676.72746  21993600.5704                   21993598.7774
 -33509641.46548 -26094160.55547  20093847.4304                   20093845.6524
 -15379544.08247 -11968065.86745  22200990.3054                   22200990.2464
 -33534262.62547 -26117822.53144  23019675.9144                   23019675.6254
 -21150339.94547 -16465965.20745  22618033.9844                   22618033.5784
 -23128680.69948 -18006277.95346  21174963.0784                   21174959.2734
 11  7 26  0 56  0.0000000  0  8G10G12G17G04G09G28G27G02
 -15678005.57847 -12202042.24645  21984729.3594                   21984728.3094
  -5995844.66047  -4656882.57445  23343335.8984                   23343333.7424
 -31883762.52047 -24828165.05146  21995190.4304                   21995188.6524
 -33506399.32048 -26091634.21146  20094464.2814                   20094462.4734
 -15379946.38747 -11968379.37545  22200913.7274                   22200913.8914
 -33481637.91847 -26076816.35944  23029689.9224                   23029689.9064
 -21148699.02047 -16464686.59845  22618346.1174                   22618346.5124
 -23208367.28148 -18068371.35546  21159799.3284                   21159795.4804
 11  7 26  0 56 30.0000000  0  8G10G12G17G04G09G28G27G02
 -15784806.16047 -12285263.39845  21964405.9774                   21964404.7234
  -6120939.02347  -4754358.60244  23319530.6644                   23319528.5784
 -31875295.14147 -24821567.09046  21996801.9534                   21996800.0594
 -33502684.66448 -26088739.67647  20095171.1024                   20095169.4104
 -15379768.73847 -11968240.98045  22200947.4774                   22200947.3754
 -33428686.94147 -26035555.93744  23039766.6724                   23039766.2424
 -21146643.73447 -16463085.09045  22618737.2664                   22618736.8794
 -23287670.46148 -18130166.00846  21144708.2194                   21144705.0594
 11  7 26  0 57  0.0000000  0  9G10G12G17G05G04G09G28G27G02
 -15891239.50447 -12368198.39145  21944152.2194                   21944151.3284
  -6245901.64547  -4851731.95745  23295750.7974                   23295749.0634
 -31866718.16848 -24814883.71546  21998434.1254                   21998432.0274
   2949688.79756   2314254.51653  24640962.8204                   24640966.8714
 -33498500.92648 -26085479.63346  20095967.1484                   20095965.2074
 -15379014.85947 -11967653.58645  22201091.4844                   22201091.1294
 -33375412.93447 -25994043.78544  23049904.4844                   23049903.8714
 -21144177.42247 -16461163.32045  22619206.7034                   22619206.2934
 -23366591.80948 -18191663.13746  21129690.0704                   21129686.3134
 11  7 26  0 57 30.0000000  0  9G10G12G17G05G04G09G28G27G02
 -15997311.18047 -12450851.58245  21923966.9304                   21923966.2704
  -6370739.02347  -4949007.70344  23271994.6174                   23271992.8014
 -31858040.09848 -24808121.55546  22000085.3134                   22000083.4924
   2813472.56646   2208112.31343  24615041.4224                   24615046.1214
 -33493858.72348 -26081862.34446  20096850.9614                   20096848.7304
 -15377695.31647 -11966625.40245  22201342.5784                   22201341.7704
 -33321825.70747 -25952287.58644  23060101.6024                   23060100.9964
 -21141310.67246 -16458929.52045  22619751.8984                   22619751.6564
 -23445139.46548 -18252869.07446  21114742.9304                   21114739.4964
 11  7 26  0 58  0.0000000  0  9G10G12G17G05G04G09G28G27G02
 -16103023.61747 -12533224.82845  21903850.7894                   21903849.6174
  -6495454.10247  -5046188.15644  23248262.2274                   23248260.2424
 -31849266.18048 -24801284.71946  22001754.8674                   22001752.8954
   2677172.44146   2101904.75043  24589104.4534                   24589108.4844
 -33488765.61748 -26077893.71146  20097820.0084                   20097817.7194
 -15375817.84447 -11965162.48045  22201699.3834                   22201699.5514
 -33267932.09047 -25910292.63744  23070357.3134                   23070356.6954
 -21138050.88747 -16456389.46145  22620372.3984                   22620371.6724
 -23523318.93748 -18313788.12146  21099865.8284                   21099862.2234
 11  7 26  0 58 30.0000000  0  9G10G12G17G05G04G09G28G27G02
 -16208367.52347 -12615310.93045  21883804.4224                   21883803.2114
  -6620038.69947  -5143266.95744  23224554.6724                   23224552.9024
 -31840389.95747 -24794368.16846  22003444.1254                   22003441.9184
   2540797.11346   1995638.56644  24563152.5784                   24563156.4144
 -33483217.77748 -26073570.72746  20098875.7274                   20098873.7464
 -15373378.78947 -11963261.96545  22202163.7974                   22202163.1994
 -33213727.53947 -25868055.42244  23080672.1024                   23080671.8914
 -21134394.11747 -16453540.06645  22621067.8524                   22621067.6024
 -23601124.11748 -18374415.50446  21085059.8204                   21085055.9104
 11  7 26  0 59  0.0000000  0  9G10G12G17G05G04G09G28G27G02
 -16313338.58647 -12697106.50445  21863829.3674                   21863827.5944
  -6744489.21947  -5240241.27044  23200872.7344                   23200871.0354
 -31831409.64848 -24787370.53146  22005152.8364                   22005150.9024
   2404350.51646   1889316.84844  24537187.5944                   24537190.8754
 -33477215.49248 -26068893.63346  20100017.8444                   20100015.7814
 -15370378.38347 -11960924.03145  22202734.7504                   22202734.5664
 -33159211.91047 -25825575.80944  23091046.2424                   23091045.8054
 -21130340.81247 -16450381.68445  22621839.3134                   22621839.0164
 -23678553.11748 -18434749.76246  21070325.6804                   21070321.7854
 11  7 26  0 59 30.0000000  0  9G10G12G17G05G04G09G28G27G02
 -16417928.03547 -12778604.71145  21843926.4384                   21843925.2704
  -6868798.04747  -5337105.19145  23177217.1644                   23177215.7274
 -31822319.95747 -24780287.66446  22006882.8054                   22006881.0784
   2267840.47746   1782945.66444  24511210.5864                   24511213.7424
 -33470755.82848 -26063860.13346  20101247.2344                   20101245.1994
 -15366814.09847 -11958146.71545  22203413.2814                   22203412.6254
 -33104381.45747 -25782850.85944  23101480.3594                   23101479.7234
 -21125887.89147 -16446911.91445  22622687.1094                   22622686.4414
 -23755600.78948 -18494786.87946  21055663.9454                   21055660.1954
 11  7 26  1  0  0.0000000  0  9G10G12G17G05G04G09G28G27G02
 -16522132.52347 -12859802.95745  21824096.9384                   21824096.0124
  -6992962.52347  -5433856.59445  23153589.4064                   23153588.1724
 -31813120.13347 -24773118.96146  22008633.1644                   22008631.5824
   2131270.00546   1676527.35244  24485221.9454                   24485225.6644
 -33463840.69148 -26058471.71547  20102562.7424                   20102561.0474
 -15362687.65247 -11954931.34845  22204198.3754                   22204197.9024
 -33049236.88347 -25739881.15644  23111973.9924                   23111973.7814
 -21121036.77746 -16443131.87545  22623610.2194                   22623609.5864
 -23832266.44548 -18554526.31646  21041074.8524                   21041071.1294
 11  7 26  1  0 30.0000000  0  9G10G12G17G05G04G09G28G27G02
 -16625948.52047 -12940698.48045  21804341.2664                   21804340.0004
  -7116980.18047  -5530493.61345  23129989.1644                   23129988.3594
 -31803809.55547 -24765863.96146  22010404.6884                   22010403.4494
   1994641.96146   1570064.25044  24459222.1334                   24459225.7854
 -33456471.75048 -26052729.68747  20103965.4454                   20103963.3874
 -15358001.08647 -11951279.52745  22205090.6254                   22205089.8634
 -32993779.80547 -25696667.94544  23122527.0704                   23122527.1604
 -21115789.28547 -16439042.96145  22624608.8204                   22624608.0704
 -23908549.79748 -18613967.86746  21026558.3674                   21026554.7504
 11  7 26  1  1  0.0000000  0  9G10G12G17G05G04G09G28G27G02
 -16729372.44147 -13021288.49645  21784660.4144                   21784659.3244
  -7240847.79747  -5627013.71945  23106417.6334                   23106416.7704
 -31794387.62947 -24758522.18746  22012197.9694                   22012196.1684
   1857958.84446   1463558.16844  24433211.9064                   24433215.3524
 -33448650.57848 -26046635.27346  20105453.5944                   20105451.8134
 -15352756.06247 -11947192.53145  22206088.5784                   22206087.6764
 -32938011.22347 -25653212.02344  23133140.2894                   23133139.6804
 -21110147.07047 -16434646.48045  22625682.4144                   22625681.6174
 -23984450.13748 -18673110.95346  21012115.4064                   21012111.6214
 11  7 26  1  1 30.0000000  0  9G10G12G17G05G04G09G28G27G02
 -16832400.36747 -13101569.94145  21765054.6724                   21765053.5554
  -7364562.69947  -5723414.83245  23082875.3984                   23082874.7034
 -31784852.69148 -24751092.37145  22014012.5554                   22014010.5944
   1721224.45346   1357012.17244  24407192.2894                   24407195.3324
 -33440378.64148 -26040189.61346  20107027.8524                   20107025.7384
 -15346953.85947 -11942671.37145  22207192.6884                   22207191.9454
 -32881931.39147 -25609513.55544  23143811.3674                   23143810.9264
 -21104111.02047 -16429943.11345  22626831.1334                   22626830.3094
 -24059966.62147 -18731954.93446  20997744.8674                   20997741.1024
 11  7 26  1  2  0.0000000  0  9G10G12G17G05G04G09G28G27G02
 -16935028.74647 -13181540.04745  21745524.9064                   21745523.7194
  -7488121.80547  -5819694.57045  23059362.7504                   23059361.7734
 -31775204.10248 -24743574.00045  22015848.5784                   22015846.3094
   1584441.96946   1250428.68844  24381162.4924                   24381166.1134
 -33431657.40248 -26033393.84046  20108687.5004                   20108685.6214
 -15340596.66047 -11937717.74645  22208402.6174                   22208401.5394
 -32825541.22747 -25565573.27744  23154541.7814                   23154541.5314
 -21097682.74647 -16424934.11345  22628054.5084                   22628053.6254
 -24135098.44947 -18790499.17646  20983447.8444                   20983444.0514
 11  7 26  1  2 30.0000000  0  9G10G12G17G05G04G09G28G27G02
 -17037253.10247 -13261195.32045  21726072.6804                   21726071.3014
  -7611521.52047  -5915850.13745  23035881.2424                   23035879.6454
 -31765440.33647 -24735965.88346  22017706.6024                   22017704.8444
   1447615.47746   1143810.94943  24355125.4694                   24355129.3054
 -33422487.60948 -26026248.54746  20110432.3054                   20110430.1684
 -15333685.22747 -11932332.24245  22209717.8364                   22209716.8914
 -32768841.03547 -25521391.42244  23165331.8914                   23165331.6524
 -21090862.80547 -16419619.92645  22629352.1644                   22629351.6174
 -24209844.36347 -18848742.70746  20969224.2504                   20969220.2424
 11  7 26  1  3  0.0000000  0  9G10G12G17G05G04G09G28G27G02
 -17139070.93747 -13340533.81245  21706697.0084                   21706696.1374
  -7734759.89547  -6011880.00445  23012429.8054                   23012428.3674
 -31755562.00447 -24728268.50446  22019586.1254                   22019584.5944
   1310746.69146   1037160.25043  24329080.1884                   24329083.6764
 -33412872.18748 -26018756.00847  20112262.0784                   20112259.8714
 -15326223.03947 -11926517.58245  22211137.8754                   22211136.5904
 -32711832.80547 -25476969.55144  23176180.3524                   23176179.6684
 -21083654.30547 -16414002.96545  22630724.2664                   22630723.5474
 -24284204.89547 -18906685.92646  20955073.6254                   20955070.0004
 11  7 26  1  3 30.0000000  0  9G10G12G17G05G04G09G28G27G02
 -17240479.59047 -13419553.46945  21687399.5944                   21687398.7274
  -7857835.30147  -6107782.89145  22989008.8754                   22989007.0514
 -31745568.70747 -24720481.52046  22021488.1564                   22021486.1094
   1173837.83646    930478.28143  24303026.3594                   24303029.9734
 -33402813.70348 -26010918.22746  20114176.1094                   20114174.1994
 -15318212.57047 -11920275.67245  22212662.3134                   22212660.9024
 -32654518.61347 -25432309.23044  23187087.5084                   23187086.4384
 -21076059.39147 -16408084.89145  22632169.6024                   22632169.0084
 -24358180.37547 -18964329.11746  20940996.4614                   20940992.5824
 11  7 26  1  4  0.0000000  0  9G10G12G17G05G04G09G28G27G02
 -17341475.21547 -13498251.26645  21668180.5784                   21668179.3244
  -7980744.57047  -6203556.32845  22965620.1884                   22965617.9804
 -31735459.27747 -24712604.03945  22023411.9064                   22023410.0594
   1036892.52346    823767.89843  24276967.2274                   24276970.3134
 -33392313.38748 -26002736.15646  20116174.1884                   20116172.3324
 -15309655.40247 -11913607.77745  22214290.6804                   22214289.5474
 -32596899.04746 -25387410.98444  23198051.6254                   23198052.2154
 -21068079.52747 -16401866.84845  22633687.9614                   22633687.5234
 -24431769.81648 -19021671.48446  20926992.9064                   20926989.1454
 11  7 26  1  4 30.0000000  0  9G10G12G17G05G04G09G28G27G02
 -17442054.13747 -13576624.37145  21649040.7504                   21649039.8874
  -8103484.59447  -6299197.89545  22942263.1254                   22942261.2194
 -31725232.28147 -24704634.94945  22025357.7814                   22025356.0394
    899914.02346    717031.63343  24250900.7504                   24250903.7384
 -33381372.69148 -25994210.94146  20118256.1804                   20118254.0514
 -15300553.24247 -11906515.20345  22216022.9304                   22216021.0124
 -32538974.82447 -25342275.32844  23209074.4304                   23209074.6174
 -21059716.34047 -16395350.11745  22635279.5944                   22635279.7074
 -24504972.55148 -19078712.53146  20913063.1334                   20913059.1094
 11  7 26  1  5  0.0000000  0  9G10G12G17G05G04G09G28G27G02
 -17542212.10947 -13654669.45345  21629981.5234                   21629980.2974
  -8226051.65647  -6394704.68045  22918939.4924                   22918937.7384
 -31714887.15248 -24696573.83245  22027326.3984                   22027325.2814
    762906.24646    610272.58644  24224828.6644                   24224832.2034
 -33369992.84848 -25985343.53546  20120421.5944                   20120419.6214
 -15290907.50847 -11898999.06245  22217858.2814                   22217856.4494
 -32480746.49247 -25296902.69944  23220155.1484                   23220155.2304
 -21050970.53547 -16388535.25045  22636943.9534                   22636943.8364
 -24577787.71948 -19135451.57046  20899206.6414                   20899202.5984
 11  7 26  1  5 30.0000000  0  9G10G12G17G05G04G09G28G27G02
 -17641949.66047 -13732386.93745  21611002.3834                   21611000.9384
  -8348447.18047  -6490077.81245  22895648.5634                   22895647.4104
 -31704426.98048 -24688423.06645  22029317.2274                   22029315.1724
    625868.02046    503489.79744  24198751.3914                   24198753.7464
 -33358179.59448 -25976138.41446  20122669.4144                   20122667.5704
 -15280724.29747 -11891064.10245  22219796.2114                   22219793.8444
 -32422218.94147 -25251296.88744  23231292.9614                   23231292.2734
 -21041847.95747 -16381426.78545  22638679.8364                   22638679.6414
 -24650218.56248 -19191891.14846  20885423.5394                   20885419.3954
 11  7 26  1  6  0.0000000  0  9G10G12G17G05G04G09G28G27G02
 -17741262.71947 -13809773.65245  21592103.7114                   21592102.0554
  -8470667.65647  -6585314.53945  22872390.6254                   22872389.7274
 -31693849.97747 -24680181.25445  22031329.7424                   22031327.5124
    488803.44146    396686.44544  24172668.0164                   24172670.7854
 -33345933.77047 -25966596.21146  20124999.8134                   20124998.0514
 -15270004.82047 -11882711.27345  22221835.9224                   22221833.8524
 -32363392.68446 -25205458.34044  23242486.8134                   23242486.7934
 -21032349.55147 -16374025.46545  22640487.2664                   22640487.2384
 -24722263.85948 -19248030.30546  20871713.8754                   20871709.8444
 11  7 26  1  6 30.0000000  0  9G10G12G17G05G04G09G28G27G02
 -17840149.64847 -13886828.31245  21573285.6644                   21573284.4304
  -8592711.93047  -6680413.95345  22849166.4774                   22849165.1524
 -31683156.91847 -24671849.00845  22033364.3674                   22033362.6604
    351713.46146    289863.33244  24146580.9614                   24146583.0704
 -33333259.36748 -25956720.05946  20127411.8444                   20127409.9024
 -15258753.14147 -11873943.73845  22223977.3364                   22223974.7304
 -32304271.16846 -25159389.69144  23253737.2814                   23253736.9654
 -21022478.98847 -16366334.14145  22642365.7894                   22642365.1884
 -24793925.50848 -19303870.50446  20858076.9144                   20858072.7734
 11  7 26  1  7  0.0000000  0  9G10G12G17G05G04G09G28G27G02
 -17938606.53147 -13963547.89145  21554549.8594                   21554548.3874
  -8714576.39147  -6775373.25045  22825976.0314                   22825974.8164
 -31672346.52347 -24663425.32845  22035421.9774                   22035420.3324
    214601.93046    183023.44144  24120488.8754                   24120491.7304
 -33320157.05148 -25946510.44546  20129905.2584                   20129903.1564
 -15246970.27347 -11864762.28145  22226219.1804                   22226217.7504
 -32244854.32446 -25113090.93744  23265044.1884                   23265043.9924
 -21012237.05147 -16358353.43745  22644314.3984                   22644313.9264
 -24865201.88348 -19359410.49246  20844513.4384                   20844509.3014
 11  7 26  1  7 30.0000000  0  9G10G12G17G05G04G09G28G27G02
 -16461207.59047 -12812327.85245  21835689.5234                   21835688.2504
  -7260835.37547  -5642588.00845  23102614.0864                   23102612.2344
 -30085999.61747 -23427310.85945  22337293.5394                   22337291.4384
   1652895.41846   1303771.86744  24394187.5554                   24394189.7584
 -31731210.57448 -24708370.32046  20432271.6484                   20432269.6374
 -13659240.53947 -10627570.28545  22528354.2664                   22528352.4494
 -30609726.61346 -23838965.52744  23576198.1644                   23576198.5394
 -19426207.34047 -15122486.14545  22946126.1174                   22946125.1094
 -23360671.64548 -18187049.23046  21130815.8594                   21130812.1294
 11  7 26  1  8  0.0000000  0  9G10G12G17G05G04G09G28G27G02
 -16558795.89847 -12888370.63345  21817119.0084                   21817117.6134
  -7382334.26647  -5737262.41444  23079493.3594                   23079491.7894
 -30074954.10548 -23418703.96545  22339395.7274                   22339393.5864
   1515747.96146   1196904.00844  24368088.8054                   24368091.0664
 -31717260.57448 -24697500.17646  20434926.1884                   20434924.3754
 -13646404.89147 -10617568.48845  22530796.8674                   22530795.4414
 -30549725.08246 -23792211.16844  23587616.4844                   23587616.4454
 -19415230.74647 -15113932.97745  22948215.0084                   22948213.4614
 -23431179.06248 -18241990.02746  21117399.0864                   21117394.6914
 11  7 26  1  8 30.0000000  0  9G10G12G17G05G04G09G28G27G02
 -16655947.50847 -12964073.10945  21798631.8524                   21798630.5554
  -7503648.85247  -5831793.20745  23056407.6954                   23056406.3954
 -30063793.08248 -23410007.07445  22341519.2974                   22341517.4414
   1378584.61346   1090023.76244  24341987.2274                   24341989.7114
 -31702892.23048 -24686304.05146  20437660.3204                   20437658.4694
 -13633048.50047 -10607160.90645  22533337.9924                   22533336.8204
 -30489435.66046 -23745232.46943  23599088.6094                   23599088.8554
 -19403892.05147 -15105097.64145  22950372.9924                   22950370.8554
 -23501304.30548 -18296633.03946  21104054.5634                   21104050.4494
 11  7 26  1  9  0.0000000  0  9G10G12G17G05G04G09G28G27G02
 -16752656.35547 -13039430.59045  21780228.2274                   21780227.2074
  -7624773.46947  -5926175.95345  23033358.6884                   23033358.0514
 -30052512.79348 -23401217.23845  22343665.6724                   22343664.1254
   1241411.11746    983135.61744  24315883.5004                   24315886.4104
 -31688104.36348 -24674781.01246  20440474.5704                   20440472.2974
 -13619171.07447 -10596347.33645  22535979.0784                   22535977.9534
 -30428856.64146 -23698028.14543  23610617.3054                   23610617.4454
 -19392190.27347 -15095979.37545  22952599.4224                   22952597.8444
 -23571044.00048 -18350975.62946  21090783.5084                   21090779.4384
 11  7 26  1  9 30.0000000  0  9G10G12G17G05G04G09G28G27G02
 -16848922.10547 -13114442.79345  21761909.9304                   21761908.6684
  -7745708.29747  -6020410.80145  23010345.8524                   23010344.5044
 -30041115.24647 -23392336.03145  22345834.5084                   22345832.6884
   1104227.43046    876239.52044  24289778.1804                   24289780.6884
 -31672902.06648 -24662935.05146  20443367.1414                   20443365.2854
 -13604777.86347 -10585131.83645  22538718.1024                   22538716.9494
 -30367992.60246 -23650601.71143  23622199.4144                   23622199.4654
 -19380130.34847 -15086582.04745  22954894.6174                   22954893.0594
 -23640401.07048 -18405020.07446  21077585.4384                   21077581.1214
 11  7 26  1 10  0.0000000  0  9G10G12G17G05G04G09G28G27G02
 -16944740.27047 -13189106.23045  21743676.1954                   21743674.8284
  -7866449.20747  -6114494.54345  22987369.6024                   22987368.0004
 -30029598.41447 -23383361.87545  22348026.4844                   22348024.4844
    967038.26246    769339.16844  24263672.1024                   24263674.6024
 -31657285.69948 -24650766.44546  20446338.8984                   20446336.8714
 -13589869.85547 -10573515.21545  22541555.0394                   22541554.2814
 -30306843.08647 -23602952.86744  23633835.8364                   23633835.8284
 -19367712.97747 -15076906.18045  22957257.1414                   22957256.4844
 -23709373.68048 -18458764.92646  21064460.1724                   21064455.7114
 11  7 26  1 10 30.0000000  0  9G10G12G17G05G04G09G28G27G02
 -17040107.76647 -13263418.50445  21725528.5634                   21725526.8674
  -7986993.63347  -6208425.15645  22964430.3834                   22964429.2704
 -30017961.80147 -23374294.37145  22350240.2584                   22350238.7734
    829846.62946    662436.86744  24237565.0084                   24237567.5824
 -31641257.54748 -24638276.96946  20449389.0554                   20449387.3364
 -13574449.75847 -10561499.55145  22544489.2664                   22544488.6644
 -30245409.98846 -23555083.01243  23645526.0554                   23645526.5824
 -19354940.25847 -15066953.43445  22959687.2894                   22959687.5314
 -23777961.94548 -18512210.29346  21051408.2734                   21051404.1214
 11  7 26  1 11  0.0000000  0  9G10G12G17G05G04G09G28G27G02
 -17135023.01647 -13337378.37945  21707466.6334                   21707465.1294
  -8107340.60547  -6302201.91445  22941528.7974                   22941527.5824
 -30006206.00847 -23365134.01245  22352477.7504                   22352475.8984
    692653.61346    555533.46944  24211457.9844                   24211459.8954
 -31624821.19948 -24625469.43046  20452516.8364                   20452514.7664
 -13558521.30547 -10549087.78145  22547520.1804                   22547520.2034
 -30183696.43447 -23506994.65643  23657270.1174                   23657269.9384
 -19341815.78947 -15056726.59445  22962184.9774                   22962185.2034
 -23846167.34047 -18565357.32046  21038428.9924                   21038425.1564
 11  7 26  1 11 30.0000000  0  9G10G12G17G05G04G09G28G27G02
 -17229481.64147 -13410982.43745  21689491.3984                   21689490.3134
  -8227486.32047  -6395821.83245  22918665.8984                   22918664.3984
 -29994329.68747 -23355879.73845  22354737.6564                   22354735.7424
    555462.97746    448631.91044  24185350.7734                   24185353.1954
 -31607977.39548 -24612344.39146  20455721.8754                   20455719.9344
 -13542085.72347 -10536280.83645  22550647.6414                   22550647.8834
 -30121702.28146 -23458687.64543  23669067.0314                   23669067.1604
 -19328340.41447 -15046226.34045  22964749.0474                   22964749.9494
 -23913988.80147 -18618205.17246  21025523.1254                   21025518.8014
 11  7 26  1 12  0.0000000  0  9G10G12G17G05G04G09G28G27G02
 -17323481.94147 -13484229.37145  21671603.7344                   21671602.2194
  -8347429.38347  -6489283.85545  22895841.3054                   22895839.8674
 -29982333.60247 -23346532.14845  22357020.5004                   22357018.6524
    418276.66047    341733.73044  24159245.3834                   24159246.5864
 -31590729.59048 -24598904.54746  20459004.3914                   20459002.3014
 -13525146.92247 -10523081.77745  22553871.1024                   22553871.0864
 -30059430.16446 -23410164.01643  23680917.8364                   23680916.9414
 -19314517.84447 -15035455.54745  22967379.5004                   22967380.1524
 -23981427.42648 -18670754.71146  21012689.9064                   21012685.8094
 11  7 26  1 12 30.0000000  0  9G10G12G17G05G04G09G28G27G02
 -17417020.50047 -13557116.50445  21653803.8834                   21653802.5634
  -8467166.76247  -6582585.60945  22873056.0314                   22873054.3524
 -29970216.36347 -23337090.15245  22359326.3834                   22359324.1174
    281097.81646    234841.35544  24133140.9924                   24133142.6214
 -31573079.77048 -24585151.44546  20462362.8364                   20462360.9304
 -13507707.46147 -10509492.60245  22557190.0394                   22557189.8284
 -29996881.48046 -23361424.91443  23692820.1094                   23692819.8754
 -19300349.72747 -15024415.49245  22970076.1174                   22970076.2464
 -24048482.89848 -18723005.68746  20999930.0314                   20999925.5234
 11  7 26  1 13  0.0000000  0  9G10G12G17G05G04G09G28G27G02
 -17510095.05147 -13629642.07445  21636092.9144                   21636091.2234
  -8586696.62547  -6675725.67245  22850310.7114                   22850309.0984
 -29957978.38347 -23327554.07045  22361655.5084                   22361653.0664
    143928.87947    127956.71544  24107037.9774                   24107039.9534
 -31555030.59448 -24571087.16446  20465797.4224                   20465795.3874
 -13489770.39147 -10495515.66845  22560603.2974                   22560603.0704
 -29934058.81246 -23312472.27343  23704774.9384                   23704774.1604
 -19285838.98847 -15013108.46145  22972837.5944                   22972837.1134
 -24115156.01247 -18774958.74646  20987241.9774                   20987237.6764
 11  7 26  1 13 30.0000000  0  9G10G12G17G05G04G09G28G27G02
 -17602701.65647 -13701803.02045  21618470.2034                   21618468.4064
  -8706015.66847  -6768701.45345  22827604.1804                   22827602.7034
 -29945618.59847 -23317923.08245  22364006.9694                   22364005.4964
      6773.27747     21082.46944  24080938.2974                   24080939.7344
 -31536583.45348 -24556712.78946  20469307.8594                   20469306.1254
 -13471337.54347 -10481152.41845  22564110.9304                   22564111.0984
 -29870962.86747 -23263306.71143  23716781.2584                   23716781.5904
 -19270987.13347 -15001535.62545  22975663.5474                   22975663.7624
 -24181445.93447 -18826613.20746  20974627.2734                   20974623.6844
 11  7 26  1 14  0.0000000  0  9G10G12G17G05G04G09G28G27G02
 -17694835.69547 -13773595.73446  21600937.3754                   21600936.1724
  -8825119.25047  -6861509.33245  22804939.7974                   22804938.0824
 -29933134.10248 -23308194.91045  22366382.6174                   22366381.1644
   -130364.11347    -85777.60244  24054841.4844                   24054843.5354
 -31517738.68048 -24542028.55946  20472893.8674                   20472892.1604
 -13452409.88747 -10466403.61745  22567713.0084                   22567712.5044
 -29807593.12546 -23213927.79343  23728840.1724                   23728840.4574
 -19255794.23447 -14989697.04745  22978554.9064                   22978554.5274
 -24247350.90248 -18877967.69946  20962086.0084                   20962082.2504
 11  7 26  1 14 30.0000000  0  9G10G12G17G05G04G09G28G27G02
 -17786495.73847 -13845019.10246  21583495.2424                   21583493.4804
  -8944006.19547  -6954148.40645  22782316.4224                   22782315.0314
 -29920526.05548 -23298370.46545  22368782.4064                   22368780.0514
   -267481.71147   -192622.24644  24028748.5234                   24028750.1524
 -31498499.69948 -24527037.17246  20476555.1724                   20476553.0234
 -13432991.48047 -10451272.41045  22571408.1954                   22571408.0274
 -29743952.50446 -23164337.77743  23740951.1024                   23740951.2154
 -19240263.82447 -14977595.45345  22981510.1254                   22981509.5864
 -24312872.34848 -18929023.34046  20949617.7504                   20949613.6994
 11  7 26  1 15  0.0000000  0  9G10G12G17G05G04G09G28G27G02
 -17877680.45747 -13916072.07045  21566143.3834                   21566141.6134
  -9062675.53547  -7046617.91845  22759734.5634                   22759732.6684
 -29907795.20347 -23288450.31245  22371204.5084                   22371202.7384
   -404578.24647   -299450.47344  24002660.1174                   24002661.5594
 -31478870.44548 -24511741.66446  20480290.2894                   20480288.3324
 -13413086.44947 -10435762.02045  22575195.8284                   22575195.5664
 -29680044.35246 -23114539.32043  23753112.5234                   23753113.2424
 -19224399.59847 -14965233.76245  22984529.0784                   22984528.5744
 -24378011.99648 -18979781.46546  20937222.2974                   20937218.1524
 11  7 26  1 15 30.0000000  0  9G10G12G17G05G04G09G28G27G02
 -17968384.58647 -13986750.56246  21548882.6174                   21548881.2854
  -9181122.44147  -7138914.13745  22737194.6724                   22737192.7274
 -29894938.82847 -23278432.35945  22373650.9144                   22373649.1254
   -541648.57447   -406258.30544  23976576.2584                   23976577.9144
 -31458850.74248 -24496141.90646  20484099.8594                   20484098.0164
 -13392695.34847 -10419872.87145  22579076.3754                   22579075.7734
 -29615868.10946 -23064531.97343  23765324.2584                   23765325.0664
 -19208201.93047 -14952612.24645  22987611.2584                   22987611.1884
 -24442767.47348 -19030240.23046  20924899.7894                   20924895.4654
 11  7 26  1 16  0.0000000  0  9G10G12G17G05G04G09G28G27G02
 -18058605.26647 -14057052.33245  21531714.2424                   21531712.9494
  -9299344.41847  -7231035.08645  22714697.9534                   22714695.4884
 -29881956.74247 -23268316.44545  22376121.5234                   22376119.4414
   -678690.13747   -513043.69944  23950497.5474                   23950499.6484
 -31438442.68748 -24480239.53946  20487983.4064                   20487981.7774
 -13371820.85547 -10403607.04345  22583048.6254                   22583047.6334
 -29551425.37146 -23014316.95343  23777588.1884                   23777587.9224
 -19191673.19147 -14939732.75445  22990756.6564                   22990756.1684
 -24507139.18048 -19080399.96146  20912649.8674                   20912645.5824
 11  7 26  1 16 30.0000000  0  9G10G12G17G05G04G09G28G27G02
 -18148340.44947 -14126975.78546  21514638.0554                   21514636.7384
  -9417339.55947  -7322979.28545  22692244.1254                   22692241.7034
 -29868849.11747 -23258102.72345  22378615.7344                   22378613.5274
   -815700.47747   -619804.76244  23924425.6174                   23924426.9884
 -31417649.63748 -24464037.17246  20491940.3914                   20491938.6414
 -13350466.57447 -10386967.35545  22587112.5314                   22587110.8594
 -29486718.65646 -22963896.22743  23789901.0944                   23789901.4804
 -19174816.30147 -14926597.55544  22993964.3284                   22993963.8284
 -24571128.17647 -19130261.48846  20900473.3914                   20900469.4024
 11  7 26  1 17  0.0000000  0  9G10G12G17G05G04G09G28G27G02
 -18237584.88347 -14196516.83246  21497655.5314                   21497653.7734
  -9535102.60947  -7414742.63745  22669834.5164                   22669831.9844
 -29855612.52348 -23247788.50845  22381134.8754                   22381132.7424
   -952674.18047   -726537.27044  23898360.0704                   23898361.5474
 -31396471.09448 -24447534.41446  20495970.6804                   20495968.5824
 -13328632.93047 -10369954.14545  22591266.9144                   22591265.4694
 -29421746.94146 -22913269.00443  23802264.9454                   23802266.0904
 -19157631.21147 -14913206.61344  22997234.5234                   22997234.1024
 -24634732.09448 -19179822.96946  20888369.7894                   20888365.8484
 11  7 26  1 17 30.0000000  0  9G10G12G17G05G04G09G28G27G02
 -18326338.15247 -14265675.16046  21480766.0784                   21480764.4964
  -9652633.32047  -7506324.95345  22647469.2734                   22647466.6954
 -29842248.87947 -23237375.27745  22383677.6884                   22383675.8594
  -1089610.72747   -833240.82044  23872301.9384                   23872302.4614
 -31374911.43048 -24430734.68046  20500072.9774                   20500071.2154
 -13306325.01247 -10352571.37145  22595512.3054                   22595510.6804
 -29356514.53146 -22862438.63743  23814678.0314                   23814678.9384
 -19140122.41047 -14899563.43744  23000566.4304                   23000566.6134
 -24697953.16047 -19229086.12546  20876339.2344                   20876334.9804
 11  7 26  1 18  0.0000000  0  9G10G12G17G05G04G09G28G27G02
 -18414597.00847 -14334448.21946  21463971.1484                   21463969.5664
  -9769929.06247  -7597724.17645  22625148.3524                   22625146.2034
 -29828757.43047 -23226862.45745  22386244.8834                   22386243.2384
  -1226506.84447   -939912.86344  23846251.2584                   23846252.2504
 -31352972.98848 -24413639.80146  20504247.7584                   20504245.6914
 -13283545.45347 -10334821.08245  22599846.5314                   22599845.3594
 -29291022.57046 -22811406.03143  23827141.4924                   23827141.4654
 -19122292.05947 -14885669.68744  23003959.6024                   23003959.4064
 -24760791.59847 -19278051.11346  20864381.3674                   20864377.4454
 11  7 26  1 18 30.0000000  0  9G10G12G17G05G04G09G28G27G02
 -18502358.65647 -14402833.85246  21447270.4454                   21447268.9574
  -9886987.08247  -7688938.17245  22602873.1884                   22602871.0864
 -29815137.27347 -23216249.32845  22388836.8914                   22388835.3794
  -1363359.74647  -1046551.22344  23820208.6174                   23820209.5124
 -31330657.76648 -24396251.32446  20508494.6564                   20508492.6994
 -13260296.78547 -10316705.26245  22604270.9304                   22604269.5354
 -29225272.73446 -22760172.46543  23839652.9924                   23839653.5234
 -19104142.57847 -14871527.27044  23007413.1254                   23007413.7894
 -24823247.41048 -19326717.93446  20852496.6254                   20852492.4964
 11  7 26  1 19  0.0000000  0  9G10G12G17G05G04G09G28G27G02
 -18589617.96947 -14470828.04746  21430665.7504                   21430663.8054
 -10003802.23047  -7779962.91045  22580643.7894                   22580641.3984
 -29801386.00847 -23205534.05545  22391453.8364                   22391451.4654
  -1500164.07047  -1153151.71944  23794175.4614                   23794176.3444
 -31307965.50448 -24378569.05146  20512812.6724                   20512810.6294
 -13236579.63347 -10298224.38745  22608783.4144                   22608782.2734
 -29159264.55147 -22708737.60943  23852214.1024                   23852214.2544
 -19085673.56247 -14857135.85544  23010927.7194                   23010927.3134
 -24885318.51247 -19375084.98446  20840684.9224                   20840680.6954
 11  7 26  1 19 30.0000000  0  9G10G12G17G05G04G09G28G27G02
 -18676375.42648 -14538431.19146  21414156.0084                   21414154.5634
 -10120374.99647  -7870798.79345  22558460.6954                   22558458.0984
 -29787505.71947 -23194718.24245  22394094.8594                   22394093.0634
  -1636919.78947  -1259714.36344  23768151.8984                   23768152.2344
 -31284901.39148 -24360597.02346  20517201.5474                   20517199.3794
 -13212399.75047 -10279382.95745  22613384.8204                   22613384.6334
 -29093002.66046 -22657105.03143  23864823.1564                   23864824.0984
 -19066890.47347 -14842499.70344  23014502.4144                   23014501.7624
 -24947007.94948 -19423154.62946  20828945.2894                   20828941.2194
 11  7 26  1 20  0.0000000  0  9G10G12G17G05G04G09G28G27G02
 -18762627.71548 -14605640.71146  21397742.9384                   21397741.0354
 -10236702.57847  -7961443.63345  22536324.1644                   22536321.8984
 -29773495.91047 -23183801.52345  22396760.9224                   22396759.1524
  -1773623.98847  -1366236.85944  23742137.7424                   23742137.8094
 -31261467.69948 -24342337.00846  20521660.6884                   20521658.9574
 -13187759.80146 -10260183.02745  22618074.1094                   22618073.3524
 -29026488.60546 -22605275.98843  23877480.4534                   23877480.9614
 -19047795.62547 -14827620.62145  23018135.3524                   23018135.1174
 -25008315.84848 -19470926.98046  20817279.0234                   20817275.0164
 11  7 26  1 20 30.0000000  0  9G10G12G17G05G04G09G28G27G02
 -18848374.23848 -14672456.11346  21381425.7274                   21381424.1054
 -10352784.39547  -8051896.95745  22514234.5394                   22514232.3284
 -29759357.90247 -23172784.89845  22399451.6484                   22399449.2034
  -1910275.55947  -1472718.34044  23716133.5864                   23716134.2194
 -31237668.42648 -24323792.11346  20526189.5474                   20526187.6414
 -13162664.66447 -10240628.41445  22622849.5164                   22622849.1604
 -28959725.87146 -22553253.16443  23890185.1094                   23890185.1524
 -19028393.50447 -14812502.10945  23021827.8054                   23021827.5234
 -25069244.39548 -19518403.75446  20805684.8284                   20805680.2734
 11  7 26  1 21  0.0000000  0  9G10G12G17G05G04G09G28G27G02
 -18933611.60548 -14738874.78146  21365205.4844                   21365203.8244
 -10468616.99647  -8142156.09845  22492191.8524                   22492190.0274
 -29745090.04747 -23161667.09445  22402166.5784                   22402164.5744
  -2046870.80147  -1579155.93444  23690139.9224                   23690140.3134
 -31213505.18048 -24304963.61346  20530787.7114                   20530785.6994
 -13137116.50046 -10220720.80145  22627710.8834                   22627710.9534
 -28892715.57446 -22501037.42243  23902936.2194                   23902937.2304
 -19008685.60247 -14797145.32445  23025577.9144                   23025577.7154
 -25129793.45748 -19565584.81246  20794162.7194                   20794158.1214
 11  7 26  1 21 30.0000000  0  9G10G12G17G05G04G09G28G27G02
 -19018336.93447 -14804894.46146  21349082.4924                   21349081.1214
 -10584197.62947  -8232218.91445  22470198.1954                   22470196.0204
 -29730691.99647 -23150447.83645  22404906.5944                   22404904.2074
  -2183406.83647  -1685547.41844  23664157.2974                   23664158.5744
 -31188980.37548 -24285853.37546  20535454.8054                   20535452.6094
 -13111118.54746 -10200462.69945  22632658.6954                   22632658.1604
 -28825459.40246 -22448630.12143  23915734.7034                   23915735.5474
 -18988674.28547 -14781552.12145  23029386.2664                   23029386.2034
 -25189962.94548 -19612470.10546  20782712.9924                   20782708.4804
 11  7 26  1 22  0.0000000  0  9G10G12G17G05G04G09G28G27G02
 -19102545.39547 -14870511.37946  21333058.4774                   21333056.6844
 -10699521.30147  -8322081.48045  22448252.9774                   22448250.8054
 -29716160.90247 -23139124.90645  22407671.3754                   22407669.4694
  -2319878.21147  -1791888.52744  23638187.6804                   23638187.8954
 -31164093.40648 -24266460.93046  20540190.4144                   20540188.3554
 -13084671.16047 -10179854.39145  22637691.7274                   22637690.5784
 -28757956.80646 -22396030.74643  23928581.0474                   23928580.7304
 -18968359.48847 -14765722.43445  23033252.3054                   23033252.2854
 -25249750.82048 -19659058.04746  20771335.3284                   20771331.1254
 11  7 26  1 22 30.0000000  0  9G10G12G17G05G04G09G28G27G02
 -19186236.01247 -14935724.79346  21317132.6724                   21317130.7584
 -10814586.81647  -8411742.90645  22426356.2194                   22426354.1174
 -29701497.50447 -23127698.87945  22410461.9534                   22410459.8954
  -2456283.43447  -1898178.07444  23612230.7814                   23612230.7544
 -31138848.34048 -24246789.45746  20544994.4064                   20544992.7504
 -13057778.63347 -10158899.21145  22642808.9144                   22642807.7704
 -28690211.10546 -22343242.00043  23941472.4614                   23941472.0904
 -18947744.99247 -14749659.21545  23037174.8524                   23037175.3484
 -25309158.69148 -19705349.86746  20760030.4614                   20760026.3554
 11  7 26  1 23  0.0000000  0  9G10G12G17G05G04G09G28G27G02
 -19269407.05148 -15000533.33646  21301305.6334                   21301303.6644
 -10929392.66047  -8501201.99245  22404509.7504                   22404507.4304
 -29686702.25847 -23116170.12145  22413277.5784                   22413275.5594
  -2592620.73847  -2004414.70344  23586286.5164                   23586286.6764
 -31113248.28148 -24226841.36346  20549866.2424                   20549864.1454
 -13030445.00447 -10137600.32445  22648010.7274                   22648009.3674
 -28622225.07446 -22290265.88343  23954409.6724                   23954409.2774
 -18926834.29347 -14733365.18044  23041154.8674                   23041154.1564
 -25368187.89548 -19751346.61746  20748797.6884                   20748793.0554
 11  7 26  1 23 30.0000000  0  9G10G12G17G05G04G09G28G27G02
 -19352056.98047 -15064935.81646  21285577.7194                   21285576.0314
 -11043937.59047  -8590457.76245  22382712.4144                   22382709.8444
 -29671775.80147 -23104539.12145  22416117.9534                   22416115.6954
  -2728888.45747  -2110597.12944  23560355.3754                   23560355.8284
 -31087296.94548 -24206619.53946  20554804.1484                   20554802.4264
 -13002674.78547 -10115961.24245  22653295.2114                   22653294.4024
 -28554001.73046 -22237104.87543  23967391.6954                   23967392.0164
 -18905631.30547 -14716843.38744  23045189.0634                   23045189.1024
 -25426840.53948 -19797049.94146  20737636.4224                   20737631.9884
 11  7 26  1 24  0.0000000  0  9G10G12G17G05G04G09G28G27G02
 -19434183.09048 -15128930.14146  21269949.5554                   21269947.5434
 -11158218.82847  -8679508.07045  22360965.0474                   22360962.7894
 -29656717.97747 -23092805.74645  22418983.0554                   22418980.9304
  -2865083.64547  -2216723.03144  23534438.0084                   23534438.7194
 -31060996.44948 -24186125.65646  20559809.3444                   20559807.6254
 -12974470.53946 -10093983.94545  22658662.4844                   22658661.7504
 -28485542.91846 -22183760.39143  23980419.3284                   23980419.2384
 -18884138.41447 -14700095.70344  23049278.6024                   23049278.9224
 -25485116.55548 -19842459.80146  20726546.8054                   20726542.5314
 11  7 26  1 24 30.0000000  0  9G10G12G17G05G04G09G28G27G02
 -19515781.05148 -15192512.91046  21254422.2584                   21254420.4574
 -11272231.74647  -8768349.30545  22339269.5784                   22339266.9494
 -29641525.82047 -23080967.70745  22421874.0944                   22421872.0314
  -3001201.03947  -2322788.32445  23508535.9304                   23508536.5314
 -31034347.00448 -24165359.84846  20564880.4064                   20564878.3634
 -12945833.17247 -10071669.16845  22664111.6484                   22664111.2504
 -28416848.57446 -22130232.39843  23993491.4844                   23993492.3484
 -18862356.05147 -14683122.46144  23053423.1644                   23053424.1214
 -25543014.19148 -19887574.82846  20715529.3444                   20715525.1994
 11  7 26  1 25  0.0000000  0  9G10G12G17G05G04G09G28G27G02
 -19596849.78148 -15255683.29346  21238995.3054                   21238993.2424
 -11385975.05947  -8856980.46545  22317624.5704                   22317622.3674
 -29626200.18447 -23069025.66845  22424790.5474                   22424788.3874
  -3137239.25447  -2428791.93745  23482648.4384                   23482649.4064
 -31007352.45748 -24144325.13346  20570017.2504                   20570015.4844
 -12916767.45747 -10049020.60245  22669642.5164                   22669642.3164
 -28347921.72346 -22076523.24243  24006608.0474                   24006608.1254
 -18840288.40647 -14665926.93744  23057623.0634                   23057622.7814
 -25600535.27048 -19932396.43446  20704583.6334                   20704578.6724
 11  7 26  1 25 30.0000000  0  9G10G12G17G05G04G09G28G27G02
 -19677386.55948 -15318439.17246  21223669.6954                   21223667.6884
 -11499446.09847  -8945399.46145  22296031.7584                   22296029.5084
 -29610740.07047 -23056978.83645  22427732.4534                   22427730.5944
  -3273195.07847  -2534731.34444  23456776.6254                   23456776.9104
 -30980014.64848 -24123022.94546  20575219.7194                   20575217.8444
 -12887276.05547 -10026040.33245  22675254.5234                   22675254.2234
 -28278763.79346 -22022634.01243  24019768.6414                   24019768.3014
 -18817937.41047 -14648510.60544  23061876.7344                   23061875.7464
 -25657679.98048 -19976924.75446  20693708.9534                   20693704.3554
 11  7 26  1 26  0.0000000  0  9G10G12G17G05G04G09G28G27G02
 -19757391.53548 -15380780.65646  21208444.8834                   21208443.0234
 -11612644.81247  -9033606.24645  22274491.0234                   22274488.6454
 -29595148.41447 -23044829.51645  22430699.3914                   22430697.6604
  -3409068.48447  -2640606.53944  23430921.0084                   23430920.3914
 -30952338.82448 -24101457.37946  20580485.8754                   20580484.1954
 -12857364.95347 -10002733.02345  22680947.0864                   22680945.6604
 -28209379.86746 -21968568.66843  24032972.0314                   24032972.5474
 -18795308.34847 -14630877.58644  23066183.1644                   23066181.1914
 -25714451.71548 -20021162.45746  20682905.8674                   20682901.5004
 11  7 26  1 26 30.0000000  0  9G10G12G17G05G04G09G28G27G02
 -19836860.04348 -15442704.12146  21193322.4774                   21193320.6644
 -11725566.17647  -9121596.90245  22253002.7424                   22253000.1564
 -29579422.00447 -23032575.19545  22433692.4924                   22433690.2734
  -3544854.04747  -2746413.27744  23405081.3594                   23405081.0824
 -30924324.86348 -24079628.32046  20585816.8754                   20585815.3594
 -12827034.91047  -9979099.25845  22686718.1254                   22686717.0474
 -28139769.30546 -21914326.75043  24046218.0704                   24046218.9104
 -18772401.54347 -14613028.13344  23070542.4614                   23070540.8444
 -25770848.37948 -20065107.89546  20672173.6484                   20672169.6294
 11  7 26  1 27  0.0000000  0  9G10G12G17G05G04G09G28G27G02
 -19915789.89548 -15504207.84846  21178302.6644                   21178300.9264
 -11838208.18747  -9209369.88745  22231567.4454                   22231565.0944
 -29563560.26647 -23020215.42245  22436710.5394                   22436708.8284
  -3680548.92647  -2852149.37545  23379259.3524                   23379259.5164
 -30895975.16448 -24057537.64546  20591211.6174                   20591209.5904
 -12796289.08247  -9955141.52344  22692568.8594                   22692567.7894
 -28069934.18446 -21859909.87543  24059508.4144                   24059508.1684
 -18749219.38347 -14594964.13745  23074953.3984                   23074952.3674
 -25826870.63748 -20108761.59446  20661512.9224                   20661509.1134
 11  7 26  1 27 30.0000000  0  9G10G12G17G05G04G09G28G27G02
 -19994176.59848 -15565288.34846  21163386.1884                   21163384.4844
 -11950565.85247  -9296921.30145  22210186.6804                   22210184.2194
 -29547560.40647 -23007748.00845  22439755.2034                   22439753.3914
  -3816148.06647  -2957810.85944  23353455.6564                   23353455.9924
 -30867289.90648 -24035185.49646  20596670.0944                   20596668.6214
 -12765128.17247  -9930860.32044  22698498.7974                   22698497.5434
 -27999874.04746 -21805317.63343  24072839.5084                   24072840.4414
 -18725762.37147 -14576685.97745  23079417.7664                   23079417.8874
 -25882516.61748 -20152122.07846  20650923.9614                   20650919.6254
 11  7 26  1 28  0.0000000  0  9G10G12G17G05G04G09G28G27G02
 -20072018.68448 -15625944.46146  21148573.7274                   21148571.5704
 -12062637.93747  -9384250.19545  22188860.3364                   22188858.0354
 -29531423.40647 -22995173.74245  22442826.2894                   22442824.1024
  -3951650.03547  -3063396.60944  23327670.5084                   23327670.6684
 -30838272.77748 -24012574.75046  20602192.3914                   20602190.2234
 -12733557.13347  -9906259.54745  22704506.5474                   22704505.5824
 -27929592.37546 -21750552.76643  24086214.1884                   24086214.2974
 -18702034.53547 -14558196.80545  23083932.3914                   23083933.4344
 -25937788.33248 -20195190.92646  20640406.0554                   20640401.5354
 11  7 26  1 28 30.0000000  0  9G10G12G17G05G04G09G28G27G02
 -20149315.55148 -15686175.73046  21133864.0864                   21133862.0204
 -12174422.93047  -9471355.37145  22167588.0234                   22167585.6604
 -29515149.75847 -22982493.00445  22445922.7584                   22445921.0664
  -4087053.05146  -3168905.25044  23301903.7974                   23301904.2114
 -30808927.55948 -23989708.34846  20607776.1724                   20607774.6174
 -12701580.45347  -9881342.69144  22710591.1724                   22710590.4494
 -27859092.46146 -21695617.81243  24099629.6254                   24099629.9104
 -18678039.80147 -14539499.66445  23088497.8594                   23088499.7464
 -25992687.73448 -20237969.66046  20629959.0554                   20629954.9844
 11  7 26  1 29  0.0000000  0  9G10G12G17G05G04G09G28G27G02
 -20226065.09048 -15745980.50446  21119259.0164                   21119257.2664
 -12285918.63747  -9558235.12945  22146370.9064                   22146368.6604
 -29498740.06247 -22969706.24245  22449045.8594                   22449043.9024
  -4222354.63746  -3274334.82844  23276156.5474                   23276156.6484
 -30779256.95348 -23966588.39846  20613422.7584                   20613420.5634
 -12669201.58247  -9856112.43444  22716753.3524                   22716752.2814
 -27788376.52346 -21640514.54343  24113085.9534                   24113087.0314
 -18653781.13347 -14520596.87945  23093114.4614                   23093115.4964
 -26047215.43448 -20280458.76246  20619583.1334                   20619578.5234
 11  7 26  1 29 30.0000000  0  9G10G12G17G05G04G09G28G27G02
 -20302264.88748 -15805356.92246  21104758.6484                   21104756.8914
 -12397122.64147  -9644887.56246  22125209.6884                   22125207.9144
 -29482193.45347 -22956812.80945  22452194.3674                   22452192.3594
  -4357551.67647  -3379682.97345  23250429.3834                   23250429.1994
 -30749262.85948 -23943216.37146  20619130.1024                   20619128.1804
 -12636423.40247  -9830571.02345  22722990.9064                   22722990.6414
 -27717446.43046 -21585244.37543  24126584.3204                   24126584.4184
 -18629260.94547 -14501490.30545  23097780.6804                   23097781.3134
 -26101371.78548 -20322658.51646  20609277.2274                   20609272.9344
 11  7 26  1 30  0.0000000  0  9G10G12G17G05G04G09G28G27G02
 -20377910.51248 -15864301.50846  21090364.0474                   21090361.8874
 -12508030.15247  -9731308.96945  22104104.7734                   22104102.9104
 -29465506.93047 -22943810.35945  22455369.5234                   22455368.0164
  -4492638.95347  -3484945.56645  23224722.3914                   23224722.8364
 -30718945.62148 -23919592.53946  20624899.0944                   20624897.4304
 -12603247.03947  -9804719.34044  22729304.0704                   22729303.4654
 -27646301.68046 -21529806.96542  24140122.7504                   24140122.6564
 -18604479.53147 -14482180.18044  23102496.8204                   23102496.6724
 -26155155.21548 -20364567.67646  20599042.9534                   20599038.4264
 11  7 26  1 30 30.0000000  0  9G10G12G17G05G04G09G28G27G02
 -20452999.39547 -15922812.27746  21076074.9144                   21076073.1804
 -12618638.10247  -9817496.91846  22083056.5864                   22083054.4614
 -29448679.67247 -22930698.22745  22458572.0784                   22458570.0554
  -4627613.76647  -3590120.52745  23199037.7114                   23199037.7934
 -30688307.43448 -23895718.61746  20630729.6024                   20630727.8554
 -12569675.29347  -9778559.56244  22735693.0554                   22735692.4064
 -27574944.04746 -21474203.61743  24153700.7424                   24153702.1914
 -18579439.39147 -14462668.44144  23107262.0634                   23107261.1214
 -26208566.19948 -20406186.60946  20588879.0164                   20588874.4574
 11  7 26  1 31  0.0000000  0  9G10G12G17G05G04G09G28G27G02
 -20527529.58248 -15980887.69546  21061892.3594                   21061890.2584
 -12728944.12947  -9903449.60946  22062066.3054                   22062063.6724
 -29431711.34047 -22917476.17645  22461800.8524                   22461799.1684
  -4762472.82447  -3695205.29345  23173374.8674                   23173375.3134
 -30657350.51648 -23871596.34846  20636620.4614                   20636618.6254
 -12535711.61347  -9752094.37145  22742155.3364                   22742155.0744
 -27503376.11746 -21418436.38343  24167320.6484                   24167321.3204
 -18554143.30547 -14442957.27044  23112075.1954                   23112074.3914
 -26261605.35948 -20447515.81247  20578785.8984                   20578781.7424
 11  7 26  1 31 30.0000000  0  9G10G12G17G05G04G09G28G27G02
 -20601500.46148 -16038527.28946  21047815.9144                   21047814.5664
 -12838947.23047  -9989166.24646  22041132.9224                   22041130.1604
 -29414602.61747 -22904144.71145  22465056.1024                   22465054.3014
  -4897214.53946  -3800198.64145  23147734.2114                   23147734.2774
 -30626078.75848 -23847228.74646  20642571.3834                   20642569.4534
 -12501360.55547  -9725327.32044  22748691.9534                   22748692.4534
 -27431601.10946 -21362507.89843  24180978.5084                   24180979.6414
 -18528595.09847 -14423049.66044  23116936.4614                   23116936.6604
 -26314274.50048 -20488556.69146  20568763.3834                   20568759.0354
 11  7 26  1 32  0.0000000  0  9G10G12G17G05G04G09G28G27G02
 -20674908.64848 -16095728.42246  21033846.9144                   21033844.8484
 -12948643.66847 -10074643.93046  22020258.6174                   22020256.0274
 -29397352.08647 -22890702.74245  22468339.0234                   22468337.3204
  -5031835.12147  -3905097.60945  23122116.5784                   23122116.8594
 -30594493.44548 -23822616.81246  20648581.6884                   20648579.3954
 -12466624.54747  -9698260.32445  22755302.2344                   22755302.2664
 -27359619.55945 -21306418.40243  24194676.5234                   24194677.6644
 -18502796.68747 -14402947.06644  23121846.1644                   23121846.1294
 -26366573.25448 -20529308.92646  20558811.0784                   20558806.6914
 11  7 26  1 32 30.0000000  0  8G10G12G17G05G04G09G27G02
 -20747753.75048 -16152490.78546  21019984.7734                   21019982.7584
 -13058032.49247 -10159881.91446  21999442.3054                   21999440.1054
 -29379961.55547 -22877151.68045  22471648.3284                   22471646.1564
  -5166333.18747  -4009901.10245  23096522.2194                   23096522.4654
 -30562598.59048 -23797763.67246  20654651.2424                   20654649.1414
 -12431508.55547  -9670897.23445  22761984.6334                   22761984.5004
 -18476752.17647 -14382652.72344  23126802.5944                   23126802.3444
 -26418503.87548 -20569774.31647  20548929.1884                   20548924.5824
 11  7 26  1 33  0.0000000  0  8G10G12G17G05G04G09G27G02
 -20820029.06248 -16208809.16046  21006231.4144                   21006228.9884
 -13167106.82447 -10244874.82846  21978686.0234                   21978683.9454
 -29362425.45347 -22863487.20745  22474985.5234                   22474983.1884
  -5300701.28947  -4114603.34045  23070952.8284                   23070952.6414
 -30530391.93048 -23772667.55946  20660779.6174                   20660777.6374
 -12396011.01647  -9643236.83245  22768739.5864                   22768739.3634
 -18450459.85547 -14362165.26244  23131805.6174                   23131806.3794
 -26470062.67248 -20609949.98446  20539117.7194                   20539113.1884
 11  7 26  1 33 30.0000000  0  8G10G12G17G05G04G09G27G02
 -19316305.21148 -15037076.24646  21292380.3594                   21292378.4734
 -11700435.42247  -9102013.91446  22257784.2974                   22257781.7424
 -27769318.76247 -21622105.37545  22778143.4534                   22778141.7424
  -3859507.34047  -2991594.89145  23345202.5864                   23345202.5864
 -28922452.17648 -22519727.48446  20966760.4454                   20966758.5474
 -10784711.73847  -8387678.99245  23075360.1954                   23075359.1024
 -16848498.38347 -13113883.66044  23436649.1254                   23436649.7734
 -24945823.28148 -19422230.97346  20829171.0314                   20829166.3554
 11  7 26  1 34  0.0000000  0  8G10G12G17G05G04G09G27G02
 -19387417.25448 -15092488.17246  21278848.4064                   21278846.5784
 -11808855.30547  -9186496.86746  22237152.9384                   22237150.2034
 -27751472.52347 -21608199.23445  22781539.6484                   22781537.5594
  -3993589.82847  -3096074.57045  23319687.7034                   23319687.7194
 -28889611.90248 -22494137.66046  20973009.7734                   20973007.9344
 -10748444.05547  -8359418.48845  23082261.4454                   23082259.9654
 -16821701.01647 -13093002.65244  23441748.9144                   23441748.7304
 -24996622.48048 -19461814.75047  20819503.7114                   20819499.6764
 11  7 26  1 34 30.0000000  0  8G10G12G17G05G04G09G27G02
 -19457945.74648 -15147445.39146  21265427.2344                   21265425.0514
 -11916945.57847  -9270722.96946  22216583.9304                   22216581.6764
 -27733471.89547 -21594172.78545  22784964.9224                   22784963.1684
  -4127526.17647  -3200440.38345  23294200.1804                   23294200.2234
 -28856459.64848 -22468304.73446  20979318.5944                   20979316.7774
 -10711797.52347  -8330862.77745  23089235.3134                   23089233.6024
 -16794656.34047 -13071928.93044  23446895.5474                   23446894.5274
 -25047044.35948 -19501104.50446  20809908.8594                   20809904.7424
 11  7 26  1 35  0.0000000  0  8G10G12G17G05G04G09G27G02
 -19527894.07848 -15201950.53546  21252116.1564                   21252114.3634
 -12024708.67247  -9354694.13346  22196077.1334                   22196074.6174
 -27715321.46947 -21580029.62145  22788418.8204                   22788416.9774
  -4261318.47747  -3304693.96145  23268740.4694                   23268740.3014
 -28823002.54348 -22442234.26646  20985685.4384                   20985683.1804
 -10674780.35547  -8302018.26645  23096278.9064                   23096278.3244
 -16767372.04747 -13050668.48444  23452087.3984                   23452086.2504
 -25097094.55148 -19540104.63346  20800384.6484                   20800380.3754
 11  7 26  1 35 30.0000000  0  8G10G12G17G05G04G09G27G02
 -19597261.48048 -15256003.00846  21238916.4064                   21238914.1724
 -12132143.50847  -9438409.52046  22175632.7664                   22175630.3594
 -27697022.03147 -21565770.32845  22791901.3594                   22791899.0434
  -4394965.73047  -3408834.52045  23243307.9614                   23243307.8914
 -28789244.78148 -22415929.51646  20992108.9614                   20992106.9574
 -10637397.50447  -8272888.81645  23103392.7504                   23103392.8404
 -16739852.59847 -13029224.81244  23457323.4304                   23457322.9224
 -25146775.20748 -19578816.80547  20790931.0164                   20790926.4494
 11  7 26  1 36  0.0000000  0  8G10G12G17G05G04G09G27G02
 -19666047.43748 -15309602.39846  21225826.4454                   21225824.4384
 -12239249.14547  -9521868.37546  22155251.3284                   22155248.7194
 -27678574.55147 -21551395.68745  22795412.0474                   22795409.9844
  -4528465.89147  -3512860.44945  23217903.2504                   23217903.4414
 -28755189.93048 -22389393.28146  20998589.5554                   20998587.4264
 -10599653.63747  -8243478.06644  23110575.1174                   23110575.9614
 -16712102.07847 -13007601.11344  23462604.8674                   23462604.9304
 -25196088.28148 -19617242.54346  20781547.0004                   20781542.4384
 11  7 26  1 36 30.0000000  0  8G10G12G17G05G04G09G27G02
 -19734252.66048 -15362749.28946  21212847.3204                   21212845.7504
 -12346025.47347  -9605070.64546  22134932.5704                   22134929.7274
 -27659981.00047 -21536907.21945  22798949.8914                   22798947.8324
  -4661818.91047  -3616771.73845  23192527.4224                   23192526.7814
 -28720842.93048 -22362629.38746  21005125.5784                   21005123.6804
 -10561554.72747  -8213790.66844  23117824.8524                   23117825.9024
 -16684125.74247 -12985801.43444  23467928.1254                   23467928.9734
 -25245037.06648 -19655384.44547  20772232.0864                   20772227.7234
 11  7 26  1 37  0.0000000  0  8G10G12G17G05G04G09G27G02
 -19801873.87548 -15415441.10246  21199979.5314                   21199977.6254
 -12452468.40247  -9688013.13746  22114677.0164                   22114674.0044
 -27641239.65247 -21522303.57045  22802516.3054                   22802514.3484
  -4795020.15247  -3720564.76645  23167179.7344                   23167179.3674
 -28686204.62548 -22335638.50446  21011717.0634                   21011715.1214
 -10523102.66047  -8183828.07444  23125141.9924                   23125142.7774
 -16655924.57046 -12963826.57044  23473294.7974                   23473295.3714
 -25293620.89848 -19693241.94946  20762986.7504                   20762982.6334
 11  7 26  1 37 30.0000000  0  8G10G12G17G05G04G09G27G02
 -19868909.71148 -15467676.78546  21187223.0004                   21187221.1564
 -12558576.23047  -9770694.50846  22094485.1644                   22094482.8634
 -27622350.50047 -21507584.74645  22806110.7344                   22806108.6684
  -4928067.22347  -3824237.66045  23141861.7504                   23141860.7194
 -28651277.90248 -22308422.88346  21018363.1954                   21018361.4774
 -10484301.46547  -8153593.43044  23132525.7734                   23132525.9414
 -16627502.08247 -12941679.25844  23478703.5004                   23478704.4264
 -25341841.01648 -19730816.05146  20753811.0314                   20753806.5514
 11  7 26  1 38  0.0000000  0  8G10G12G17G05G04G09G27G02
 -19935359.74248 -15519455.98846  21174577.9144                   21174575.9534
 -12664347.32047  -9853113.48846  22074357.3364                   22074355.2544
 -27603314.60247 -21492751.58245  22809733.0474                   22809731.5434
  -5060958.57447  -3927789.20745  23116573.0864                   23116572.3984
 -28616066.47348 -22280985.41446  21025064.1804                   21025062.0164
 -10445155.61347  -8123090.21944  23139975.8754                   23139974.3874
 -16598862.34447 -12919362.66044  23484154.2114                   23484154.3484
 -25389699.69548 -19768108.52346  20744703.7734                   20744699.3204
 11  7 26  1 38 30.0000000  0  8G10G12G17G05G04G09G27G02
 -20001223.01248 -15570777.98446  21162044.6564                   21162042.2464
 -12769780.62147  -9935269.25446  22054294.2114                   22054291.9454
 -27584132.19147 -21477804.26245  22813383.6484                   22813381.0664
  -5193692.35947  -4031217.96945  23091313.9924                   23091314.2034
 -28580573.81248 -22253328.81646  21031817.7194                   21031816.3244
 -10405669.70347  -8092322.02344  23147489.8914                   23147488.0274
 -16570009.23046 -12896879.76644  23489644.7584                   23489645.1134
 -25437198.37948 -19805120.46146  20735665.1334                   20735660.5044
 11  7 26  1 39  0.0000000  0  8G10G12G17G05G04G09G27G02
 -20066495.73448 -15621639.81246  21149623.6334                   21149621.5784
 -12874871.60247 -10017158.28946  22034295.9304                   22034293.5164
 -27564800.94547 -21462740.95745  22817061.8284                   22817060.3484
  -5326263.94547  -4134520.33645  23066086.7504                   23066086.2974
 -28544800.19548 -22225453.28146  21038625.6334                   21038623.5234
 -10365845.23447  -8061290.01244  23155068.4534                   23155066.4264
 -16540943.46147 -12874231.18444  23495175.3134                   23495175.8714
 -25484336.00848 -19841851.05146  20726694.7734                   20726690.5394
 11  7 26  1 39 30.0000000  0  8G10G12G17G05G04G09G27G02
 -20131178.46548 -15672041.91046  21137314.6174                   21137312.4184
 -12979619.80147 -10098780.22746  22014363.2664                   22014360.7034
 -27545322.46547 -21447562.93745  22820768.6954                   22820766.9774
  -5458672.30147  -4237695.50045  23040890.0554                   23040889.6644
 -28508750.34448 -22197362.50846  21045485.4774                   21045483.6024
 -10325687.65247  -8029998.42244  23162709.6334                   23162708.7734
 -16511669.92647 -12851420.68744  23500745.8754                   23500745.7624
 -25531115.78148 -19878302.77747  20717793.0704                   20717788.6214
 11  7 26  1 40  0.0000000  0  8G10G12G17G05G04G09G27G02
 -20195268.47348 -15721982.14146  21125118.7424                   21125116.7304
 -13084021.78547 -10180132.39546  21994496.1724                   21994493.4614
 -27525695.67247 -21432269.34045  22824503.5234                   22824501.9774
  -5590913.95346  -4340740.75845  23015725.2344                   23015724.6644
 -28472425.79348 -22169057.68446  21052397.8524                   21052396.1724
 -10285199.66447  -7998449.38344  23170414.3834                   23170413.1254
 -16482190.71146 -12828449.92244  23506355.5784                   23506355.0124
 -25577537.48048 -19914475.49247  20708959.0634                   20708954.7544
 11  7 26  1 40 30.0000000  0  8G10G12G17G05G04G09G27G02
 -20258762.41048 -15771457.90646  21113036.5394                   21113034.2854
 -13188073.69947 -10261211.80146  21974695.6254                   21974692.9694
 -27505918.28147 -21416858.38745  22828266.8834                   22828265.1454
  -5722984.10547  -4443652.40245  22990593.1804                   22990592.0824
 -28435827.05948 -22140539.21146  21059362.5784                   21059360.7114
 -10244382.85947  -7966644.09844  23178181.9064                   23178179.9844
 -16452506.90647 -12805319.73444  23512005.2344                   23512002.7974
 -25623600.19148 -19950368.48447  20700193.9224                   20700189.4344
 11  7 26  1 41  0.0000000  0  8G10G12G17G05G04G09G27G02
 -20321659.68448 -15820468.73446  21101067.7274                   21101065.6024
 -13291773.77347 -10342017.04746  21954962.3834                   21954959.6294
 -27485990.87146 -21401330.53945  22832059.4694                   22832057.4494
  -5854880.84446  -4546428.92245  22965493.9064                   22965493.0704
 -28398957.64148 -22111809.82446  21066378.5634                   21066376.8714
 -10203241.81247  -7934586.16044  23186010.9144                   23186009.1374
 -16422622.28547 -12782033.04744  23517691.8364                   23517690.7194
 -25669305.91448 -19985983.30946  20691496.3674                   20691491.8054
 11  7 26  1 41 30.0000000  0  8G10G12G17G05G04G09G27G02
 -20383959.21548 -15869013.79746  21089212.2584                   21089210.3554
 -13395120.22747 -10422546.74646  21935296.0164                   21935293.4414
 -27465913.48847 -21385685.82445  22835879.5004                   22835878.1994
  -5986601.69546  -4649068.37545  22940428.2034                   22940427.1884
 -28361820.16048 -22082871.54746  21073445.5314                   21073443.8054
 -10161780.38347  -7902278.56644  23193900.0704                   23193899.6254
 -16392539.99647 -12758592.33244  23523416.0784                   23523416.7664
 -25714655.81248 -20021320.87146  20682866.3834                   20682861.8594
 11  7 26  1 42  0.0000000  0  8G10G12G17G05G04G09G27G02
 -20445657.91447 -15917090.66446  21077471.1414                   21077469.2704
 -13498109.09447 -10502797.80146  21915697.8674                   21915695.6764
 -27445684.28547 -21369922.81645  22839729.0704                   22839727.5354
  -6118142.48047  -4751567.51645  22915396.4454                   22915395.8204
 -28324415.64548 -22053725.21546  21080563.6024                   21080561.4804
 -10120000.51647  -7869722.85544  23201850.1414                   23201850.4614
 -16362261.34846 -12734998.63744  23529177.2424                   23529179.2974
 -25759649.03548 -20056380.48446  20674304.2974                   20674300.0274
 11  7 26  1 42 30.0000000  0  8G10G12G17G05G04G09G27G02
 -20506755.63748 -15964699.23846  21065844.9384                   21065842.9414
 -13600739.47747 -10582769.52746  21896167.8524                   21896165.3444
 -27425304.46947 -21354042.45345  22843607.5394                   22843605.4024
  -6249501.95347  -4853925.39845  22890399.7034                   22890398.6954
 -28286748.25448 -22024374.03946  21087731.4694                   21087729.6764
 -10077907.18747  -7836922.90644  23209860.2504                   23209861.2704
 -16331791.05546 -12711255.61744  23534975.4304                   23534977.2344
 -25804288.43048 -20091164.41446  20665810.0234                   20665805.3834
 11  7 26  1 43  0.0000000  0  8G10G12G17G05G04G09G27G02
 -20567249.65248 -16011837.38346  21054333.0634                   21054330.8634
 -13703007.82447 -10662459.15246  21876706.8204                   21876704.0784
 -27404772.26246 -21338043.35945  22847514.9224                   22847513.1134
  -6380675.91047  -4956138.72745  22865437.6884                   22865436.8054
 -28248818.91448 -21994818.73846  21094949.1644                   21094947.3094
 -10035502.75847  -7803880.53544  23217930.0704                   23217930.3954
 -16301130.68046 -12687364.48044  23540810.2194                   23540810.3714
 -25848573.64548 -20125672.35246  20657382.8834                   20657378.1054
 11  7 26  1 43 30.0000000  0  8G10G12G17G05G04G09G27G02
 -20627142.16448 -16058506.83246  21042935.9614                   21042933.6414
 -13804915.12147 -10741867.43746  21857314.7584                   21857312.1214
 -27384090.66846 -21321927.86745  22851449.9694                   22851448.2304
  -6511664.98047  -5058207.98445  22840511.8364                   22840510.0984
 -28210633.61348 -21965063.99646  21102215.4534                   21102213.7154
  -9992794.14147  -7770601.12944  23226057.4454                   23226057.7384
 -16270286.44546 -12663330.05944  23546680.2814                   23546679.0594
 -25892508.75848 -20159907.46546  20649022.1094                   20649017.7154
 11  7 26  1 44  0.0000000  0  8G10G12G17G05G04G09G27G02
 -20686427.58248 -16104703.21146  21031654.1804                   21031652.2304
 -13906455.19947 -10820989.57846  21837992.1414                   21837989.3754
 -27363255.66046 -21305692.82045  22855414.8594                   22855412.9384
  -6642462.34047  -5160127.87545  22815620.9454                   22815620.1414
 -28172190.96148 -21935108.71546  21109531.0234                   21109528.8984
  -9949781.21147  -7737084.59044  23234242.7584                   23234242.4224
 -16239257.53946 -12639151.73044  23552585.1174                   23552583.7974
 -25936091.22748 -20193867.79746  20640728.6724                   20640724.3164
 11  7 26  1 44 30.0000000  0  8G10G12G17G05G04G09G27G02
 -20745105.48848 -16150426.20746  21020487.7974                   21020485.9924
 -14007626.25847 -10899824.17246  21818739.7114                   21818737.3134
 -27342267.57447 -21289338.48845  22859408.8914                   22859407.4574
  -6773066.46147  -5261897.20745  22790768.2114                   22790767.4804
 -28133494.00048 -21904955.25446  21116894.9144                   21116892.8284
  -9906468.22347  -7703334.22744  23242484.7584                   23242483.8054
 -16208047.70346 -12614832.40644  23558524.3204                   23558524.1214
 -25979322.63348 -20227554.57447  20632501.7584                   20632497.2894
 11  7 26  1 45  0.0000000  0  8G10G12G17G05G04G09G27G02
 -20803174.68448 -16195674.88346  21009437.8984                   21009435.5514
 -14108426.35247 -10978369.68746  21799558.4224                   21799555.7584
 -27321125.78547 -21272864.37945  22863432.0004                   22863430.1454
  -6903474.17647  -5363513.49245  22765952.3674                   22765951.2114
 -28094545.51648 -21874605.80146  21124306.5314                   21124304.5204
  -9862859.24647  -7669353.22744  23250783.0864                   23250782.2464
 -16176660.00046 -12590374.50844  23564496.8594                   23564497.6484
 -26022204.31248 -20260968.84847  20624341.7344                   20624337.4534
 11  7 26  1 45 30.0000000  0  8G10G12G17G05G04G09G27G02
 -20860636.52748 -16240450.30546  20998503.3204                   20998500.7344
 -14208855.74647 -11056626.34446  21780447.3054                   21780444.5514
 -27299833.31647 -21256272.86745  22867483.9924                   22867481.8674
  -7033685.49247  -5464976.75045  22741174.0394                   22741172.6914
 -28055350.51648 -21844064.25846  21131764.9384                   21131762.9144
  -9818960.19547  -7635146.21544  23259136.5634                   23259136.0554
 -16145099.80146 -12565782.19544  23570502.0394                   23570503.0984
 -26064739.76648 -20294113.33646  20616247.6564                   20616243.3914
 11  7 26  1 46  0.0000000  0  8G10G12G17G05G04G09G27G02
 -20917485.82048 -16284748.41046  20987684.7584                   20987682.9494
 -14308908.04747 -11134589.16846  21761408.2194                   21761405.5164
 -27278385.83647 -21239560.56645  22871565.5704                   22871563.4144
  -7163693.58647  -5566281.66445  22716433.9844                   22716432.8444
 -28015907.31248 -21813329.30146  21139270.6724                   21139268.5944
  -9774770.55547  -7600712.77744  23267545.7894                   23267545.0824
 -16113366.14846 -12541054.73044  23576541.1484                   23576542.1914
 -26106926.04748 -20326985.73447  20608219.7894                   20608215.4964
 11  7 26  1 46 30.0000000  0  8G10G12G17G05G04G09G27G02
 -20973723.44148 -16328569.88746  20976983.4064                   20976981.1134
 -14408583.48847 -11212258.32846  21742440.4454                   21742437.8204
 -27256785.18447 -21222728.90645  22875676.1414                   22875674.1254
  -7293498.11747  -5667427.95345  22691732.8834                   22691732.1804
 -27976220.76248 -21782404.72346  21146822.7734                   21146821.0394
  -9730296.49647  -7566057.69144  23276009.2814                   23276008.6454
 -16081464.23846 -12516196.15244  23582612.3204                   23582613.0124
 -26148766.55548 -20359588.71147  20600257.7344                   20600253.5664
 11  7 26  1 47  0.0000000  0  8G10G12G17G05G04G09G27G02
 -21029346.30148 -16371912.32046  20966398.3594                   20966396.3594
 -14507877.44147 -11289630.23046  21723545.4844                   21723542.6804
 -27235028.70346 -21205775.82045  22879815.8674                   22879814.2154
  -7423094.16847  -5768411.78945  22667071.6254                   22667070.5354
 -27936291.44148 -21751290.97346  21154421.0864                   21154419.3984
  -9685539.65647  -7531182.26244  23284525.9924                   23284526.1094
 -16049395.20347 -12491207.35244  23588715.1174                   23588715.4024
 -26190260.18448 -20391921.37546  20592361.6954                   20592357.5314
 11  7 26  1 47 30.0000000  0  8G10G12G17G05G04G09G27G02
 -21084352.47748 -16414774.23046  20955931.1484                   20955928.9184
 -14606787.35947 -11366702.88346  21704723.4224                   21704720.6954
 -27213115.70347 -21188700.78945  22883985.7034                   22883984.0124
  -7552478.35247  -5869230.53945  22642450.2734                   22642449.4024
 -27896121.23048 -21719989.50046  21162065.3204                   21162063.3404
  -9640503.07047  -7496088.85944  23293096.5234                   23293095.8244
 -16017161.36346 -12466090.09444  23594848.5084                   23594848.3834
 -26231407.62948 -20423984.28147  20584531.5704                   20584527.2544
 11  7 26  1 48  0.0000000  0  9G10G12G17G05G04G09G25G27G02
 -21138745.79348 -16457158.59446  20945580.5474                   20945578.2194
 -14705315.68447 -11443478.18746  21685974.2344                   21685971.4454
 -27191050.71546 -21171507.31245  22888184.4384                   22888182.9064
  -7681653.10547  -5969886.10545  22617869.6254                   22617868.5204
 -27855717.22348 -21688505.85246  21169753.6954                   21169752.1174
  -9595195.14147  -7460784.01644  23301717.9534                   23301717.9184
   6105254.69157   4772932.87154  24621525.5004                   24621527.8324
 -15984770.62547 -12440850.58644  23601012.0394                   23601011.2424
 -26272214.84048 -20455782.08247  20576766.2974                   20576761.5314
 11  7 26  1 48 30.0000000  0  9G10G12G17G05G04G09G25G27G02
 -21192528.05148 -16499066.80546  20935345.8754                   20935343.8984
 -14803463.05147 -11519956.63346  21667297.2974                   21667294.5904
 -27168836.75047 -21154197.75445  22892412.1334                   22892409.8634
  -7810618.48846  -6070378.51645  22593327.9694                   22593327.0864
 -27815084.79748 -21656844.21146  21177485.7504                   21177483.9534
  -9549622.46947  -7425272.89544  23310390.3364                   23310390.3674
   5972350.91847   4669371.44944  24596234.7974                   24596236.5084
 -15952228.74247 -12415493.28944  23607204.9694                   23607203.9534
 -26312685.68048 -20487317.79746  20569064.8284                   20569060.4804
 11  7 26  1 49  0.0000000  0  9G10G12G17G05G04G09G25G27G02
 -21245706.56648 -16540504.56646  20925226.7814                   20925224.6844
 -14901235.31247 -11596142.80546  21648692.0704                   21648689.3284
 -27146481.60947 -21136778.17245  22896665.9224                   22896663.7934
  -7939379.97347  -6170712.04745  22568825.6954                   22568824.4924
 -27774234.99648 -21625013.18746  21185259.2894                   21185257.2114
  -9503797.02747  -7389564.80144  23319111.0944                   23319111.3244
   5839555.78947   4565894.71544  24570964.8284                   24570967.0124
 -15919547.25047 -12390027.19944  23613423.5634                   23613424.1054
 -26352829.68448 -20518598.80946  20561426.0084                   20561421.3164
 11  7 26  1 49 30.0000000  0  9G10G12G17G05G04G09G25G27G02
 -21298275.01248 -16581466.95746  20915223.1024                   20915220.7194
 -14998625.68747 -11672031.37546  21630158.9384                   21630156.1914
 -27123979.54746 -21119244.11345  22900947.4774                   22900946.1524
  -8067929.19147  -6270880.18045  22544363.1954                   22544362.0744
 -27733164.89148 -21593010.50046  21193074.9304                   21193072.9884
  -9457717.20347  -7353658.48844  23327878.9694                   23327879.8054
   5706876.72747   4462508.43844  24545716.5084                   24545718.6764
 -15886723.96946 -12364450.67643  23619668.8364                   23619671.5824
 -26392642.80948 -20549621.99647  20553849.8914                   20553844.9184
 11  7 26  1 50  0.0000000  0  9G10G12G17G05G04G09G25G27G02
 -21350227.61348 -16621949.46146  20905337.0164                   20905334.5354
 -15095626.64847 -11747616.51246  21611700.7274                   21611697.7274
 -27101325.55147 -21101591.66845  22905258.7734                   22905256.8984
  -8196259.10247  -6370877.41445  22519943.2274                   22519941.7934
 -27691871.99248 -21560834.20346  21200932.8914                   21200930.6524
  -9411381.84847  -7317553.06244  23336696.3834                   23336696.4414
   5574320.84047   4359218.18844  24520491.7584                   24520493.7234
 -15853757.04746 -12338762.24243  23625942.9384                   23625945.1414
 -26432121.33248 -20580384.44146  20546337.2194                   20546332.5784
 11  7 26  1 50 30.0000000  0  9G10G12G17G05G04G09G25G27G02
 -21401561.26648 -16661949.68046  20895567.9844                   20895565.9144
 -15192233.75047 -11822894.74246  21593316.6024                   21593314.0234
 -27078517.78547 -21083819.41445  22909599.2034                   22909597.1294
  -8324365.21947  -6470700.26645  22495565.3754                   22495564.0234
 -27650357.06648 -21528484.89546  21208832.6804                   21208830.6954
  -9364792.88347  -7281250.02344  23345562.6644                   23345561.6804
   5441892.25047   4256027.15244  24495291.6174                   24495292.9654
 -15820647.56247 -12312962.69544  23632245.0864                   23632244.2584
 -26471264.44548 -20610885.53947  20538888.4774                   20538883.4264
 11  7 26  1 51  0.0000000  0  9G10G12G17G05G04G09G25G27G02
 -21452269.20348 -16701462.32446  20885918.8284                   20885916.4264
 -15288439.59847 -11897860.30946  21575009.4304                   21575006.5984
 -27055549.92246 -21065922.38345  22913969.5314                   22913968.2034
  -8452238.60247  -6570341.77745  22471231.4694                   22471229.9574
 -27608616.44148 -21495959.71546  21216775.8134                   21216773.9654
  -9317948.04347  -7244747.58244  23354477.0084                   23354475.5664
   5309599.04347   4152941.62943  24470116.8054                   24470117.6334
 -15787392.55547 -12287049.71944  23638572.3914                   23638571.9964
 -26510067.43048 -20641121.61747  20531504.5944                   20531499.7114
 11  7 26  1 51 30.0000000  0  9G10G12G17G05G04G09G25G27G02
 -21502354.61348 -16740489.87546  20876387.9304                   20876385.4694
 -15384246.01647 -11972514.61346  21556778.0084                   21556775.2464
 -27032425.86746 -21047903.64545  22918369.6024                   22918368.1214
  -8579880.80547  -6669803.12945  22446941.7424                   22446940.2234
 -27566657.07448 -21463264.08246  21224760.0634                   21224758.0704
  -9270855.33647  -7208052.00044  23363438.1024                   23363437.3674
   5177439.14846   4049959.98843  24444966.8834                   24444966.9804
 -15753999.29346 -12261029.01644  23644926.2664                   23644927.3014
 -26548535.53948 -20671096.75046  20524184.2424                   20524179.8094
 11  7 26  1 52  0.0000000  0  9G10G12G17G05G04G09G25G27G02
 -21551814.25048 -16779029.82446  20866976.0004                   20866973.6844
 -15479647.99247 -12046853.77346  21538623.4534                   21538620.7034
 -27009142.78147 -21029760.97745  22922800.6724                   22922799.0044
  -8707286.75047  -6769080.39145  22422697.4224                   22422696.1724
 -27524478.60548 -21430397.72746  21232786.5234                   21232784.4224
  -9223515.61347  -7171163.95744  23372446.7974                   23372447.2074
   5045417.46146   3947086.01243  24419843.5314                   24419843.3364
 -15720468.20346 -12234900.94944  23651306.8984                   23651307.8834
 -26586667.54748 -20700809.97347  20516927.6884                   20516923.2854
 11  7 26  1 52 30.0000000  0  9G10G12G17G05G04G09G25G27G02
 -21600644.96947 -16817079.69546  20857684.0084                   20857681.5514
 -15574641.20347 -12120874.41446  21520546.6954                   21520544.5274
 -26985698.37946 -21011492.62545  22927262.1414                   22927259.9804
  -8834451.12147  -6868169.41045  22398499.0704                   22398497.2854
 -27482081.38348 -21397360.91446  21240854.2424                   21240852.3674
  -9175930.33247  -7134084.58644  23381501.5164                   23381502.7274
   4913538.45346   3844323.24243  24394747.8444                   24394748.3364
 -15686800.05547 -12208666.10544  23657715.2424                   23657714.8794
 -26624462.43748 -20730260.52747  20509735.6804                   20509730.9534
 11  7 26  1 53  0.0000000  0  9G10G12G17G05G04G09G25G27G02
 -21648845.60247 -16854638.60546  20848511.5004                   20848509.1524
 -15669223.08647 -12194574.52746  21502548.8284                   21502546.1094
 -26962091.75447 -20993097.85945  22931754.3674                   22931751.9184
  -8961371.13747  -6967068.02745  22374346.6024                   22374345.0474
 -27439467.34047 -21364155.14846  21248963.5164                   21248961.7934
  -9128103.00847  -7096816.60544  23390602.9224                   23390604.5984
   4781804.74646   3741673.69143  24369680.1954                   24369681.1134
 -15652997.70347 -12182326.64144  23664147.5944                   23664147.1254
 -26661920.94948 -20759448.94547  20502607.4224                   20502603.0394
 11  7 26  1 53 30.0000000  0  9G10G12G17G05G04G09G25G27G02
 -21696415.39848 -16891705.94546  20839459.0084                   20839457.0744
 -15763392.00447 -12267952.84446  21484628.8754                   21484626.3284
 -26938323.08246 -20974576.81244  22936276.8594                   22936274.9654
  -9088044.40647  -7065774.35545  22350241.2814                   22350239.8634
 -27396639.44948 -21330782.73446  21257113.1484                   21257111.4734
  -9080037.62147  -7059363.14144  23399749.5634                   23399751.0514
   4650218.10546   3639138.69543  24344639.5864                   24344641.7194
 -15619064.55947 -12155885.28144  23670603.8284                   23670604.8834
 -26699045.01248 -20788376.76647  20495543.0944                   20495538.5554
 11  7 26  1 54  0.0000000  0  9G10G12G17G05G04G09G25G27G02
 -21743353.63748 -16928281.16446  20830526.8524                   20830524.6764
 -15857145.75047 -12341007.65646  21466788.0474                   21466785.4774
 -26914392.39547 -20955929.52345  22940830.8364                   22940829.0784
  -9214467.99247  -7164286.14145  22326183.2584                   22326182.1724
 -27353599.89848 -21297245.39546  21265303.5004                   21265301.5784
  -9031737.77047  -7021726.93044  23408940.9614                   23408941.1884
   4518780.94546   3536720.17643  24319627.7344                   24319630.5824
 -15585003.64146 -12129344.37143  23677085.7034                   23677086.5044
 -26735835.21148 -20817044.44146  20488542.1094                   20488537.2544
 11  7 26  1 54 30.0000000  0  9G10G12G17G05G04G09G25G27G02
 -21789658.50448 -16964362.85246  20821715.6414                   20821713.2424
 -15950481.03947 -12413736.39546  21449026.9534                   21449024.1294
 -26890298.26647 -20937154.85945  22945416.1954                   22945414.5434
  -9340638.39547  -7262600.62945  22302174.1174                   22302172.9064
 -27310350.04348 -21263544.20346  21273533.5394                   21273531.6484
  -8983206.29347  -6983910.25044  23418175.8054                   23418174.9614
   4387496.46146   3434420.62944  24294645.1564                   24294648.3014
 -15550816.79346 -12102705.33244  23683591.3754                   23683592.9064
 -26772291.90248 -20845452.22746  20481604.6414                   20481599.8874
 11  7 26  1 55  0.0000000  0  9G10G12G17G05G04G09G25G27G02
 -21835330.51647 -16999951.40646  20813024.3914                   20813022.3524
 -16043396.27047 -12486137.81246  21431345.4844                   21431343.2274
 -26866041.03547 -20918253.11745  22950032.2504                   22950030.1994
  -9466553.62147  -7360716.29745  22278212.9454                   22278211.4344
 -27266893.15247 -21229681.68046  21281803.1094                   21281801.4694
  -8934447.35947  -6945916.32044  23427455.1954                   23427453.4304
   4256366.27047   3332241.31644  24269692.2114                   24269695.3874
 -15516507.76647 -12075971.07444  23690120.4144                   23690121.6484
 -26808417.08648 -20873601.70347  20474730.4224                   20474725.6214
 11  7 26  1 55 30.0000000  0  9G10G12G17G05G04G09G25G27G02
 -21880368.24248 -17035045.71146  20804454.4064                   20804451.7934
 -16135889.32447 -12558210.27046  21413744.8054                   21413742.1174
 -26841620.23447 -20899223.91845  22954679.4534                   22954677.3014
  -9592210.43147  -7458630.55945  22254301.2504                   22254299.7504
 -27223231.19548 -21195659.37546  21290111.6804                   21290110.0204
  -8885464.70347  -6907748.07044  23436775.8134                   23436774.8874
   4125392.98047   3230184.24644  24244768.9454                   24244771.4304
 -15482079.34846 -12049143.80143  23696671.1254                   23696672.3244
 -26844211.54748 -20901493.46147  20467918.7734                   20467914.2504
 11  7 26  1 56  0.0000000  0  9G10G12G17G05G04G09G25G27G02
 -21924770.39148 -17069644.75446  20796004.5704                   20796002.3204
 -16227957.09447 -12629951.34046  21396224.4694                   21396222.0354
 -26817034.70746 -20880066.35545  22959357.4224                   22959355.9454
  -9717605.64847  -7556341.07045  22230439.5554                   22230437.9774
 -27179365.92648 -21161478.64146  21298459.1954                   21298457.1844
  -8836260.81647  -6869407.41044  23446138.9694                   23446139.1134
   3994579.66447   3128251.79344  24219875.6644                   24219877.7974
 -15447533.83646 -12022225.23443  23703245.6484                   23703244.5204
 -26879675.61348 -20929127.78547  20461170.2344                   20461165.4844
 11  7 26  1 56 30.0000000  0  9G10G12G17G05G04G09G25G27G02
 -21968537.30148 -17103748.80946  20787675.8984                   20787673.1414
 -16319598.47347 -12701360.16046  21378785.9064                   21378783.2234
 -26792285.45346 -20860781.21944  22964067.4144                   22964065.2814
  -9842737.45747  -7653846.28145  22206627.7584                   22206626.0904
 -27135300.71148 -21127142.11345  21306844.5314                   21306842.3444
  -8786840.41047  -6830898.06244  23455543.7114                   23455543.7854
   3863927.60547   3026445.00444  24195013.9534                   24195014.4144
 -15412875.07347 -11995218.41444  23709841.6254                   23709841.3674
 -26914811.91848 -20956506.69547  20454483.8914                   20454479.0744
 11  7 26  1 57  0.0000000  0  9G10G12G17G05G04G09G25G27G02
 -22011666.05948 -17137355.60546  20779468.5944                   20779466.4064
 -16410809.42247 -12772433.58246  21361428.8674                   21361426.1484
 -26767370.07046 -20841366.62544  22968808.6334                   22968806.4184
  -9967601.34447  -7751142.73045  22182866.5634                   22182865.4104
 -27091035.78548 -21092649.96946  21315267.8594                   21315265.6644
  -8737205.30947  -6792221.40244  23464988.9844                   23464988.3404
   3733441.13346   2924767.25843  24170182.3754                   24170183.5314
 -15378104.12547 -11968124.23443  23716457.7664                   23716458.5204
 -26949619.76248 -20983629.67247  20447860.1724                   20447855.5554
 11  7 26  1 57 30.0000000  0  9G10G12G17G05G04G09G25G27G02
 -22054156.60248 -17170465.09046  20771383.2274                   20771381.0944
 -16501588.01647 -12843170.11346  21344154.5314                   21344151.8324
 -26742288.64546 -20821822.65645  22973581.6884                   22973579.4924
 -10092194.64547  -7848228.33245  22159157.3364                   22159156.1524
 -27046573.93748 -21058004.37546  21323728.8284                   21323726.4304
  -8687359.62947  -6753380.65244  23474473.8754                   23474474.0554
   3603122.16446   2823220.08243  24145383.9454                   24145385.3094
 -15343224.32446 -11940945.23043  23723094.6954                   23723096.5474
 -26984100.39548 -21010497.65647  20441298.6724                   20441293.8054
 11  7 26  1 58  0.0000000  0  9G10G12G17G05G04G09G25G27G02
 -22096007.19148 -17203075.91846  20763419.4774                   20763416.8284
 -16591931.07047 -12913567.26246  21326962.6254                   21326959.6994
 -26717039.81246 -20802148.23845  22978385.9454                   22978384.1374
 -10216513.50047  -7945100.08646  22135500.1174                   22135498.5354
 -27001916.11748 -21023206.07846  21332226.7974                   21332224.6564
  -8637305.83247  -6714377.76644  23483998.9614                   23483998.3984
   3472974.31646   2721806.18043  24120617.4384                   24120618.7624
 -15308237.46546 -11913682.82043  23729753.1094                   23729753.5554
 -27018253.78148 -21037110.66047  20434799.3054                   20434794.8554
 11  7 26  1 58 30.0000000  0  9G10G12G17G05G04G09G25G27G02
 -22137219.79348 -17235189.60946  20755576.8204                   20755574.1254
 -16681838.77047 -12983625.18446  21309853.9224                   21309850.9454
 -26691625.89147 -20782345.18045  22983221.9774                   22983220.5474
 -10340557.61747  -8041757.76246  22111895.3674                   22111893.4224
 -26957067.26648 -20988258.93046  21340761.6254                   21340759.2974
  -8587049.82047  -6675217.27744  23493562.9614                   23493562.1454
   3342997.37146   2620525.50443  24095883.1254                   24095885.5474
 -15273149.16846 -11886341.35943  23736430.5864                   23736430.0124
 -27052083.87948 -21063471.75447  20428361.5944                   20428357.1054
 11  7 26  1 59  0.0000000  0  9G10G12G17G05G04G09G25G27G02
 -22177793.33648 -17266805.32446  20747855.8754                   20747853.4184
 -16771308.87547 -13053342.12946  21292827.8134                   21292825.3524
 -26666046.27746 -20762413.01645  22988089.7344                   22988087.8714
 -10464324.21547  -8138199.17646  22088343.0084                   22088341.6374
 -26912029.48448 -20953164.56246  21349331.8444                   21349329.8054
  -8536594.99647  -6635901.85544  23503164.3134                   23503163.2504
   3213194.00846   2519380.10243  24071182.4534                   24071184.9614
 -15237962.06247 -11858922.89544  23743126.4534                   23743126.1844
 -27085591.45748 -21089581.54747  20421985.7814                   20421981.1134
 11  7 26  1 59 30.0000000  0  9G10G12G17G05G04G09G25G27G02
 -22217725.02748 -17297920.89846  20740257.1094                   20740254.6524
 -16860336.76647 -13122714.49246  21275886.7194                   21275883.9804
 -26640298.19146 -20742349.57045  22992989.2814                   22992987.4414
 -10587807.91047  -8234420.15246  22064845.2504                   22064843.3954
 -26866802.41048 -20917922.69545  21357938.0554                   21357936.0314
  -8485942.57446  -6596432.48044  23512802.3444                   23512802.3874
   3083569.14846   2418373.75044  24046516.2584                   24046517.9454
 -15202676.64546 -11831427.84043  23749840.3134                   23749841.3834
 -27118775.11348 -21115438.93047  20415671.0864                   20415666.3594
 11  7 26  2  0  0.0000000  0  9G10G12G17G05G04G09G25G27G02
 -20681595.41448 -16100936.76246  21032573.2504                   21032570.3364
 -15373499.37547 -11964139.89146  21558822.5784                   21558819.6684
 -25038964.28546 -19494556.93745  23297713.0864                   23297711.3794
  -9135584.16447  -7102817.16046  22341194.1254                   22341192.1054
 -25245972.26248 -19654938.16446  21666372.0004                   21666369.7424
  -6859680.34847  -5329215.20344  23822269.9064                   23822268.8834
   4529547.12947   3545109.86344  24321677.1094                   24321677.5044
 -13591879.23846 -10576261.12943  24056364.4534                   24056366.3524
 -25576217.52748 -19913445.97747  20709209.5634                   20709204.9414
 11  7 26  2  0 30.0000000  0  9G10G12G17G05G04G09G25G27G02
 -20720247.49248 -16131055.25446  21025217.6414                   21025214.8794
 -15461642.00047 -12032822.43746  21542049.2814                   21542046.4924
 -25012883.89146 -19474234.57445  23302676.0084                   23302674.5084
  -9258499.50847  -7198595.26646  22317803.6024                   22317801.9614
 -25200379.19948 -19619411.10246  21675047.7424                   21675045.6134
  -6808649.31646  -5289450.79744  23831980.8674                   23831980.3284
   4400280.74247   3444382.78544  24297078.5004                   24297077.3984
 -13556411.60246 -10548624.13743  24063114.6334                   24063115.8984
 -25608762.89548 -19938805.98047  20703016.6254                   20703012.0784
 11  7 26  2  1  0.0000000  0  9G10G12G17G05G04G09G25G27G02
 -20758257.10248 -16160673.10246  21017984.6884                   21017982.4264
 -15549337.10548 -12101156.28146  21525361.6254                   21525358.7584
 -24986635.16847 -19453781.04745  23307670.9694                   23307669.4924
  -9381124.83247  -7294147.38345  22294469.0474                   22294466.9384
 -25154604.60948 -19583742.58646  21683758.6254                   21683756.3404
  -6757432.54746  -5249541.66044  23841727.0004                   23841727.4574
   4271199.03547   3343799.64144  24272514.5554                   24272513.8634
 -13520855.55946 -10520918.25044  24069880.5234                   24069881.8874
 -25640988.96948 -19963917.19547  20696884.1094                   20696879.5354
 11  7 26  2  1 30.0000000  0  9G10G12G17G05G04G09G25G27G02
 -20795625.24648 -16189791.12146  21010873.6644                   21010871.4654
 -15636583.61348 -12169140.56246  21508758.7504                   21508756.1414
 -24960218.73047 -19433196.84045  23312697.9694                   23312696.5234
  -9503458.30147  -7389472.08246  22271189.4144                   22271187.3524
 -25108651.96148 -19547935.32046  21692503.1094                   21692500.9924
  -6706034.62146  -5209491.37944  23851507.1644                   23851508.8674
   4142303.23046   3243361.37944  24247986.0554                   24247986.1414
 -13485215.03946 -10493146.53144  24076663.1484                   24076664.4264
 -25672898.11748 -19988781.47747  20690811.9304                   20690807.3484
 11  7 26  2  2  0.0000000  0  9G10G12G17G05G04G09G25G27G02
 -20832353.13348 -16218410.24246  21003884.6884                   21003882.0784
 -15723381.21548 -12236775.04346  21492241.8984                   21492239.3634
 -24933636.41447 -19412483.36345  23317756.6254                   23317754.6454
  -9625499.10247  -7484568.72346  22247965.9454                   22247963.8914
 -25062525.14148 -19511992.34046  21701280.6254                   21701278.8324
  -6654460.98046  -5169304.19144  23861322.5864                   23861323.8244
   4013593.98446   3143068.52344  24223493.5474                   24223494.1804
 -13449494.68446 -10465312.62943  24083460.3914                   24083461.6174
 -25704493.52748 -20013401.27047  20684799.6024                   20684794.8834
 11  7 26  2  2 30.0000000  0  9G10G12G17G05G04G09G25G27G02
 -20868437.91848 -16246528.23846  20997017.6724                   20997015.4844
 -15809725.02748 -12304055.92646  21475811.0554                   21475808.2624
 -24906884.88747 -19391638.05145  23322847.0164                   23322845.1414
  -9747242.19547  -7579433.39546  22224799.0314                   22224797.0634
 -25016223.78948 -19475913.37545  21710091.4924                   21710089.5944
  -6602712.63747  -5128980.87544  23871170.4924                   23871170.1724
   3885076.43046   3042924.98843  24199036.6334                   24199037.1684
 -13413694.85946 -10437416.77743  24090273.0394                   24090274.0314
 -25735773.80948 -20037775.49647  20678847.4064                   20678842.5514
 11  7 26  2  3  0.0000000  0  9G10G12G17G05G04G09G25G27G02
 -20903879.26248 -16274144.85246  20990273.5554                   20990271.0744
 -15895613.05548 -12370981.63746  21459467.3674                   21459464.6174
 -24879964.31247 -19370661.00845  23327970.0634                   23327967.9024
  -9868684.64547  -7674063.80146  22201688.9694                   22201687.1214
 -24969750.14148 -19439700.16045  21718934.8284                   21718933.1884
  -6550793.35947  -5088524.32444  23881050.6724                   23881049.5274
   3756752.78547   2942932.57843  24174618.3364                   24174618.9104
 -13377818.75046 -10409461.45343  24097099.3204                   24097100.7854
 -25766740.01648 -20061904.98047  20672954.6564                   20672949.7234
 11  7 26  2  3 30.0000000  0  9G10G12G17G05G04G09G25G27G02
 -20938676.13348 -16301259.28146  20983652.1724                   20983649.1604
 -15981042.50048 -12437550.01246  21443210.8594                   21443207.7854
 -24852873.45346 -19349551.26645  23333125.7814                   23333123.1254
  -9989822.89147  -7768457.15646  22178637.2424                   22178635.3164
 -24923105.83248 -19403353.95745  21727811.0864                   21727809.5474
  -6498705.89147  -5047936.70344  23890961.0864                   23890960.8404
   3628626.30147   2843093.79343  24150237.0314                   24150237.4344
 -13341868.41846 -10381448.31643  24103941.7584                   24103941.2854
 -25797392.71948 -20085790.19546  20667121.7034                   20667116.3484
 11  7 26  2  4  0.0000000  0  9G10G12G17G05G04G09G25G27G02
 -20972826.55548 -16327869.98046  20977153.2894                   20977150.8674
 -16066009.99247 -12503758.42246  21427042.1094                   21427039.0394
 -24825610.75446 -19328307.62944  23338313.3054                   23338310.9654
 -10110652.76647  -7862610.22746  22155643.8444                   22155642.1334
 -24876291.18448 -19366875.03945  21736719.6484                   21736717.6724
  -6446452.01646  -5007219.44143  23900904.1564                   23900904.0824
   3500700.99247   2743411.73044  24125894.0004                   24125894.1054
 -13305845.34046 -10353378.45743  24110797.0864                   24110797.5204
 -25827731.49248 -20109430.80547  20661348.3134                   20661343.3674
 11  7 26  2  4 30.0000000  0  9G10G12G17G05G04G09G25G27G02
 -21006330.61748 -16353977.01646  20970777.7274                   20970775.6254
 -16150513.30947 -12569605.13346  21410961.5314                   21410958.6374
 -24798175.87146 -19306929.82045  23343533.6724                   23343532.0394
 -10231171.69547  -7956521.00846  22132709.6484                   22132707.9574
 -24829308.77348 -19330265.38345  21745660.5474                   21745658.1174
  -6394035.82447  -4966375.71544  23910879.6174                   23910879.1564
   3372979.17247   2643888.23844  24101588.9694                   24101587.9384
 -13269752.50046 -10325254.25044  24117664.3674                   24117666.6484
 -25857758.00848 -20132828.08647  20655634.4064                   20655629.6414
 11  7 26  2  5  0.0000000  0  9G10G12G17G05G04G09G25G27G02
 -21039191.06648 -16379582.54746  20964524.3984                   20964521.7154
 -16234553.94947 -12635091.31646  21394969.2114                   21394966.0824
 -24770571.60247 -19285420.01245  23348786.9064                   23348785.3324
 -10351380.00047  -8050189.73446  22109835.4224                   22109833.2384
 -24782163.80148 -19293529.06645  21754631.4694                   21754629.7154
  -6341464.02347  -4925410.75044  23920884.3364                   23920883.9654
   3245460.19147   2544522.78544  24077322.7344                   24077321.9494
 -13233596.19546 -10297080.61343  24124545.1094                   24124546.8094
 -25887476.34048 -20155985.20346  20649979.2344                   20649974.6724
 11  7 26  2  5 30.0000000  0  9G10G12G17G05G04G09G25G27G02
 -21071403.87948 -16404683.41846  20958394.6414                   20958392.0274
 -16318125.86347 -12700212.24246  21379065.8364                   21379062.8094
 -24742793.97746 -19263775.13745  23354072.6884                   23354070.5434
 -10471271.39847  -8143611.51646  22087020.5634                   22087018.1804
 -24734854.54348 -19256664.73045  21763634.3984                   21763632.2074
  -6288736.22747  -4884324.18044  23930917.6884                   23930917.9144
   3118150.27747   2445320.23044  24053097.4774                   24053096.6374
 -13197375.37945 -10268856.66443  24131437.6024                   24131437.9264
 -25916883.90248 -20178900.17247  20644383.1804                   20644378.1994
 11  7 26  2  6  0.0000000  0  9G10G12G17G05G04G09G25G27G02
 -21102968.89148 -16429279.50846  20952388.3284                   20952385.2504
 -16401226.81647 -12764966.19146  21363252.3134                   21363249.2424
 -24714842.79347 -19241995.00844  23359391.7894                   23359390.3284
 -10590843.21947  -8236784.28546  22064266.6024                   22064264.5824
 -24687383.38748 -19219674.23845  21772667.9774                   21772665.5204
  -6235856.13747  -4843118.94544  23940980.7894                   23940980.9024
   2991051.82047   2346282.48444  24028911.3524                   24028911.4344
 -13161093.03146 -10240584.75443  24138342.7344                   24138341.8364
 -25945982.18448 -20201574.14146  20638846.0634                   20638841.3164
 11  7 26  2  6 30.0000000  0  9G10G12G17G05G04G09G25G27G02
 -21133888.55948 -16453372.72746  20946504.0944                   20946501.4924
 -16483857.57447 -12829353.75446  21347528.0004                   21347525.1024
 -24686720.01646 -19220081.16044  23364742.9384                   23364741.1884
 -10710094.90647  -8329707.60546  22041573.5474                   22041571.5204
 -24639754.70348 -19182560.99645  21781731.1724                   21781729.2074
  -6182829.46546  -4801799.51244  23951070.5784                   23951071.3954
   2864164.98847   2247409.66044  24004765.6024                   24004766.5434
 -13124754.23846 -10212268.82443  24145257.9224                   24145257.6914
 -25974774.66048 -20224009.81247  20633366.7814                   20633362.1024
 11  7 26  2  7  0.0000000  0  9G10G12G17G05G04G09G25G27G02
 -21164160.52047 -16476961.24246  20940743.8984                   20940740.8484
 -16566013.85947 -12893371.59446  21331894.0864                   21331891.2854
 -24658423.46147 -19198031.89144  23370128.3364                   23370126.4694
 -10829022.02047  -8422378.00446  22018942.8284                   22018940.3014
 -24591968.41448 -19145324.93745  21790824.7664                   21790822.4964
  -6129657.57446  -4760366.92643  23961189.2344                   23961189.2464
   2737494.40247   2148705.38344  23980660.3594                   23980661.6214
 -13088359.99646 -10183909.73443  24152183.2194                   24152184.1094
 -26003260.25048 -20246206.37147  20627946.0554                   20627941.2074
 11  7 26  2  7 30.0000000  0  9G10G12G17G05G04G09G25G27G02
 -21193787.23447 -16500046.96146  20935105.6724                   20935103.2274
 -16647696.22747 -12957020.14146  21316350.6254                   21316347.7424
 -24629955.29347 -19175848.90244  23375544.6884                   23375543.2074
 -10947624.22347  -8514795.22746  21996373.4534                   21996371.0864
 -24544029.53548 -19107969.99245  21799947.3674                   21799945.3674
  -6076346.89547  -4718826.19544  23971334.0234                   23971334.1564
   2611039.90247   2050169.50444  23956596.7194                   23956598.0514
 -13051915.57845 -10155511.55943  24159117.6724                   24159119.3874
 -26031443.05947 -20268167.00447  20622583.2664                   20622578.4414
 11  7 26  2  8  0.0000000  0  9G10G12G17G05G04G09G25G27G02
 -21222767.92648 -16522629.29746  20929591.0474                   20929588.6254
 -16728901.73447 -13020297.11346  21300897.5234                   21300894.6564
 -24601314.46147 -19153531.36344  23380995.9694                   23380993.6134
 -11065897.65247  -8606956.26646  21973866.5164                   21973864.2974
 -24495938.96948 -19070496.84445  21809098.5004                   21809096.6644
  -6022900.02347  -4677179.30944  23981505.2034                   23981504.0274
   2484804.79347   1951804.61344  23932574.7734                   23932575.8364
 -13015423.34046 -10127076.13343  24166062.3594                   24166063.7664
 -26059323.67648 -20289892.15647  20617277.7194                   20617272.7814
 11  7 26  2  8 30.0000000  0  9G10G12G17G05G04G09G25G27G02
 -21251102.06248 -16544707.82446  20924199.3364                   20924196.4534
 -16809628.13747 -13083200.75846  21285535.6884                   21285532.7114
 -24572500.54347 -19131078.95344  23386478.1254                   23386476.7814
 -11183839.88347  -8698859.22746  21951423.0704                   21951420.5274
 -24447698.69148 -19032907.02345  21818278.1724                   21818276.3594
  -5969320.27347  -4635428.90244  23991700.8364                   23991700.1134
   2358791.89547   1853612.88344  23908595.5784                   23908596.5984
 -12978885.59446 -10098605.19943  24173016.2734                   24173015.1844
 -26086902.67648 -20311382.28147  20612029.5004                   20612024.7344
 11  7 26  2  9  0.0000000  0  9G10G12G17G05G04G09G25G27G02
 -21278790.85548 -16566283.48046  20918929.9924                   20918927.7114
 -16889874.66448 -13145730.47346  21270265.1954                   21270262.3984
 -24543514.02047 -19108492.04744  23391994.0554                   23391992.4414
 -11301449.02347  -8790502.64546  21929042.4224                   21929040.1334
 -24399311.90648 -18995203.03945  21827485.7894                   21827484.0904
  -5915612.37547  -4593578.62144  24001921.5864                   24001920.4614
   2233002.64147   1755595.42644  23884657.9844                   23884659.2894
 -12942306.39146 -10070101.96543  24179975.8524                   24179977.1414
 -26114182.46948 -20332639.24646  20606838.3204                   20606833.4224
 11  7 26  2  9 30.0000000  0  9G10G12G17G05G04G09G25G27G02
 -21305831.72748 -16587354.27346  20913784.3364                   20913781.8134
 -16969637.02348 -13207882.92246  21255087.2664                   21255084.4534
 -24514352.19946 -19085768.55144  23397543.5004                   23397542.0004
 -11418719.98047  -8881882.53946  21906726.5634                   21906724.7154
 -24350778.07048 -18957384.45745  21836721.8914                   21836719.7034
  -5861776.82447  -4551628.88344  24012166.0084                   24012165.0944
   2107442.06647   1657756.14144  23860764.5864                   23860765.8164
 -12905685.95746 -10041566.62543  24186944.7114                   24186945.9774
 -26141161.41448 -20353661.78946  20601704.6954                   20601699.7274
 11  7 26  2 10  0.0000000  0  9G10G12G17G05G04G09G25G27G02
 -21332225.82047 -16607921.08646  20908761.4924                   20908758.9574
 -17048913.85948 -13269657.04346  21240001.2734                   21239998.4184
 -24485015.95747 -19062909.13344  23403126.2894                   23403123.9694
 -11535651.04347  -8972997.58246  21884475.5394                   21884473.0664
 -24302100.12548 -18919453.57445  21845984.6884                   21845983.0744
  -5807818.28946  -4509583.28144  24022433.1254                   24022433.3794
   1982111.62147   1560096.19544  23836914.6564                   23836916.2114
 -12869028.14146 -10013002.14843  24193920.9304                   24193921.6134
 -26167842.24248 -20374452.02746  20596627.4694                   20596622.2934
 11  7 26  2 10 30.0000000  0  9G10G12G17G05G04G09G25G27G02
 -21357972.94547 -16627983.75846  20903862.4774                   20903859.9184
 -17127703.62548 -13331051.62946  21225007.9924                   21225005.4144
 -24455504.87547 -19039913.47744  23408741.9774                   23408740.1884
 -11652239.25047  -9063845.47346  21862289.2664                   21862286.7664
 -24253279.82448 -18881411.76245  21855275.1024                   21855273.0124
  -5753740.31646  -4467444.64144  24032724.1884                   24032724.7894
   1857014.06647   1462617.72344  23813109.4534                   23813110.9734
 -12832335.71946  -9984410.68443  24200903.1174                   24200903.9494
 -26194225.95348 -20395010.74246  20591606.6334                   20591601.6954
 11  7 26  2 11  0.0000000  0  9G10G12G17G05G04G09G25G27G02
 -21383073.18447 -16647542.37146  20899085.8984                   20899083.3524
 -17206004.13348 -13392064.98446  21210107.9224                   21210104.8794
 -24425818.29347 -19016781.08644  23414391.8284                   23414389.6174
 -11768481.81647  -9154424.02746  21840168.9924                   21840166.6254
 -24204319.52048 -18843260.86745  21864591.9454                   21864589.8204
  -5699546.07846  -4425215.42644  24043037.1254                   24043037.8014
   1732151.93047   1365322.69544  23789349.2344                   23789350.3364
 -12795611.64846  -9955794.52343  24207890.8674                   24207891.5204
 -26220313.68448 -20415338.80547  20586642.4454                   20586637.5824
 11  7 26  2 11 30.0000000  0  9G10G12G17G05G04G09G25G27G02
 -21407527.34047 -16666597.55146  20894432.2664                   20894429.8094
 -17283813.56248 -13452695.68746  21195301.1884                   21195298.1214
 -24395956.71547 -18993512.31244  23420073.7274                   23420071.6484
 -11884376.84047  -9244731.76646  21818114.7034                   21818112.6254
 -24155221.62148 -18805002.74645  21873934.6334                   21873933.1484
  -5645239.63747  -4382898.73444  24053371.8834                   24053370.6174
   1607527.19547   1268212.60944  23765633.9064                   23765633.9694
 -12758859.23445  -9927156.32443  24214884.7504                   24214885.9654
 -26246106.94147 -20435437.43046  20581734.0314                   20581729.3094
 11  7 26  2 12  0.0000000  0  9G10G12G17G05G04G09G25G27G02
 -21431334.16848 -16685148.30146  20889902.1024                   20889899.7934
 -17361129.39148 -13512941.77346  21180588.6954                   21180585.4414
 -24365918.84847 -18970106.20344  23425789.5864                   23425788.1334
 -11999920.78947  -9334765.94946  21796127.4924                   21796125.4064
 -24105987.04348 -18766638.14145  21883303.5784                   21883301.9494
  -5590823.52047  -4340496.54744  24063727.0944                   24063725.3554
   1483143.50447   1171290.35544  23741964.7114                   23741964.1764
 -12722080.13746  -9898497.34843  24221884.5634                   24221884.7154
 -26271606.02348 -20455306.81246  20576881.7974                   20576877.0044
 11  7 26  2 12 30.0000000  0  9G10G12G17G05G04G09G25G27G02
 -21454493.70748 -16703194.67646  20885494.9224                   20885492.5594
 -17437949.53548 -13572801.60546  21165970.3674                   21165966.9264
 -24335704.28947 -18946562.39844  23431539.5704                   23431537.5704
 -12115110.90248  -9424524.41846  21774207.1804                   21774205.3054
 -24056617.52748 -18728168.36345  21892697.9534                   21892696.3134
  -5536301.00846  -4298011.47344  24074101.6644                   24074101.5434
   1359003.43847   1074557.94144  23718340.7734                   23718341.0124
 -12685277.10546  -9869819.70343  24228887.2974                   24228888.4264
 -26296812.14148 -20474947.92647  20572085.0234                   20572080.2774
 11  7 26  2 13  0.0000000  0  9G10G12G17G05G04G09G25G27G02
 -21477006.76648 -16720737.29746  20881210.8914                   20881207.9614
 -17514272.07048 -13632273.70346  21151446.3444                   21151443.2894
 -24305313.24246 -18922881.05544  23437322.9384                   23437321.3554
 -12229944.27748  -9514004.91846  21752355.0864                   21752353.0744
 -24007115.62548 -18689595.44545  21902118.4844                   21902116.0594
  -5481675.92246  -4255446.52044  24084495.5394                   24084497.5784
   1235109.26647    978017.13744  23694764.6564                   23694765.2814
 -12648453.23845  -9841125.79743  24235894.2274                   24235894.9264
 -26321727.11748 -20494362.18047  20567343.6414                   20567339.0744
 11  7 26  2 13 30.0000000  0  9G10G12G17G05G04G09G25G27G02
 -21498873.85548 -16737776.56646  20877049.6724                   20877047.0354
 -17590095.72748 -13691357.05946  21137017.6804                   21137014.4614
 -24274745.66447 -18899062.16044  23443139.2814                   23443137.3794
 -12344418.83647  -9603205.80546  21730571.2504                   21730569.3284
 -23957483.57848 -18650921.10945  21911563.0474                   21911560.7384
  -5426951.82446  -4212804.45344  24094910.2664                   24094910.8954
   1111463.18847    881669.64144  23671235.2734                   23671236.6484
 -12611611.79746  -9812418.13743  24242905.6884                   24242904.4774
 -26346352.35248 -20513550.64146  20562657.8984                   20562653.0004
 11  7 26  2 14  0.0000000  0  9G10G12G17G05G04G09G25G27G02
 -21520097.96548 -16754314.80946  20873010.8444                   20873008.4384
 -17665421.51648 -13750052.47746  21122683.6804                   21122680.2934
 -24244003.90247 -18875107.54344  23448989.1954                   23448987.7934
 -12458534.68447  -9692127.19146  21708855.9924                   21708853.7854
 -23907726.14847 -18612149.06645  21921031.3134                   21921029.7344
  -5372135.47746  -4170090.42644  24105341.9144                   24105341.2074
    988064.95747    785515.25844  23647754.0554                   23647754.7154
 -12574758.46946  -9783701.20743  24249918.5234                   24249919.5904
 -26370691.57048 -20532516.23846  20558025.9144                   20558021.0864
 11  7 26  2 14 30.0000000  0  9G10G12G17G05G04G09G25G27G02
 -21540674.52347 -16770348.46946  20869095.0864                   20869092.5944
 -17740242.68748 -13808354.67646  21108445.7194                   21108442.4494
 -24213082.87147 -18851013.23044  23454873.8134                   23454871.2774
 -12572284.32047  -9780763.21146  21687210.0554                   21687207.8754
 -23857840.10947 -18573276.80145  21930524.5234                   21930522.3164
  -5317225.06247  -4127303.06643  24115791.2424                   24115789.4454
    864922.13347    689559.87944  23624320.1954                   23624321.0204
 -12537891.05945  -9754973.37943  24256933.1174                   24256936.1954
 -26394741.04348 -20551256.05547  20553449.6954                   20553444.7664
 11  7 26  2 15  0.0000000  0  9G10G12G17G05G04G09G25G27G02
 -21560605.93748 -16785879.41846  20865302.2114                   20865299.5514
 -17814559.48848 -13866263.85946  21094303.6724                   21094300.3794
 -24181984.48847 -18826780.73444  23460791.9454                   23460789.5634
 -12685667.30947  -9869113.53946  21665633.8284                   21665631.5124
 -23807829.59847 -18534307.55545  21940040.9534                   21940039.7074
  -5262225.75846  -4084446.46943  24126256.0004                   24126256.1214
    742035.19147    593803.87144  23600935.0944                   23600935.5394
 -12501014.35545  -9726238.43743  24263951.8914                   24263953.3164
 -26418504.37548 -20569772.90246  20548927.6724                   20548922.9844
 11  7 26  2 15 30.0000000  0  9G10G12G17G05G04G09G25G27G02
 -21579893.23847 -16800908.46146  20861631.9454                   20861629.4104
 -17888370.78948 -13923779.14846  21080257.8444                   21080254.7734
 -24150709.26247 -18802410.41044  23466743.0864                   23466740.5904
 -12798682.19147  -9957177.02346  21644127.7814                   21644125.5824
 -23757697.55947 -18495243.61745  21949580.8594                   21949578.9654
  -5207142.37146  -4041524.43043  24136738.7114                   24136738.9614
    619405.57447    498248.40244  23577599.3364                   23577599.8874
 -12464132.30146  -9697499.18743  24270971.3204                   24270971.0784
 -26441983.73848 -20588068.48847  20544459.6174                   20544454.3874
 11  7 26  2 16  0.0000000  0  9G10G12G17G05G04G09G25G27G02
 -21598534.80947 -16815434.34046  20858085.0474                   20858082.2424
 -17961672.58248 -13980897.41846  21066308.7194                   21066306.0514
 -24119254.95347 -18777900.55144  23472728.4144                   23472726.8954
 -12911323.79747 -10044949.65646  21622692.7734                   21622690.6844
 -23707443.74647 -18456084.78545  21959143.6174                   21959142.2234
  -5151976.25046  -3998537.88344  24147236.9384                   24147237.6954
    497038.20747    402897.26644  23554313.2894                   23554314.3714
 -12427245.37546  -9668756.11743  24277990.0084                   24277989.2774
 -26465178.31648 -20606142.17647  20540045.8284                   20540040.8794
 11  7 26  2 16 30.0000000  0  9G10G12G17G05G04G09G25G27G02
 -21616533.44148 -16829459.24246  20854659.3364                   20854656.9964
 -18034465.78548 -14037619.37546  21052457.0164                   21052453.6484
 -24087623.57847 -18753252.72344  23478747.4454                   23478745.6844
 -13023591.96548 -10132431.28946  21601328.9774                   21601326.5044
 -23657072.14147 -18416834.16445  21968729.0634                   21968727.4534
  -5096732.81647  -3955491.07444  24157749.2504                   24157750.1764
    374933.38747    307750.71144  23531077.9774                   23531079.0594
 -12390358.59846  -9640013.16843  24285007.6954                   24285008.7664
 -26488091.29748 -20623996.42246  20535685.7974                   20535680.6884
 11  7 26  2 17  0.0000000  0  9G10G12G17G05G04G09G25G27G02
 -21633886.90648 -16842981.41446  20851357.4534                   20851355.0234
 -18106745.80548 -14093941.45346  21038702.5314                   21038699.0634
 -24055812.21546 -18728464.63744  23484800.9454                   23484799.0514
 -13135481.48047 -10219617.87146  21580036.9384                   21580034.7664
 -23606582.13747 -18377491.28545  21978337.4614                   21978334.9654
  -5041412.83646  -3912384.62144  24168275.6094                   24168276.5514
    253096.31347    212812.77344  23507893.5864                   23507894.1524
 -12353471.99646  -9611270.39543  24292027.1024                   24292028.4384
 -26510721.46548 -20641630.29746  20531379.1884                   20531374.3244
 11  7 26  2 17 30.0000000  0  9G10G12G17G05G04G09G25G27G02
 -21650597.42648 -16856002.58646  20848177.6174                   20848175.0984
 -18178512.96148 -14149863.89546  21025045.4844                   21025042.4534
 -24023822.40646 -18703537.51244  23490888.2974                   23490887.1454
 -13246991.55547 -10306508.78546  21558817.1884                   21558815.2384
 -23555977.58647 -18338059.13345  21987967.1414                   21987965.2934
  -4986021.57446  -3869222.60244  24178816.5394                   24178815.8794
    131527.53547    118083.92644  23484759.8984                   23484760.6334
 -12316590.48846  -9582531.62143  24299046.6644                   24299048.1764
 -26533071.85548 -20659046.16846  20527126.0084                   20527121.1134
 11  7 26  2 18  0.0000000  0  9G10G12G17G05G04G09G25G27G02
 -21666663.80547 -16868521.82846  20845120.0164                   20845117.6524
 -18249763.61348 -14205383.85546  21011487.0784                   21011483.4494
 -23991652.67646 -18678470.17244  23497009.8054                   23497008.5784
 -13358118.24247 -10393100.94946  21537670.6804                   21537668.1484
 -23505258.77347 -18298537.96145  21997618.5634                   21997616.7424
  -4930560.86747  -3826006.47344  24189371.2664                   24189370.2304
     10231.21547     23567.36344  23461677.6564                   23461677.9964
 -12279715.43446  -9553797.85543  24306063.5704                   24306065.1804
 -26555142.12548 -20676243.76647  20522926.2344                   20522921.4144
 11  7 26  2 18 30.0000000  0  9G10G12G17G05G04G09G25G27G02
 -21682086.87547 -16880539.79346  20842185.0704                   20842182.4774
 -18320496.13348 -14260500.07446  20998026.9144                   20998024.0864
 -23959302.46946 -18653262.19544  23503165.8594                   23503164.6644
 -13468858.93447 -10479392.34446  21516597.2814                   21516595.2194
 -23454427.41447 -18258929.08645  22007291.2974                   22007289.7624
  -4875033.94947  -3782738.73444  24199936.8444                   24199937.5274
   -110789.99647    -70734.84044  23438647.9694                   23438647.6414
 -12242849.23846  -9525071.01644  24313078.3754                   24313081.2304
 -26576933.39548 -20693223.95346  20518779.6644                   20518774.9534
 11  7 26  2 19  0.0000000  0  9G10G12G17G05G04G09G25G27G02
 -21696866.09048 -16892056.05546  20839372.7424                   20839370.2504
 -18390707.89148 -14315210.49246  20984666.1094                   20984663.0434
 -23926770.65646 -18627912.71144  23509356.3594                   23509355.3404
 -13579209.91447 -10565380.06646  21495597.9304                   21495595.9184
 -23403484.74647 -18219233.47345  22016985.0784                   22016983.3524
  -4819443.56247  -3739421.53544  24210515.4304                   24210516.6914
   -231532.69547   -164820.02045  23415671.9614                   23415671.4344
 -12205993.72346  -9496352.50843  24320092.5394                   24320093.9224
 -26598446.45748 -20709987.35546  20514685.7034                   20514680.8914
 11  7 26  2 19 30.0000000  0  9G10G12G17G05G04G09G25G27G02
 -21711004.74247 -16903073.17646  20836682.2114                   20836679.4344
 -18460399.78948 -14369515.84446  20971403.9774                   20971400.9144
 -23894059.92647 -18602423.81244  23515581.6644                   23515579.6334
 -13689171.52048 -10651064.37946  21474673.4454                   21474670.7114
 -23352434.83647 -18179454.30145  22026699.8524                   22026698.1804
  -4763795.58247  -3696059.46944  24221104.6174                   24221104.9774
   -351996.92247   -258688.21144  23392748.2034                   23392747.8014
 -12169154.42646  -9467646.60243  24327103.5234                   24327102.8874
 -26619685.13748 -20726536.96946  20510644.1414                   20510639.3754
 11  7 26  2 20  0.0000000  0  9G10G12G17G05G04G09G25G27G02
 -21724501.26648 -16913589.93446  20834114.1024                   20834111.4414
 -18529568.07848 -14423413.16846  20958241.5944                   20958238.5824
 -23861168.00447 -18576793.72344  23521840.4614                   23521838.9844
 -13798739.01247 -10736441.59446  21453823.3914                   21453820.8794
 -23301277.75047 -18139591.60945  22036434.4224                   22036432.9264
  -4708091.27747  -3652653.54344  24231704.6094                   24231704.7234
   -472177.94147   -352335.75844  23369878.0784                   23369878.1334
 -12132331.88746  -9438953.70743  24334109.5634                   24334109.4494
 -26640648.37948 -20742871.93746  20506654.9694                   20506649.8794
 11  7 26  2 20 30.0000000  0  9G10G12G17G05G04G09G25G27G02
 -21737358.44548 -16923608.49246  20831667.5234                   20831664.6054
 -18598213.65248 -14476903.19546  20945178.8674                   20945175.3984
 -23828096.94947 -18551024.07844  23528133.8444                   23528132.1844
 -13907912.38747 -10821511.70746  21433047.8524                   21433045.9304
 -23250017.60547 -18099648.62545  22046188.9694                   22046187.2974
  -4652336.44146  -3609208.20344  24242315.3444                   24242314.7734
   -592075.71947   -445762.58644  23347062.0634                   23347062.5274
 -12095531.50046  -9410278.14143  24341111.3914                   24341113.5084
 -26661339.52348 -20758994.88347  20502717.3594                   20502712.8054
 11  7 26  2 21  0.0000000  0  9G10G12G17G05G04G09G25G27G02
 -21749577.17248 -16933129.55146  20829342.2114                   20829339.5824
 -18666334.84048 -14529984.60546  20932215.7894                   20932212.6884
 -23794846.54347 -18525114.66844  23534460.9774                   23534459.4064
 -14016689.03147 -10906272.66846  21412348.5944                   21412345.9064
 -23198656.10247 -18059626.66445  22055962.7274                   22055961.1374
  -4596534.39847  -3565726.09044  24252933.3674                   24252934.6644
   -711687.63747   -538966.64844  23324300.6954                   23324300.9574
 -12058755.81646  -9381621.90243  24348110.1804                   24348112.5704
 -26681760.30148 -20774907.15246  20498831.7814                   20498826.4494
 11  7 26  2 21 30.0000000  0  9G10G12G17G05G04G09G25G27G02
 -21761158.14548 -16942153.64846  20827138.1564                   20827135.4574
 -18733929.85548 -14582656.02046  20919352.8284                   20919349.8244
 -23761416.25047 -18499065.07844  23540822.4844                   23540821.0944
 -14125066.38747 -10990722.50446  21391724.9454                   21391722.2544
 -23147195.38747 -18019527.37945  22065755.3204                   22065753.5864
  -4540688.53146  -3522209.83644  24263559.8674                   24263561.5354
   -831011.05147   -631945.93744  23301594.0234                   23301593.4964
 -12022007.87546  -9352987.21943  24355104.9384                   24355106.0004
 -26701911.74248 -20790609.55146  20494996.9534                   20494991.5984
 11  7 26  2 22  0.0000000  0  9G10G12G17G05G04G09G25G27G02
 -21772099.80948 -16950679.59446  20825055.9534                   20825053.3834
 -18800995.01248 -14634914.55146  20906590.6024                   20906587.6294
 -23727804.17247 -18472873.84444  23547218.5084                   23547216.6954
 -14233040.00848 -11074857.74646  21371178.2974                   21371175.8054
 -23095634.77347 -17979350.26645  22075566.8364                   22075565.3594
  -4484800.01646  -3478660.37144  24274196.3914                   24274197.0904
   -950041.26647   -724696.74244  23278943.5634                   23278943.1134
 -11985288.10946  -9324374.48043  24362092.3674                   24362093.1054
 -26721793.05148 -20806101.46546  20491213.6564                   20491208.3954
 11  7 26  2 22 30.0000000  0  9G10G12G17G05G04G09G25G27G02
 -21782404.68048 -16958709.34046  20823095.1254                   20823092.6174
 -18867530.31248 -14686760.21146  20893929.6094                   20893926.3164
 -23694011.50047 -18446541.89144  23553649.4224                   23553647.2114
 -14340608.69948 -11158677.45346  21350708.3754                   21350705.9774
 -23043977.81647 -17939098.09445  22085397.0944                   22085394.9144
  -4428873.85946  -3435081.55943  24284838.8054                   24284838.9184
  -1068777.19147   -817218.22345  23256349.0084                   23256349.6454
 -11948600.77346  -9295786.94943  24369073.5164                   24369072.1644
 -26741406.91048 -20821384.96946  20487481.0314                   20487476.2584
 11  7 26  2 23  0.0000000  0  9G10G12G17G05G04G09G25G27G02
 -21792070.49248 -16966241.10946  20821255.6954                   20821253.3484
 -18933531.47348 -14738189.66046  20881369.9694                   20881366.6804
 -23660035.23047 -18420066.85544  23560115.1254                   23560112.6764
 -14447767.52048 -11242177.77746  21330317.0234                   21330314.3834
 -22992223.35547 -17898769.93745  22095245.6724                   22095243.4454
  -4372910.53946  -3391473.77043  24295487.2814                   24295487.4694
  -1187213.62547   -909506.31245  23233810.9454                   23233812.3134
 -11911945.68746  -9267224.62942  24376047.5234                   24376046.6484
 -26760751.98048 -20836459.03946  20483799.8364                   20483794.8484
 11  7 26  2 23 30.0000000  0  9G10G12G17G05G04G09G25G27G02
 -21801100.52748 -16973277.46946  20819537.5784                   20819535.0354
 -18998999.05948 -14789203.34046  20868911.6954                   20868908.6844
 -23625877.51647 -18393450.46544  23566614.2664                   23566613.0904
 -14554516.19948 -11325358.51246  21310003.0784                   21310000.9924
 -22940375.41047 -17858368.93745  22105112.3524                   22105109.8014
  -4316915.36746  -3347841.16043  24306142.7814                   24306142.3914
  -1305350.13747  -1001560.66045  23211330.3284                   23211332.4454
 -11875327.72346  -9238691.22342  24383015.3674                   24383017.1724
 -26779831.60948 -20851326.27347  20480169.1954                   20480164.4884
 11  7 26  2 24  0.0000000  0  8G10G12G17G05G04G09G25G02
 -21809496.37547 -16979819.64846  20817939.8914                   20817937.0124
 -19063932.48448 -14839800.80146  20856555.1804                   20856551.8874
 -23591539.07846 -18366693.21944  23573149.0634                   23573147.3674
 -14660852.71548 -11408218.08646  21289768.0084                   21289765.4184
 -22888436.39847 -17817896.97745  22114995.5394                   22114994.1724
  -4260892.28546  -3304186.84043  24316804.0784                   24316803.0234
  -1423184.85247  -1093379.84045  23188907.8674                   23188908.4924
 -26798647.81648 -20865988.24646  20476588.6414                   20476583.7384
 11  7 26  2 24 30.0000000  0  8G10G12G17G05G04G09G25G02
 -21817255.46548 -16985865.66846  20816463.3134                   20816460.7304
 -19128326.96148 -14889978.29346  20844301.6334                   20844298.4844
 -23557016.25447 -18339792.31244  23579718.7344                   23579716.6844
 -14766771.53948 -11490752.17646  21269612.1724                   21269609.8284
 -22836404.98047 -17777353.01645  22124896.9064                   22124894.8984
  -4204841.44546  -3260510.89543  24327470.6254                   24327470.4964
  -1540712.01647  -1184959.35545  23166542.4064                   23166543.6134
 -26817198.47348 -20880443.28947  20473058.4454                   20473053.4844
 11  7 26  2 25  0.0000000  0  8G10G12G17G05G04G09G25G02
 -21824369.73448 -16991409.23046  20815109.2584                   20815106.7624
 -19192171.60248 -14939727.35546  20832152.3134                   20832149.1334
 -23522300.10946 -18312740.77344  23586325.0474                   23586322.7894
 -14872261.38348 -11572952.00446  21249538.0164                   21249535.8404
 -22784273.89147 -17736731.39145  22134816.9694                   22134815.3794
  -4148757.47746  -3216809.11343  24338142.8834                   24338143.7504
  -1657920.14847  -1276290.24644  23144237.6024                   23144239.2774
 -26835475.93048 -20894685.44946  20469580.3984                   20469575.6334
 11  7 26  2 25 30.0000000  0  8G10G12G17G05G04G09G25G02
 -21830839.88348 -16996450.88746  20813878.3834                   20813875.6414
 -19255465.24648 -14989047.06246  20820108.1334                   20820104.8794
 -23487390.14546 -18285538.18044  23592967.7584                   23592966.0904
 -14977319.61748 -11654815.51646  21229546.0234                   21229543.7664
 -22732044.68747 -17696033.31245  22144755.9844                   22144754.2814
  -4092643.51246  -3173083.95343  24348819.9454                   24348821.9614
  -1774806.53147  -1367370.43745  23121995.6484                   23121996.6454
 -26853481.43748 -20908715.69946  20466154.0474                   20466148.9264
 11  7 26  2 26  0.0000000  0  8G10G12G17G05G04G09G25G02
 -21836669.43748 -17000993.37146  20812769.0164                   20812766.1454
 -19318208.75048 -15037938.09046  20808168.2424                   20808165.0354
 -23452288.57446 -18258186.29744  23599647.5314                   23599645.7894
 -15081946.33248 -11736342.77046  21209636.3204                   21209634.1374
 -22679721.36347 -17655261.87945  22154712.8834                   22154711.2034
  -4036504.98846  -3129339.68743  24359502.7114                   24359503.9304
  -1891370.87547  -1458199.67245  23099814.6174                   23099814.9104
 -26871218.48448 -20922536.77046  20462778.7664                   20462773.8954
 11  7 26  2 26 30.0000000  0  8G10G12G17G05G04G09G25G02
 -21841859.60248 -17005037.64546  20811780.8444                   20811778.5004
 -19380400.99648 -15086399.55546  20796333.1334                   20796329.7974
 -23416995.91446 -18230685.50444  23606363.4774                   23606361.6024
 -15186139.51648 -11817532.21946  21189808.8834                   21189806.7464
 -22627306.14547 -17614418.85245  22164687.0084                   22164685.3634
  -3980345.67246  -3085579.20343  24370190.9924                   24370190.0514
  -2007611.19147  -1548776.44144  23077694.6414                   23077694.5314
 -26888688.89848 -20936150.06647  20459454.2894                   20459449.2424
 11  7 26  2 27  0.0000000  0  8G10G12G17G05G04G09G25G02
 -20270993.57448 -15780986.17246  21110706.9304                   21110704.3834
 -17866620.70348 -13906830.48046  21084396.0084                   21084393.0554
 -21806095.50846 -16975438.41444  23912908.0234                   23912905.5084
 -13714475.57847 -10670781.05146  21469857.1024                   21469855.0004
 -20999384.71547 -16345908.64845  22474470.1724                   22474468.7624
  -2348753.08646  -1814208.35243  24680673.3364                   24680671.1724
   -548103.32047   -411497.48445  23355429.7114                   23355428.8754
 -25330475.68748 -19721957.95346  20755972.2814                   20755967.4064
 11  7 26  2 27 30.0000000  0  8G10G12G17G05G04G09G25G02
 -20274915.57448 -15784042.25046  21109960.5164                   21109957.9264
 -17927713.59048 -13954435.31246  21072770.5634                   21072767.5314
 -21770427.49646 -16947645.14844  23919695.0554                   23919692.8834
 -13817802.05947 -10751295.13746  21450194.5164                   21450192.4614
 -20946798.19147 -16304932.13345  22484477.4144                   22484475.2704
  -2292569.35546  -1770428.85243  24691364.1174                   24691363.7624
   -663695.37547   -501569.10544  23333432.8444                   23333431.4654
 -25347423.89148 -19735164.34046  20752747.1484                   20752742.5704
 11  7 26  2 28  0.0000000  0  8G10G12G17G05G04G09G25G02
 -20278208.20348 -15786607.90246  21109333.8674                   21109331.5274
 -17988257.66048 -14001612.48846  21061249.2664                   21061246.1524
 -21734574.77746 -16919707.95744  23926518.1094                   23926515.7894
 -13920694.84847 -10831471.28146  21430614.6334                   21430612.3834
 -20894131.86347 -16263893.43445  22494499.5944                   22494497.0044
  -2236381.34446  -1726646.01243  24702055.9144                   24702056.1334
   -778962.60947   -591387.63345  23311497.9144                   23311497.1564
 -25364115.92248 -19748171.10246  20749570.7584                   20749566.0784
 11  7 26  2 28 30.0000000  0  8G10G12G17G05G04G09G25G02
 -20280869.85248 -15788681.88346  21108827.7034                   21108824.7704
 -18048249.71548 -14048359.52346  21049833.2034                   21049830.0044
 -21698534.49647 -16891624.59844  23933375.6804                   23933373.7734
 -14023148.82848 -10911305.50846  21411118.5864                   21411115.8914
 -20841384.52047 -16222791.57845  22504537.4694                   22504534.5004
  -2180189.77046  -1682860.43443  24712748.5784                   24712750.1644
   -893899.80947   -680948.99245  23289626.0474                   23289625.8594
 -25380550.46948 -19760977.23046  20746443.5704                   20746438.6094
 11  7 26  2 29  0.0000000  0  8G10G12G17G05G04G09G25G02
 -20282903.16048 -15790266.24246  21108440.5474                   21108437.9344
 -18107689.41848 -14094676.15646  21038521.9534                   21038518.7774
 -21662308.48446 -16863396.52344  23940269.8054                   23940267.5394
 -14125163.43747 -10990797.36346  21391705.7344                   21391703.2464
 -20788559.59447 -16181629.26645  22514589.2424                   22514587.0904
  -2123999.45746  -1639075.84444  24723442.4694                   24723442.9804
  -1008506.05147   -770252.45745  23267817.1564                   23267817.5704
 -25396730.81248 -19773585.27346  20743364.2344                   20743359.1684
 11  7 26  2 29 30.0000000  0  8G10G12G17G05G04G09G25G02
 -20284310.78548 -15791363.05946  21108172.6174                   21108169.6764
 -18166576.68448 -14140562.31646  21027316.5944                   21027313.2274
 -21625897.32447 -16835024.20344  23947198.2584                   23947196.3094
 -14226737.75447 -11069946.12946  21372376.5864                   21372374.2814
 -20735659.89147 -16140408.68745  22524655.3524                   22524653.1024
  -2067814.99646  -1595295.80944  24734133.7974                   24734134.6294
  -1122780.16047   -859297.10945  23246071.6174                   23246072.0514
 -25412658.88348 -19785996.72746  20740333.2584                   20740328.3554
 11  7 26  2 30  0.0000000  0  8G10G12G17G05G04G09G25G02
 -20285096.09848 -15791974.96146  21108023.1954                   21108020.6334
 -18224912.37548 -14186018.68446  21016215.4454                   21016212.2544
 -21589303.28547 -16806509.34444  23954162.0554                   23954160.2304
 -14327871.40247 -11148751.52046  21353131.5944                   21353129.1914
 -20682689.00847 -16099132.64845  22534735.1174                   22534733.2894
  -2011641.62946  -1551524.39843  24744823.3984                   24744823.3164
  -1236721.64847   -948082.60545  23224389.3134                   23224389.0554
 -25428338.41848 -19798214.51246  20737349.5554                   20737344.6054
 11  7 26  2 30 30.0000000  0  8G10G12G17G05G04G09G25G02
 -20285257.32447 -15792100.56246  21107992.5084                   21107989.5704
 -18282692.78148 -14231042.35546  21005219.9144                   21005217.0274
 -21552523.80946 -16777850.03144  23961160.9924                   23961159.0274
 -14428559.60947 -11227209.81646  21333971.1484                   21333968.5084
 -20629646.37147 -16057800.70345  22544828.8594                   22544826.9384
  -1955479.81246  -1507762.00043  24755510.5784                   24755509.2424
  -1350325.29347  -1036604.84445  23202771.6174                   23202771.8014
 -25443767.77048 -19810237.34446  20734413.2504                   20734408.3874
 11  7 26  2 31  0.0000000  0  8G10G12G17G05G04G09G25G02
 -20284798.12948 -15791742.71146  21108079.5474                   21108077.0124
 -18339918.91848 -14275634.12546  20994330.6024                   20994327.1724
 -21515561.07846 -16749047.89544  23968194.5474                   23968192.9144
 -14528802.41047 -11305321.03546  21314895.6254                   21314893.1764
 -20576535.60247 -16016415.66845  22554935.5944                   22554933.7934
  -1899335.27346  -1464013.05543  24766193.4534                   24766192.2974
  -1463591.02047  -1124863.78145  23181217.6804                   23181218.0744
 -25458950.58648 -19822068.07846  20731524.3364                   20731519.1414
 11  7 26  2 31 30.0000000  0  8G10G12G17G05G04G09G25G02
 -20283718.86747 -15790901.69946  21108285.1174                   21108282.2234
 -18396588.55948 -14319792.26246  20983546.3594                   20983543.1844
 -21478414.04746 -16720102.14844  23975263.7194                   23975261.7934
 -14628596.38347 -11383082.52346  21295905.6804                   21295903.2424
 -20523357.54347 -15974978.20745  22565055.1094                   22565053.2234
  -1843210.25046  -1420279.33643  24776873.9384                   24776872.7344
  -1576515.23847  -1212856.62545  23159728.7274                   23159729.0004
 -25473886.54748 -19833706.45746  20728682.0704                   20728677.2074
 11  7 26  2 32  0.0000000  0  8G10G12G17G05G04G09G25G02
 -20282021.23047 -15789578.84046  21108608.4064                   21108604.9924
 -18452700.89148 -14363516.13746  20972868.6484                   20972865.3164
 -21441083.09446 -16691013.10544  23982367.2584                   23982365.7194
 -14727940.17648 -11460493.22346  21277000.9534                   21276998.5824
 -20470114.10247 -15933489.79345  22575186.9224                   22575185.2074
  -1787108.39146  -1376563.67244  24787550.1414                   24787550.9414
  -1689095.98847  -1300581.82845  23138305.2114                   23138305.6884
 -25488578.66848 -19845154.83646  20725886.2034                   20725881.3444
 11  7 26  2 32 30.0000000  0  8G10G12G17G05G04G09G25G02
 -20279706.33647 -15787775.00446  21109048.7344                   21109045.7424
 -18508254.61748 -14406804.72346  20962297.1174                   20962293.7664
 -21403568.24646 -16661780.74644  23989506.4454                   23989504.4654
 -14826831.23448 -11537551.14546  21258182.6884                   21258180.1564
 -20416806.75847 -15891951.57445  22585330.8594                   22585329.3874
  -1731032.53946  -1332868.28544  24798221.7814                   24798223.1844
  -1801330.53147  -1388037.25445  23116947.6254                   23116947.7234
 -25503027.59048 -19856413.71546  20723136.8054                   20723131.7464
 11  7 26  2 33  0.0000000  0  8G10G12G17G05G04G09G25G02
 -20276777.10547 -15785492.45746  21109606.1804                   21109603.2584
 -18563249.76248 -14449658.05546  20951831.7584                   20951828.6644
 -21365870.44146 -16632405.82844  23996679.6414                   23996677.5864
 -14925268.62548 -11614255.55546  21239450.3524                   21239447.6764
 -20363438.44147 -15850365.86745  22595486.3594                   22595484.2274
  -1674987.22346  -1289196.70744  24808886.7974                   24808888.6954
  -1913217.69147  -1475222.00444  23095656.0164                   23095656.3954
 -25517235.60948 -19867484.88346  20720432.6484                   20720427.9344
 11  7 26  2 33 30.0000000  0  8G10G12G17G05G04G09G25G02
 -20273234.01248 -15782731.58646  21110280.3984                   21110277.2584
 -18617684.52348 -14492074.72346  20941473.1024                   20941470.2734
 -21327988.78546 -16602887.63344  24003888.1414                   24003886.1564
 -15023249.47348 -11690604.23046  21220805.3834                   21220802.7304
 -20310009.77747 -15808733.12944  22605653.5704                   22605651.4344
  -1618974.86346  -1245550.79743  24819544.4224                   24819546.1414
  -2024754.13347  -1562133.46145  23074430.9064                   23074431.3674
 -25531203.49248 -19878368.92246  20717774.7664                   20717770.1484
 11  7 26  2 34  0.0000000  0  8G10G12G17G05G04G09G25G02
 -20269079.08648 -15779493.96546  21111071.2194                   21111068.0514
 -18671558.96948 -14534054.78546  20931221.3524                   20931218.0984
 -21289924.21546 -16573226.89844  24011131.9384                   24011129.7504
 -15120772.39547 -11766596.07846  21202247.2034                   21202244.6024
 -20256523.50447 -15767055.48044  22615832.2504                   22615829.3324
  -1562999.60246  -1201933.78943  24830196.3364                   24830195.9064
  -2135938.44947  -1648770.52344  23053273.0784                   23053273.4454
 -25544933.11748 -19889067.30946  20715162.1954                   20715157.1484
 11  7 26  2 34 30.0000000  0  8G10G12G17G05G04G09G25G02
 -20264313.03948 -15775780.14846  21111977.5944                   21111975.0234
 -18724871.03148 -14575596.62546  20921076.1804                   20921072.8364
 -21251676.22346 -16543423.25444  24018410.4454                   24018408.4304
 -15217834.89147 -11842229.14146  21183777.0634                   21183774.3444
 -20202980.41447 -15725333.57044  22626020.9304                   22626018.2704
  -1507063.99646  -1158347.60543  24840840.2504                   24840837.9384
  -2246767.47747  -1735130.75445  23032182.6724                   23032183.0474
 -25558425.34048 -19899580.70346  20712594.4064                   20712589.4614
 11  7 26  2 35  0.0000000  0  8G10G12G17G05G04G09G25G02
 -20258934.82447 -15771589.31246  21113001.2664                   21112998.5704
 -18777617.26248 -14616697.55546  20911038.9384                   20911035.8674
 -21213242.15246 -16513474.58644  24025723.7974                   24025722.1884
 -15314431.96947 -11917499.55146  21165394.9534                   21165392.3404
 -20149379.66847 -15683566.73444  22636220.8284                   22636218.3874
  -1451168.42646  -1114792.67643  24851478.6724                   24851477.8594
  -2357236.12547  -1821210.16845  23011161.7424                   23011161.8674
 -25571678.89848 -19909908.13346  20710072.6024                   20710067.4734
 11  7 26  2 35 30.0000000  0  8G10G12G17G05G04G09G25G02
 -20252947.01648 -15766923.47346  21114140.7734                   21114138.3794
 -18829797.79348 -14657357.68746  20901109.6954                   20901106.2774
 -21174623.23046 -16483381.88344  24033072.9614                   24033070.7464
 -15410562.79347 -11992406.64146  21147101.5234                   21147099.3444
 -20095723.84847 -15641757.01645  22646431.0164                   22646428.5904
  -1395317.27346  -1071272.35943  24862107.0004                   24862108.7464
  -2467342.94147  -1907007.64845  22990208.9614                   22990209.1764
 -25584696.09048 -19920051.37546  20707595.6174                   20707590.7154
 11  7 26  2 36  0.0000000  0  8G10G12G17G05G04G09G25G02
 -20246353.96548 -15761786.02346  21115395.5314                   21115392.4924
 -18881414.37148 -14697578.36746  20891287.0634                   20891283.7544
 -21135822.18446 -16453147.26644  24040456.4924                   24040454.1454
 -15506228.24247 -12066951.10546  21128897.2734                   21128894.5554
 -20042017.28947 -15599907.73045  22656651.2034                   22656648.5824
  -1339516.59046  -1027791.36743  24872723.7194                   24872728.3714
  -2577088.50447  -1992523.64545  22969324.7664                   22969324.7274
 -25597480.95348 -19930013.59446  20705162.5084                   20705157.6414
 11  7 26  2 36 30.0000000  0  8G10G12G17G05G04G09G25G02
 -20239156.33247 -15756177.45746  21116764.8204                   21116762.4804
 -18932464.96548 -14737358.02046  20881572.7894                   20881569.4384
 -21096837.85946 -16422769.82844  24047874.9534                   24047872.7154
 -15601424.98447 -12141130.34046  21110782.1804                   21110779.4184
 -19988260.41047 -15558019.25845  22666880.9224                   22666878.4694
  -1283768.09845   -984351.03142  24883331.2974                   24883334.3634
  -2686469.18747  -2077755.30945  22948510.8754                   22948510.1914
 -25610033.64148 -19939794.87946  20702774.1094                   20702769.0474
 11  7 26  2 37  0.0000000  0  8G10G12G17G05G04G09G25G02
 -20231354.22747 -15750097.88346  21118249.7734                   21118246.4734
 -18982947.20748 -14776694.80146  20871965.9534                   20871962.6334
 -21057668.97646 -16392248.61344  24055327.7504                   24055326.5554
 -15696149.78147 -12214941.82846  21092756.6804                   21092753.8674
 -19934453.51647 -15516091.80945  22677119.8204                   22677117.4844
  -1228073.67246   -940952.84442  24893931.7664                   24893928.6724
  -2795481.26647  -2162699.76245  22927766.7664                   22927766.4064
 -25622354.17648 -19949395.27346  20700429.4304                   20700424.5274
 11  7 26  2 37 30.0000000  0  7G10G12G17G05G04G25G02
 -20222950.94148 -15743549.84046  21119848.6954                   21119846.0824
 -19032861.99648 -14815589.41046  20862467.6094                   20862464.2234
 -21018317.47746 -16361585.02344  24062816.1954                   24062814.7424
 -15790402.24648 -12288385.26646  21074820.7114                   21074817.6524
 -19880599.83247 -15474127.90645  22687367.8914                   22687365.5744
  -2904124.07047  -2247356.48045  22907092.6804                   22907091.6564
 -25634445.65248 -19958817.18046  20698128.2664                   20698123.3714
 11  7 26  2 38  0.0000000  0  7G10G12G17G05G04G25G02
 -20213944.58647 -15736531.87946  21121562.7344                   21121559.7544
 -19082204.74648 -14854038.27346  20853078.0704                   20853074.5984
 -20978779.75846 -16330776.37944  24070340.3834                   24070338.3714
 -15884176.78148 -12361456.28946  21056975.7974                   21056973.3284
 -19826697.37147 -15432125.98845  22697624.6954                   22697623.2704
  -3012391.55147  -2331720.74245  22886490.1884                   22886490.1094
 -25646305.88348 -19968058.90246  20695871.3284                   20695866.5944
 11  7 26  2 38 30.0000000  0  7G10G12G17G05G04G25G02
 -20204329.13747 -15729039.30946  21123392.6024                   21123389.5824
 -19130966.50848 -14892034.41846  20843798.7584                   20843795.6844
 -20939048.18046 -16299816.68044  24077900.8834                   24077898.9804
 -15977463.98048 -12434147.56646  21039224.1804                   21039221.4064
 -19772739.68047 -15390081.03544  22707893.0704                   22707890.9964
  -3120273.62947  -2415784.68045  22865960.3754                   22865960.8674
 -25657928.13748 -19977115.18046  20693660.0004                   20693654.6994
 11  7 26  2 39  0.0000000  0  7G10G12G17G05G04G25G02
 -20194100.52747 -15721068.94546  21125338.8914                   21125335.9614
 -19179141.39848 -14929573.26646  20834631.6094                   20834628.5474
 -20899117.08246 -16268701.47744  24085500.0864                   24085497.2664
 -16070255.82048 -12506452.85246  21021566.3054                   21021563.4924
 -19718722.69547 -15347989.89144  22718171.6884                   22718169.8134
  -3227762.12547  -2499541.92645  22845506.4454                   22845506.7934
 -25669308.21948 -19985982.75046  20691494.3204                   20691489.3444
 11  7 26  2 39 30.0000000  0  7G10G12G17G05G04G25G02
 -20183263.45747 -15712624.45746  21127400.7344                   21127397.9384
 -19226731.76248 -14966656.63346  20825575.1414                   20825572.0044
 -20858989.56246 -16237433.27344  24093135.3524                   24093133.5204
 -16162554.02048 -12578373.48446  21004002.2034                   21003999.5514
 -19664651.22747 -15305856.30144  22728461.4224                   22728459.4494
  -3334857.93047  -2582993.18745  22825126.2734                   22825126.4304
 -25680450.60948 -19994665.10546  20689374.1484                   20689369.0084
 11  7 26  2 40  0.0000000  0  7G10G12G17G05G04G25G02
 -20171821.97347 -15703709.00046  21129578.1414                   21129575.2894
 -19273738.70748 -15003285.39146  20816630.1954                   20816626.4344
 -20818668.48046 -16206014.21544  24100807.9064                   24100806.0124
 -16254358.66048 -12649909.52346  20986532.7664                   20986530.0394
 -19610529.08646 -15263683.22344  22738760.4774                   22738758.1454
  -3441560.93747  -2666138.35245  22804821.6644                   22804822.0234
 -25691358.68048 -20003164.87146  20687298.1484                   20687293.1684
 11  7 26  2 40 30.0000000  0  7G10G12G17G05G04G25G02
 -20159784.85947 -15694329.40246  21131868.9064                   21131866.0824
 -19320168.41848 -15039464.35946  20807794.5944                   20807791.6024
 -20778160.23446 -16174449.32843  24108516.4304                   24108514.8554
 -16345674.40248 -12721064.60246  20969155.8054                   20969153.0904
 -19556364.25847 -15221476.87144  22749068.1484                   22749065.3984
  -3547875.50847  -2748980.82445  22784590.6804                   22784591.3594
 -25702040.48048 -20011488.31646  20685265.3524                   20685260.4344
 11  7 26  2 41  0.0000000  0  7G10G12G17G05G04G25G02
 -20147153.23847 -15684486.54746  21134272.5634                   21134269.8444
 -19366019.71948 -15075192.61746  20799069.6174                   20799066.2074
 -20737464.66846 -16142738.47743  24116261.3284                   24116258.6254
 -16436499.23048 -12791837.15646  20951872.1954                   20951869.6454
 -19502158.07847 -15179238.30144  22759383.0474                   22759380.6374
  -3653798.81647  -2831518.39545  22764433.3914                   22764434.7074
 -25712497.10948 -20019636.30946  20683275.8054                   20683270.6954
 11  7 26  2 41 30.0000000  0  7G10G12G17G05G04G25G02
 -20133930.72347 -15674183.25846  21136788.6094                   21136785.8524
 -19411293.27048 -15110470.69147  20790454.0784                   20790450.5864
 -20696583.51246 -16110882.97743  24124040.7034                   24124038.1724
 -16526832.88748 -12862226.97346  20934682.6334                   20934680.1134
 -19447913.51247 -15136969.80144  22769705.3524                   22769703.2704
  -3759330.23447  -2913750.58645  22744351.7504                   22744352.3014
 -25722731.54348 -20027611.15646  20681328.0704                   20681322.9614
 11  7 26  2 42  0.0000000  0  7G10G12G17G05G04G25G02
 -20120116.09047 -15663418.58646  21139417.5234                   21139414.9494
 -19455985.61348 -15145295.87947  20781949.6024                   20781946.3754
 -20655513.96947 -16078880.72744  24131855.7664                   24131853.0594
 -16616670.49648 -12932230.26246  20917586.9774                   20917584.2814
 -19393629.07047 -15094670.23044  22780035.3204                   22780033.0234
  -3864464.23847  -2995673.08245  22724345.3984                   22724345.6094
 -25732741.73448 -20035411.28146  20679423.0314                   20679418.3634
 11  7 26  2 42 30.0000000  0  7G10G12G17G05G04G25G02
 -20105711.25047 -15652194.01246  21142158.7344                   21142156.1094
 -19500096.38348 -15179667.88747  20773555.3984                   20773552.2114
 -20614255.91446 -16046731.56644  24139707.3674                   24139703.9924
 -16706010.33248 -13001845.68046  20900585.9144                   20900582.9264
 -19339306.13347 -15052340.65645  22790372.7664                   22790370.8754
  -3969198.72347  -3077284.26645  22704414.7034                   22704414.4454
 -25742529.10248 -20043037.77746  20677560.4384                   20677555.5274
 11  7 26  2 43  0.0000000  0  7G10G12G17G05G04G25G02
 -20090719.01247 -15640511.73046  21145011.5474                   21145009.0204
 -19543625.86748 -15213586.96546  20765271.9774                   20765268.9734
 -20572811.13347 -16014436.92243  24147593.9534                   24147591.3554
 -16794851.72748 -13071072.69146  20883680.3054                   20883677.2464
 -19284947.51247 -15009983.30144  22800717.2114                   22800714.3794
  -4073532.62547  -3158583.28945  22684560.6484                   22684560.6214
 -25752096.44548 -20050492.83646  20675740.1564                   20675734.8404
 11  7 26  2 43 30.0000000  0  7G10G12G17G05G04G25G02
 -20075144.14147 -15628375.44546  21147975.4774                   21147972.6214
 -19586576.03548 -15247054.60946  20757098.9224                   20757095.6414
 -20531182.01247 -15981998.59444  24155515.8364                   24155512.7664
 -16883195.52048 -13139911.96946  20866868.8834                   20866865.8404
 -19230557.18047 -14967601.22344  22811066.8754                   22811064.6214
  -4177466.10947  -3239570.30545  22664782.9774                   22664782.5904
 -25761447.41048 -20057779.27046  20673960.6564                   20673955.3954
 11  7 26  2 44  0.0000000  0  7G10G12G17G05G04G25G02
 -20058987.41047 -15615785.76246  21151050.2424                   21151046.7934
 -19628945.18448 -15280069.52746  20749036.2274                   20749032.9454
 -20489367.73847 -15949416.02743  24163472.0634                   24163469.7304
 -16971038.72748 -13208361.18446  20850152.8054                   20850149.9304
 -19176135.19147 -14925194.46944  22821422.9774                   22821420.4414
  -4280995.66847  -3320242.58645  22645082.1884                   22645081.5274
 -25770581.83248 -20064896.97346  20672222.2034                   20672216.9224
 11  7 26  2 44 30.0000000  0  7G10G12G17G05G04G25G02
 -20042250.73447 -15602744.16846  21154234.4694                   21154231.7074
 -19670732.22748 -15312630.85546  20741084.7504                   20741081.3594
 -20447368.14847 -15916689.04743  24171464.9924                   24171461.8984
 -17058379.48048 -13276418.86746  20833532.0944                   20833529.3714
 -19121682.83647 -14882764.03944  22831785.1174                   22831782.4694
  -4384118.86347  -3400598.22745  22625458.1884                   22625457.2664
 -25779501.30948 -20071847.18746  20670525.0634                   20670519.6484
 11  7 26  2 45  0.0000000  0  7G10G12G17G05G04G25G02
 -20024935.94547 -15589252.09846  21157529.8834                   21157526.5944
 -19711937.08648 -15344738.53146  20733243.4224                   20733240.1994
 -20405183.72746 -15883818.05143  24179491.8914                   24179489.7854
 -17145216.15648 -13344083.76646  20817007.7114                   20817004.9654
 -19067201.73447 -14840311.20344  22842152.4224                   22842150.0944
  -4486833.48848  -3480635.53145  22605912.4614                   22605911.0594
 -25788206.94948 -20078630.78546  20668868.2274                   20668863.2424
 11  7 26  2 45 30.0000000  0  7G10G12G17G05G04G25G02
 -20007043.22747 -15575309.70346  21160934.3524                   21160931.5004
 -19752557.54347 -15376390.82846  20725513.6644                   20725510.3954
 -20362812.76247 -15850801.70344  24187555.1564                   24187552.6844
 -17231545.55148 -13411353.37946  20800579.6414                   20800576.7934
 -19012691.57447 -14797835.71944  22852525.5394                   22852522.5274
  -4589135.76647  -3560351.51245  22586444.6094                   22586443.6334
 -25796698.64548 -20085247.66846  20667252.2114                   20667247.4414
 11  7 26  2 46  0.0000000  0  7G10G12G17G05G04G25G02
 -19988575.75047 -15560919.46146  21164448.4454                   21164445.8634
 -19792594.47347 -15407588.43046  20717895.1884                   20717891.5904
 -20320256.91046 -15817641.27343  24195652.0474                   24195650.5784
 -17317367.14848 -13478227.30546  20784248.5864                   20784245.3094
 -18958155.09047 -14755339.72344  22862903.5084                   22862900.7274
  -4691024.68447  -3639745.40245  22567055.9144                   22567054.9804
 -25804978.68448 -20091699.64146  20665676.9144                   20665671.5824
 11  7 26  2 46 30.0000000  0  8G10G12G17G05G04G29G25G02
 -19969538.53547 -15546085.25846  21168071.4304                   21168068.8984
 -19832049.77047 -15438332.80546  20710387.0314                   20710383.4844
 -20277519.04346 -15784339.03543  24203785.7344                   24203783.6054
 -17402682.06248 -13544706.41446  20768013.5634                   20768010.4454
 -18903596.34047 -14712826.37544  22873285.9534                   22873283.0164
   9292202.87956   7253369.86353  24577580.6954                   24577579.1684
  -4792500.73847  -3718817.59045  22547745.4844                   22547745.1724
 -25813051.12948 -20097989.83646  20664140.6094                   20664135.4654
 11  7 26  2 47  0.0000000  0  8G10G12G17G05G04G29G25G02
 -19949938.05147 -15530812.14146  21171800.7734                   21171798.2234
 -19870927.89847 -15468627.43446  20702988.4224                   20702984.9384
 -20234603.85246 -15750898.62943  24211951.3674                   24211950.2074
 -17487492.68448 -13610792.56646  20751874.6954                   20751871.4614
 -18849021.06247 -14670300.14144  22883670.5554                   22883668.8674
   9183548.17246   7168703.92243  24556904.3594                   24556903.6804
  -4893565.86747  -3797569.57045  22528513.1804                   22528513.1484
 -25820921.40247 -20104122.49246  20662642.5704                   20662637.6214
 11  7 26  2 47 30.0000000  0  8G10G12G17G05G04G29G25G02
 -19929783.30947 -15515107.14146  21175636.2274                   21175633.6914
 -19909235.20348 -15498477.27046  20695699.0314                   20695695.3244
 -20191518.37546 -15717325.55143  24220150.6724                   24220149.6374
 -17571804.84448 -13676490.31246  20735830.5704                   20735827.5944
 -18794437.85247 -14627767.73844  22894057.6254                   22894055.4414
   9074817.49646   7083978.78143  24536213.8444                   24536212.7854
  -4994225.02047  -3876005.22345  22509358.4224                   22509358.3484
 -25828598.22748 -20110104.41446  20661182.4384                   20661176.8594
 11  7 26  2 48  0.0000000  0  8G10G12G17G05G04G29G25G02
 -19909069.56247 -15498966.54746  21179578.2974                   21179575.2814
 -19946964.14148 -15527876.42646  20688519.4844                   20688515.9774
 -20148255.90646 -15683614.54743  24228383.9384                   24228381.2704
 -17655609.84048 -13741792.86746  20719882.9924                   20719879.8364
 -18739840.81247 -14585224.58644  22904447.2424                   22904445.0704
   8966018.53546   6999200.46144  24515509.8984                   24515509.2814
  -5094468.88347  -3954117.27045  22490282.6174                   22490282.4804
 -25836075.71948 -20115931.01246  20659758.9924                   20659753.9104
 11  7 26  2 48 30.0000000  0  8G10G12G17G05G04G29G25G02
 -19887797.55547 -15482390.94146  21183626.1174                   21183622.9804
 -19984113.52748 -15556823.97346  20681449.9774                   20681446.4654
 -20104815.53146 -15649764.91043  24236650.1484                   24236648.0434
 -17738904.84048 -13806698.02046  20704032.5864                   20704029.3714
 -18685230.06247 -14542670.75044  22914838.7114                   22914837.4924
   8857152.64846   6914370.00444  24494793.5084                   24494792.9104
  -5194294.14147  -4031903.14145  22471286.3984                   22471286.3954
 -25843354.12548 -20121602.47746  20658374.0704                   20658368.6214
 11  7 26  2 49  0.0000000  0  8G10G12G17G05G04G29G25G02
 -19865968.89847 -15465381.59046  21187780.1484                   21187777.2274
 -20020681.54347 -15585318.52046  20674491.3134                   20674488.0704
 -20061196.96946 -15615776.41443  24244950.1724                   24244948.1374
 -17821687.88348 -13871204.24646  20688279.4384                   20688276.2114
 -18630606.38346 -14500106.85544  22925233.3984                   22925231.4304
   8748220.85946   6829488.19543  24474063.6724                   24474064.5434
  -5293697.76647  -4109360.47745  22452370.3754                   22452370.5354
 -25850433.57047 -20127118.91446  20657026.7504                   20657021.6804
 11  7 26  2 49 30.0000000  0  8G10G12G17G05G04G29G25G02
 -19843582.98447 -15447938.01646  21192040.0394                   21192037.4184
 -20056665.86747 -15613358.21946  20667643.5004                   20667640.5234
 -20017397.14846 -15581646.67243  24253285.0474                   24253282.6484
 -17903954.42648 -13935308.00446  20672624.3754                   20672621.3054
 -18575968.31646 -14457531.73844  22935630.5554                   22935628.1454
   8639226.14146   6744557.33643  24453322.9694                   24453323.1334
  -5392674.94147  -4186485.51245  22433535.9844                   22433535.8164
 -25857312.65647 -20132479.21946  20655718.0634                   20655712.7194
 11  7 26  2 50  0.0000000  0  8G10G12G17G05G04G29G25G02
 -19820641.07047 -15430061.19146  21196405.5004                   21196402.6174
 -20092065.16447 -15640942.06246  20660907.4924                   20660904.1054
 -19973415.82046 -15547375.50844  24261654.4144                   24261652.6134
 -17985702.24648 -13999007.56246  20657067.9774                   20657064.9844
 -18521316.23046 -14414945.70344  22946030.8914                   22946028.7774
   8530169.88746   6659578.53944  24432570.7194                   24432569.9734
  -5491222.45347  -4263275.74645  22414783.0234                   22414783.1024
 -25863991.95347 -20137683.85246  20654446.9454                   20654441.6524
 11  7 26  2 50 30.0000000  0  8G10G12G17G05G04G29G25G02
 -19797143.62147 -15411751.47746  21200877.2114                   21200873.9964
 -20126877.29347 -15668068.37146  20654283.1174                   20654279.4964
 -19929251.66847 -15512961.86744  24270058.8754                   24270056.7894
 -18066927.80148 -14062300.16047  20641611.5314                   20641608.4964
 -18466649.95346 -14372348.62944  22956433.5314                   22956431.0984
   8421054.17646   6574553.38344  24411806.6414                   24411805.8554
  -5589336.60547  -4339728.28145  22396112.1884                   22396112.2464
 -25870470.90648 -20142732.37146  20653214.1484                   20653208.7114
 11  7 26  2 51  0.0000000  0  8G10G12G17G05G04G29G25G02
 -19773090.92247 -15393009.10246  21205454.3674                   21205451.5164
 -20161100.14848 -15694735.50446  20647770.5164                   20647767.0984
 -19884902.98047 -15478404.41844  24278498.1724                   24278495.6604
 -18147627.71948 -14125183.16846  20626254.8204                   20626251.7074
 -18411968.69146 -14329739.86744  22966838.8134                   22966836.4064
   8311881.23446   6489483.64843  24391031.3524                   24391030.8364
  -5687013.16047  -4415839.83645  22377525.2424                   22377524.8794
 -25876748.98848 -20147624.37146  20652019.1484                   20652014.0124
 11  7 26  2 51 30.0000000  0  8G10G12G17G05G04G29G25G02
 -19748486.34447 -15373836.68446  21210136.2894                   21210133.0864
 -20194734.89848 -15720944.37946  20641369.9534                   20641366.7234
 -19840370.92647 -15443704.07844  24286972.2974                   24286969.6644
 -18227801.82048 -14187656.46546  20610998.1804                   20610995.1254
 -18357274.58647 -14287121.08244  22977246.9144                   22977244.6374
   8202650.47746   6404368.84043  24370246.5234                   24370243.9184
  -5784251.00847  -4491609.53145  22359021.1094                   22359021.1134
 -25882828.25448 -20152361.44146  20650862.3364                   20650857.1374
 11  7 26  2 52  0.0000000  0  8G10G12G17G05G04G29G25G02
 -19723331.70347 -15354235.65246  21214923.0234                   21214919.9344
 -20227780.62148 -15746694.27746  20635081.6334                   20635078.1884
 -19795655.41847 -15408860.77743  24295481.5634                   24295479.2274
 -18307448.14148 -14249718.49246  20595841.8754                   20595838.8204
 -18302568.42246 -14244492.89844  22987657.3284                   22987654.6254
   8093362.81346   6319209.69543  24349449.0004                   24349446.8874
  -5881047.53947  -4567035.34045  22340601.1174                   22340601.5124
 -25888709.59447 -20156944.28546  20649743.0474                   20649738.1564
 11  7 26  2 52 30.0000000  0  8G10G12G17G05G04G29G25G02
 -19697629.43747 -15334207.89146  21219814.1174                   21219810.5824
 -20260237.27748 -15771985.15646  20628905.1884                   20628901.7624
 -19750756.91447 -15373874.86743  24304025.3754                   24304022.1954
 -18386565.39848 -14311368.26646  20580786.3754                   20580783.0664
 -18247851.95347 -14201856.67244  22998068.9224                   22998066.6844
   7984018.13346   6234006.14143  24328641.5394                   24328639.6954
  -5977400.93047  -4642115.84445  22322265.4924                   22322265.9224
 -25894394.41848 -20161373.99246  20648661.4774                   20648656.0234
 11  7 26  2 53  0.0000000  0  8G10G12G17G05G04G29G25G02
 -19671380.85547 -15313754.42646  21224808.7584                   21224805.9024
 -20292103.79748 -15796816.18746  20622840.9694                   20622837.9414
 -19705674.74647 -15338745.90243  24312604.5474                   24312601.0634
 -18465151.27348 -14372603.97346  20565832.0164                   20565829.0514
 -18193125.19546 -14159212.42644  23008483.4064                   23008481.0554
   7874618.00046   6148759.39543  24307823.7664                   24307821.0004
  -6073308.09847  -4716848.64845  22304014.8914                   22304015.0474
 -25899883.07448 -20165650.85546  20647616.8834                   20647611.1804
 11  7 26  2 53 30.0000000  0  8G10G12G17G05G04G29G25G02
 -19644588.02747 -15292876.86746  21229907.3594                   21229904.1954
 -20323380.11747 -15821187.33246  20616889.4534                   20616885.9924
 -19660408.87146 -15303473.72743  24321217.7034                   24321215.1214
 -18543204.40648 -14433424.55146  20550979.0864                   20550975.9144
 -18138389.37547 -14116561.11344  23018899.5234                   23018896.4064
   7765163.19546   6063470.01243  24286994.9384                   24286993.1094
  -6168766.60247  -4791231.85546  22285849.9774                   22285849.2234
 -25905176.45348 -20169775.53946  20646610.1094                   20646604.5634
 11  7 26  2 54  0.0000000  0  8G10G12G17G05G04G29G25G02
 -19617254.52047 -15271578.00045  21235108.4614                   21235105.5434
 -20354067.42247 -15845099.50446  20611050.1254                   20611046.0084
 -19614960.79346 -15268059.60243  24329866.1174                   24329863.6214
 -18620724.45748 -14493829.75446  20536227.2814                   20536224.3484
 -18083647.05946 -14073904.75444  23029316.1644                   23029314.2464
   7655652.80546   5978137.27043  24266156.3204                   24266153.9574
  -6263775.77347  -4865264.94545  22267770.3834                   22267769.9654
 -25910277.29748 -20173750.19946  20645639.0084                   20645633.8204
 11  7 26  2 54 30.0000000  0  8G10G12G17G05G04G29G25G02
 -18013961.94547 -14022259.08246  21540205.2814                   21540201.9884
 -18808742.56247 -14640950.25046  20905115.4694                   20905112.0554
 -17993911.09846 -14004903.93043  24638341.4304                   24638339.0124
 -17122286.07448 -13326215.39846  20821370.6094                   20821367.4734
 -16453479.30546 -12803644.17644  23339527.3674                   23339524.5944
   9121512.56647   7120365.72743  24545099.8674                   24545098.8674
  -4782908.55147  -3711342.41845  22549570.3594                   22549569.3594
 -24339764.53148 -18949973.99646  20944497.3984                   20944492.5274
 11  7 26  2 55  0.0000000  0  8G10G12G17G05G04G29G25G02
 -17985550.65647 -14000120.38745  21545611.7114                   21545608.4024
 -18838247.54748 -14663941.12946  20899501.0474                   20899497.1954
 -17948096.85946 -13969204.49243  24647059.5084                   24647057.1374
 -17198732.69548 -13385784.16046  20806823.4694                   20806820.1564
 -16398723.65247 -12760977.44144  23349947.0864                   23349943.8794
   9011895.85547   7034950.18043  24524240.2424                   24524239.6454
  -4877009.10547  -3784667.50445  22531663.2734                   22531662.3014
 -24344479.91448 -18953648.30146  20943599.9304                   20943594.7344
 11  7 26  2 55 30.0000000  0  7G10G12G05G04G29G25G02
 -17956605.46147 -13977565.68045  21551119.4924                   21551116.2504
 -18867162.78148 -14686472.46946  20893998.5634                   20893994.9104
 -17274641.68748 -13444933.98046  20792378.6024                   20792375.1214
 -16343964.62946 -12718308.08644  23360367.0634                   23360364.7424
   8902225.17247   6949492.58644  24503369.5474                   24503369.4184
  -4970653.57447  -3857637.20345  22513843.4224                   22513842.7304
 -24349005.74648 -18957174.89546  20942738.9924                   20942733.7274
 11  7 26  2 56  0.0000000  0  7G10G12G05G04G29G25G02
 -17927125.53547 -13954594.27345  21556728.8284                   21556725.7504
 -18895485.35248 -14708541.98846  20888608.7034                   20888605.2814
 -17350009.10548 -13503661.80946  20778036.3134                   20778033.2384
 -16289200.38347 -12675634.65644  23370788.1024                   23370785.9734
   8792504.26647   6863995.84044  24482490.5554                   24482490.1524
  -5063836.89547  -3930247.56645  22496111.3284                   22496110.6644
 -24353340.24648 -18960552.41046  20941914.0784                   20941908.6644
 11  7 26  2 56 30.0000000  0  7G10G12G05G04G29G25G02
 -17897107.06647 -13931203.24645  21562441.7974                   21562438.7934
 -18923208.92648 -14730144.76246  20883333.0084                   20883329.2424
 -17424827.48048 -13561961.79346  20763798.9144                   20763795.8984
 -16234425.73446 -12632953.12544  23381210.8984                   23381209.7854
   8682739.84047   6778465.17244  24461602.9924                   24461601.8954
  -5156550.75047  -4002492.10245  22478468.7424                   22478467.8324
 -24357478.27048 -18963776.80946  20941126.4774                   20941121.2934
 11  7 26  2 57  0.0000000  0  7G10G12G05G04G29G25G02
 -17866547.87147 -13907390.85545  21568256.7194                   21568253.4924
 -18950328.56648 -14751276.93046  20878172.5004                   20878168.9454
 -17499090.69948 -13619829.20347  20749667.0474                   20749664.1134
 -16179637.15247 -12590260.72344  23391637.2584                   23391635.4304
   8572937.03947   6692904.60244  24440708.1644                   24440706.8794
  -5248788.39547  -4074365.55945  22460916.4064                   22460915.9304
 -24361416.53548 -18966845.56646  20940377.1174                   20940372.3554
 11  7 26  2 57 30.0000000  0  7G10G12G05G04G29G25G02
 -17835451.93747 -13883160.23445  21574174.3204                   21574171.1884
 -18976846.41447 -14771940.17646  20873126.1094                   20873122.5084
 -17572799.12148 -13677264.29747  20735640.8054                   20735637.3874
 -16124837.31246 -12547559.56244  23402065.1804                   23402063.6564
   8463094.86747   6607313.38344  24419805.5084                   24419804.1724
  -5340549.30148  -4145867.52046  22443454.6884                   22443454.5314
 -24365157.44948 -18969760.53546  20939665.1334                   20939660.0904
 11  7 26  2 58  0.0000000  0  7G10G12G05G04G29G25G02
 -17803824.92247 -13858515.78146  21580192.7894                   21580189.3444
 -19002764.85247 -14792136.34847  20868194.1954                   20868190.8984
 -17645954.72348 -13734268.62146  20721719.7034                   20721716.5164
 -16070030.30547 -12504852.81244  23412494.7814                   23412492.3914
   8353210.82447   6521689.50444  24398895.5164                   24398893.1804
  -5431834.55948  -4216998.84446  22426083.6094                   22426083.3554
 -24368705.51248 -18972525.24246  20938990.0394                   20938985.1134
 11  7 26  2 58 30.0000000  0  7G10G12G05G04G29G25G02
 -17771672.84047 -13833462.18745  21586310.9144                   21586307.6024
 -19028088.73047 -14811869.22746  20863375.1484                   20863371.4344
 -17718560.02748 -13790844.14547  20707903.1484                   20707900.0664
 -16015221.12147 -12462144.36744  23422925.0634                   23422923.0274
   8243281.47347   6436030.34044  24377976.5004                   24377974.1524
  -5522645.97748  -4287760.92246  22408803.1804                   22408802.9774
 -24372065.57448 -18975143.45346  20938350.6024                   20938345.5394
 11  7 26  2 59  0.0000000  0  7G10G12G05G04G29G25G02
 -17738998.27347 -13808001.47345  21592528.5944                   21592525.3324
 -19052818.07848 -14831138.83646  20858669.4224                   20858665.8164
 -17790614.15648 -13846990.18047  20694191.7274                   20694188.6804
 -15960410.91447 -12419435.11344  23433355.0864                   23433352.7344
   8133307.44147   6350336.30944  24357049.6564                   24357046.4144
  -5612981.56248  -4358152.21546  22391612.8674                   22391612.5274
 -24375238.83248 -18977616.09846  20937746.4844                   20937741.2894
 11  7 26  2 59 30.0000000  0  7G10G12G05G04G29G25G02
 -17705805.19947 -13782136.73846  21598845.2424                   21598842.0394
 -19076954.21948 -14849946.20746  20854076.3984                   20854072.7074
 -17862117.00048 -13902706.64147  20680585.3914                   20680581.9654
 -15905602.15647 -12376726.95344  23443784.5394                   23443782.4384
   8023288.10547   6264606.97344  24336113.0784                   24336110.6914
  -5702840.76247  -4428172.30146  22374512.3754                   22374512.8834
 -24378227.61748 -18979945.02046  20937178.0474                   20937172.9184
 11  7 26  3  0  0.0000000  0  7G10G12G05G04G29G25G02
 -17672098.52347 -13755871.77045  21605259.3834                   21605256.1644
 -19100499.69548 -14868293.30546  20849595.7504                   20849592.2894
 -17933069.76648 -13957994.47347  20667083.6174                   20667080.2194
 -15850798.39847 -12334022.69944  23454213.2504                   23454211.0354
   7913221.53546   6178840.84044  24315168.0554                   24315166.2034
  -5792224.10547  -4497821.57446  22357503.9304                   22357503.3244
 -24381035.77748 -18982133.17646  20936643.6644                   20936638.2234
 11  7 26  3  0 30.0000000  0  7G10G12G05G04G29G25G02
 -17637879.60247 -13729207.66046  21611770.8284                   21611768.0984
 -19123453.57048 -14886179.42646  20845227.5944                   20845224.5824
 -18003470.31648 -14012852.00847  20653686.6564                   20653683.3404
 -15795999.34447 -12291322.12144  23464641.4924                   23464638.8204
   7803109.37546   6093039.16443  24294214.2894                   24294213.0164
  -5881128.22747  -4567097.44145  22340585.3444                   22340585.2894
 -24383663.01648 -18984180.35546  20936143.7114                   20936138.7934
 11  7 26  3  1  0.0000000  0  7G10G12G05G04G29G25G02
 -17603152.93747 -13702147.89845  21618379.5084                   21618375.6644
 -19145818.36748 -14903606.52046  20840972.0554                   20840968.3404
 -18073319.90648 -14067280.21947  20640394.5634                   20640391.1174
 -15741208.50447 -12248627.93044  23475067.8364                   23475065.0984
   7692950.01646   6007200.73443  24273251.7344                   24273250.6484
  -5969553.58247  -4636000.23845  22323758.5944                   22323757.6374
 -24386112.71548 -18986089.19146  20935677.4384                   20935672.8164
 11  7 26  3  1 30.0000000  0  7G10G12G05G04G29G25G02
 -17567920.48047 -13674694.02045  21625083.6564                   21625080.4104
 -19167593.47748 -14920574.10546  20836828.0084                   20836824.6764
 -18142617.12948 -14121278.02347  20627207.4384                   20627204.5234
 -15686426.19147 -12205940.37143  23485492.1724                   23485489.8094
   7582744.70346   5921326.50443  24252279.9384                   24252279.3594
  -6057497.70747  -4704528.07045  22307022.9694                   22307022.1254
 -24388385.82448 -18987860.41446  20935244.7584                   20935239.7704
 11  7 26  3  2  0.0000000  0  7G10G12G05G04G29G25G02
 -17532185.14547 -13646848.28945  21631883.8914                   21631880.7384
 -19188779.63348 -14937082.77346  20832796.5634                   20832793.4064
 -18211361.01648 -14174844.65647  20614126.1334                   20614122.6844
 -15631653.84847 -12163260.57844  23495914.7274                   23495912.5004
   7472493.77346   5835416.73444  24231299.5864                   24231299.0474
  -6144958.81247  -4772679.53145  22290379.9304                   22290378.8244
 -24390483.18448 -18989494.70346  20934845.7114                   20934840.6134
 11  7 26  3  2 30.0000000  0  7G10G12G05G04G29G25G02
 -17495950.39548 -13618613.40245  21638779.3444                   21638775.8874
 -19209377.99648 -14953133.42646  20828876.7424                   20828873.5394
 -18279551.37948 -14227979.96547  20601150.2274                   20601146.7544
 -15576893.31247 -12120589.97744  23506335.5164                   23506332.8714
   7362197.02346   5749471.29344  24210312.0944                   24210310.6804
  -6231935.86347  -4840453.82046  22273828.9224                   22273827.8834
 -24392406.93448 -18990993.69546  20934479.6334                   20934474.7624
 11  7 26  3  3  0.0000000  0  7G10G12G05G04G29G25G02
 -17459217.83248 -13589990.61345  21645769.2584                   21645765.7074
 -19229388.69148 -14968726.15246  20825068.8754                   20825065.4964
 -18347186.30948 -14280682.47747  20588278.8984                   20588276.0864
 -15522144.58647 -12077928.57843  23516753.0704                   23516751.0394
   7251856.01646   5663491.37544  24189314.5234                   24189314.2814
  -6318426.15247  -4907848.82445  22257370.4614                   22257368.9414
 -24394157.25848 -18992357.55946  20934146.8444                   20934141.4804
 11  7 26  3  3 30.0000000  0  7G10G12G05G04G29G25G02
 -17421988.50447 -13560980.73045  21652853.3914                   21652850.5474
 -19248809.46148 -14983859.18746  20821373.4384                   20821369.7274
 -18414263.20348 -14332950.14847  20575515.3284                   20575511.6334
 -15467406.78546 -12035275.69543  23527169.6094                   23527168.0434
   7141473.20746   5577478.93044  24168309.1254                   24168308.4774
  -6404425.97748  -4974861.63746  22241005.3054                   22241003.5594
 -24395733.51648 -18993585.78146  20933846.5784                   20933841.4734
 11  7 26  3  4  0.0000000  0  7G10G12G05G04G29G25G02
 -17384265.50447 -13531586.18445  21660031.9224                   21660028.7464
 -19267641.48448 -14998533.47346  20817789.5084                   20817785.9144
 -18480781.72748 -14384782.73047  20562857.0864                   20562853.6094
 -15412681.79746 -11992632.79744  23537584.1804                   23537581.1724
   7031048.62946   5491433.93043  24147295.6644                   24147295.4064
  -6489934.20348  -5041491.40246  22224733.4064                   22224732.1094
 -24397137.62948 -18994679.86746  20933579.2114                   20933574.1914
 11  7 26  3  4 30.0000000  0  7G10G12G05G04G29G25G02
 -17346053.78147 -13501810.79745  21667303.3594                   21667300.1914
 -19285887.41448 -15012751.04746  20814317.5864                   20814313.9774
 -18546743.00848 -14436181.09847  20550304.6644                   20550301.7304
 -15357972.79746 -11950002.35244  23547994.2114                   23547991.7974
   6920580.83246   5405355.27044  24126274.8984                   24126273.7424
  -6574951.02748  -5107738.25846  22208555.3914                   22208554.1294
 -24398372.84448 -18995642.35246  20933344.5004                   20933339.2034
 11  7 26  3  5  0.0000000  0  7G10G12G05G04G29G25G02
 -17307352.37148 -13471653.84045  21674668.0864                   21674664.8594
 -19303544.45748 -15026509.75046  20810957.5314                   20810954.1724
 -18612142.43748 -14487141.64547  20537860.0314                   20537856.6294
 -15303276.93046 -11907382.14844  23558402.8754                   23558400.3054
   6810074.01246   5319246.22744  24105245.4924                   24105245.2584
  -6659471.05947  -5173597.98846  22192471.2584                   22192470.7584
 -24399436.37948 -18996471.04746  20933141.7814                   20933136.4804
 11  7 26  3  5 30.0000000  0  7G10G12G05G04G29G25G02
 -17268163.65247 -13441117.16445  21682125.5864                   21682122.5704
 -19320612.78948 -15039809.72346  20807709.4064                   20807705.8754
 -18676979.22348 -14537663.78147  20525521.7114                   20525518.5124
 -15248595.21146 -11864772.96544  23568808.3444                   23568805.9414
   6699528.86746   5233107.34444  24084209.7114                   24084209.0634
  -6743492.44147  -5239069.16446  22176482.7274                   22176482.2974
 -24400329.38748 -18997166.87546  20932972.1174                   20932966.5744
 11  7 26  3  6  0.0000000  0  7G10G12G05G04G29G25G02
 -17228491.68448 -13410203.92245  21689674.5084                   21689671.7464
 -19337094.12948 -15052652.29347  20804572.9614                   20804569.6954
 -18741254.18748 -14587748.12547  20513290.7814                   20513287.1564
 -15193930.00846 -11822176.65244  23579210.8984                   23579208.5124
   6588944.85946   5146938.18844  24063165.6644                   24063165.2074
  -6827014.76647  -5304151.45746  22160588.8834                   22160588.2504
 -24401054.38748 -18997731.78546  20932834.0164                   20932828.7384
 11  7 26  3  6 30.0000000  0  7G10G12G05G04G29G25G02
 -17188336.75847 -13378914.35545  21697315.9844                   21697312.7894
 -19352986.74248 -15065036.12546  20801548.9064                   20801545.2344
 -18804963.90648 -14637392.02747  20501167.1884                   20501163.6374
 -15139279.86747 -11779592.09044  23589610.3444                   23589608.3714
   6478324.84046   5060741.00044  24042114.7894                   24042115.2234
  -6910034.01648  -5368841.72746  22144790.8364                   22144790.6484
 -24401609.99648 -18998164.70746  20932728.2504                   20932723.1374
 11  7 26  3  7  0.0000000  0  7G10G12G05G04G29G25G02
 -17147703.03947 -13347251.70745  21705048.0944                   21705045.1254
 -19368292.64848 -15076962.78946  20798636.6564                   20798632.7424
 -18868109.07848 -14686596.01647  20489150.6804                   20489147.7504
 -15084647.28547 -11737021.19144  23600006.7584                   23600004.6764
   6367668.28546   4974515.33644  24021057.1804                   24021057.2664
  -6992549.66847  -5433139.59446  22129088.6644                   22129088.1334
 -24401998.79748 -18998467.66046  20932654.1884                   20932649.1334
 11  7 26  3  7 30.0000000  0  7G10G12G05G04G29G25G02
 -17106590.65647 -13315216.07045  21712871.7974                   21712868.2384
 -19383010.00448 -15088430.85546  20795835.6724                   20795832.1334
 -18930686.44948 -14735357.56247  20477243.0234                   20477239.6644
 -15030030.41447 -11694462.55144  23610400.3834                   23610397.9694
   6256978.50446   4888263.77043  23999993.2034                   23999993.2304
  -7074557.46948  -5497041.72346  22113482.9774                   22113482.6994
 -24402219.10248 -18998639.30946  20932612.5864                   20932606.8914
 11  7 26  3  8  0.0000000  0  7G10G12G05G04G29G25G02
 -17065004.04747 -13282810.90245  21720785.3284                   21720782.0824
 -19397140.77048 -15099441.82846  20793146.4454                   20793143.2894
 -18992696.94148 -14783677.39147  20465442.6024                   20465439.5634
 -14975432.01247 -11651918.32844  23620789.7194                   23620787.0274
   6146254.37546   4801985.44543  23978923.7274                   23978922.9614
  -7156057.44948  -5560548.14846  22097974.4144                   22097973.5164
 -24402273.70747 -18998681.84846  20932602.3834                   20932596.4534
 11  7 26  3  8 30.0000000  0  7G10G12G05G04G29G25G02
 -17022944.43448 -13250037.16845  21728789.0004                   21728785.8284
 -19410684.14548 -15109995.10546  20790569.5164                   20790565.9534
 -19054138.23848 -14831553.69147  20453750.7664                   20453747.2304
 -14920851.49647 -11609388.02344  23631175.8284                   23631173.8444
   6035497.96946   4715681.92244  23957846.7814                   23957846.3164
  -7237046.42248  -5623656.39546  22082562.6564                   22082562.1684
 -24402162.46148 -18998595.14146  20932623.0314                   20932618.1134
 11  7 26  3  9  0.0000000  0  7G10G12G05G04G29G25G02
 -16980414.78147 -13216897.15245  21736882.4844                   21736879.1764
 -19423641.50448 -15120091.75046  20788103.6954                   20788100.3134
 -19115009.93047 -14878986.14147  20442167.2114                   20442163.9534
 -14866290.09847 -11566872.62143  23641558.5164                   23641555.8404
   5924709.68047   4629353.57044  23936764.8134                   23936764.0314
  -7317522.87548  -5686365.26646  22067248.3754                   22067247.7504
 -24401886.08647 -18998379.77046  20932675.6254                   20932670.2934
 11  7 26  3  9 30.0000000  0  7G10G12G05G04G29G25G02
 -16937419.97348 -13183394.68045  21745063.6884                   21745060.7464
 -19436015.03548 -15129733.46146  20785749.0394                   20785745.6134
 -19175313.16448 -14925975.64547  20430691.6724                   20430688.4304
 -14811750.41047 -11524374.12544  23651936.3754                   23651934.5944
   5813888.92247   4542999.89544  23915676.4454                   23915675.0234
  -7397487.03548  -5748674.95746  22052031.3204                   22052030.8164
 -24401448.00848 -18998038.39546  20932759.0554                   20932753.7624
 11  7 26  3 10  0.0000000  0  7G10G12G05G04G29G25G02
 -16893960.82448 -13149530.38745  21753333.7274                   21753330.6564
 -19447803.57448 -15138919.34046  20783505.7584                   20783502.2384
 -19235045.94548 -14972520.62947  20419325.1644                   20419321.6094
 -14757231.61347 -11481891.91443  23662311.2424                   23662309.2154
   5703037.93446   4456622.66844  23894582.1334                   23894580.6524
  -7476935.61748  -5810582.89146  22036912.8834                   22036912.5474
 -24400847.58648 -18997570.52346  20932873.1644                   20932867.9344
 11  7 26  3 10 30.0000000  0  7G10G12G05G04G29G25G02
 -16850041.21148 -13115307.28145  21761691.5004                   21761688.1374
 -19459009.29348 -15147651.06646  20781373.4614                   20781369.6334
 -19294208.28548 -15018621.12947  20408066.3984                   20408063.2274
 -14702735.71547 -11439427.56643  23672681.3204                   23672679.6214
   5592156.36747   4370221.59444  23873481.6024                   23873480.1374
  -7555867.98848  -5872088.59046  22021892.3134                   22021891.9064
 -24400086.57448 -18996977.53146  20933018.0164                   20933012.7664
 11  7 26  3 11  0.0000000  0  7G10G12G05G04G29G25G02
 -16805664.36347 -13080727.88345  21770135.7344                   21770132.7584
 -19469633.20348 -15155929.44946  20779351.7734                   20779348.1994
 -19352800.02047 -15064276.99647  20396917.0784                   20396913.7934
 -14648263.80547 -11396981.88744  23683047.2344                   23683044.9104
   5481244.89147   4283797.20344  23852376.2734                   23852374.0204
  -7634282.88348  -5933191.05546  22006970.3594                   22006969.9574
 -24399166.44947 -18996260.54346  20933193.2814                   20933187.7034
 11  7 26  3 11 30.0000000  0  7G10G12G05G04G29G25G02
 -16760833.10248 -13045794.41845  21778667.1484                   21778664.0204
 -19479675.72748 -15163754.79346  20777440.9384                   20777437.1914
 -19410820.77348 -15109487.94947  20385876.0634                   20385872.6914
 -14593816.89847 -11354555.71543  23693408.1334                   23693406.1414
   5370304.23847   4197350.06644  23831264.8594                   23831262.3364
  -7712178.67648  -5993889.03546  21992147.3984                   21992146.7234
 -24398088.28948 -18995420.41046  20933398.2034                   20933393.0124
 11  7 26  3 12  0.0000000  0  7G10G12G05G04G29G25G02
 -16715549.40648 -13010508.41445  21787284.1484                   21787281.0124
 -19489137.34048 -15171127.48846  20775640.3134                   20775636.5634
 -19468269.11347 -15154252.85947  20374943.8754                   20374940.6254
 -14539395.19547 -11312149.18443  23703764.3754                   23703761.8714
   5259335.95746   4110881.42244  23810147.7814                   23810146.0434
  -7789553.22748  -6054180.85246  21977423.5784                   21977422.9024
 -24396852.30147 -18994457.30546  20933633.6414                   20933628.0084
 11  7 26  3 12 30.0000000  0  7G10G12G05G04G29G25G02
 -16669818.12147 -12974873.62945  21795986.2734                   21795983.4654
 -19498020.82448 -15178049.68746  20773949.7814                   20773946.1884
 -19525146.52348 -15198572.89147  20364120.3594                   20364116.9144
 -14485001.27347 -11269764.29344  23714114.8754                   23714113.2504
   5148338.66846   4024390.15644  23789025.2734                   23789024.1094
  -7866406.81648  -6114066.71146  21962798.6954                   21962797.9734
 -24395461.73048 -18993373.73446  20933898.0474                   20933892.8484
 11  7 26  3 13  0.0000000  0  7G10G12G05G04G29G25G02
 -16623639.90247 -12938890.60545  21804774.0474                   21804770.9064
 -19506324.99248 -15184520.46946  20772369.5784                   20772365.9774
 -19581450.85948 -15242446.37147  20353406.0554                   20353402.4924
 -14430634.21547 -11227400.32844  23724461.1174                   23724458.4304
   5037315.21946   3937878.49244  23767898.1024                   23767897.1374
  -7942735.92648  -6173543.91046  21948273.6724                   21948272.7154
 -24393915.19548 -18992168.63746  20934192.5554                   20934187.3554
 11  7 26  3 13 30.0000000  0  7G10G12G05G04G29G25G02
 -16577016.90247 -12902560.98845  21813646.0234                   21813643.0744
 -19514049.80148 -15190539.79746  20770899.5784                   20770896.2034
 -19637180.17248 -15285871.78147  20342801.3594                   20342797.5314
 -14376293.60246 -11185056.97743  23734801.7974                   23734799.0744
   4926267.79346   3851348.12944  23746766.9614                   23746766.0274
  -8018538.07448  -6232610.47346  21933848.9924                   21933848.4414
 -24392212.84448 -18990842.10946  20934516.4774                   20934510.9844
 11  7 26  3 14  0.0000000  0  7G10G12G05G04G29G25G02
 -16529952.15248 -12865887.14145  21822602.2584                   21822599.0204
 -19521196.15648 -15196108.37946  20769539.7974                   20769536.3794
 -19692334.71948 -15328849.32847  20332305.4304                   20332302.0274
 -14321980.63746 -11142735.16443  23745137.2974                   23745134.6294
   4815196.60546   3764799.22744  23725630.7974                   23725630.1374
  -8093812.17248  -6291265.57446  21919525.1414                   21919523.9844
 -24390356.15648 -18989395.32046  20934869.8364                   20934864.5554
 11  7 26  3 14 30.0000000  0  7G10G12G05G04G29G25G02
 -16482448.39847 -12828871.22345  21831641.6254                   21831638.6254
 -19527765.67648 -15201227.47746  20768289.7344                   20768286.1564
 -19746914.03948 -15371378.64147  20321919.6954                   20321915.9414
 -14267696.47346 -11100435.81643  23755466.9304                   23755463.9694
   4704102.44146   3678232.40244  23704490.4224                   23704489.6684
  -8168556.72348  -6349508.04346  21905301.6174                   21905300.5664
 -24388346.10548 -18987829.02046  20935252.2274                   20935246.7544
 11  7 26  3 15  0.0000000  0  7G10G12G05G04G29G25G02
 -16434508.55947 -12791515.49245  21840764.4384                   21840761.6254
 -19533759.02748 -15205897.61746  20767149.1334                   20767145.8484
 -19800917.42648 -15413459.17247  20311642.9454                   20311639.5514
 -14213441.48046 -11058159.19544  23765790.6484                   23765789.2704
   4592986.48847   3591648.59844  23683346.1094                   23683344.9774
  -8242770.00448  -6407336.53546  21891179.3444                   21891178.5044
 -24386183.52348 -18986143.86346  20935663.6564                   20935658.2464
 11  7 26  3 15 30.0000000  0  7G10G12G05G04G29G25G02
 -16386134.21547 -12753821.18745  21849969.9064                   21849966.5434
 -19539175.98048 -15210118.61346  20766118.4144                   20766115.1484
 -19854343.60948 -15455089.93047  20301476.2344                   20301472.6524
 -14159215.32846 -11015905.04743  23776109.9844                   23776107.7274
   4481850.44946   3505049.13344  23662197.3754                   23662196.0944
  -8316449.63748  -6464749.20746  21877158.3594                   21877156.9224
 -24383868.18448 -18984339.67246  20936104.2274                   20936098.5274
 11  7 26  3 16  0.0000000  0  7G10G12G05G04G29G25G02
 -16337328.36347 -12715790.64545  21859257.0474                   21859253.8954
 -19544017.37948 -15213891.12946  20765197.1254                   20765193.4884
 -19907191.96148 -15496270.43747  20291419.1804                   20291416.1954
 -14105018.85946 -10973674.02743  23786423.0704                   23786420.8954
   4370695.57847   3418434.99644  23641045.3204                   23641044.2304
  -8389594.00848  -6521744.78546  21863239.6174                   21863238.3364
 -24381400.91048 -18982417.09046  20936573.9384                   20936568.2854
 11  7 26  3 16 30.0000000  0  7G10G12G05G04G29G25G02
 -16288093.30947 -12677425.66045  21868626.0944                   21868622.8874
 -19548283.82048 -15217215.60946  20764385.3204                   20764381.6094
 -19959462.14148 -15537000.41847  20281472.9924                   20281469.6054
 -14050852.41046 -10931466.40244  23796730.5864                   23796728.6174
   4259523.22346   3331807.24244  23619890.1024                   23619888.4964
  -8462201.32048  -6578321.88346  21849422.7424                   21849421.6054
 -24378782.39848 -18980376.65646  20937072.0004                   20937066.3524
 11  7 26  3 17  0.0000000  0  7G10G12G05G04G29G25G02
 -16238434.47347 -12638730.45745  21878076.0554                   21878072.8324
 -19551978.80948 -15220094.80946  20763682.1334                   20763678.7664
 -20011155.49648 -15577280.92647  20271635.8674                   20271632.4654
 -13996718.82047 -10889284.38344  23807031.9694                   23807030.0664
   4148331.81646   3245164.64844  23598730.6094                   23598727.9064
  -8534272.50448  -6634481.22346  21835707.9614                   21835706.6294
 -24376015.93748 -18978220.93046  20937598.3984                   20937592.9804
 11  7 26  3 17 30.0000000  0  7G10G12G05G04G29G25G02
 -16188352.51247 -12599705.53945  21887606.7194                   21887603.4344
 -19555101.54748 -15222528.10546  20763087.8054                   20763083.9384
 -20062270.11748 -15617110.47347  20261909.1414                   20261905.7034
 -13942616.98447 -10847127.11343  23817327.4304                   23817325.3524
   4037124.39546   3158509.58244  23577568.0234                   23577565.1094
  -8605804.17648  -6690220.16846  21822095.9304                   21822094.7274
 -24373100.19548 -18975948.88746  20938153.0704                   20938147.6644
 11  7 26  3 18  0.0000000  0  7G10G12G05G04G29G25G02
 -16137851.52047 -12560354.09445  21897216.5474                   21897213.3714
 -19557654.35948 -15224517.29746  20762601.8984                   20762598.4264
 -20112807.18047 -15656489.96547  20252292.1564                   20252288.9654
 -13888548.94546 -10804996.18444  23827616.4384                   23827613.9494
   3925900.52046   3071841.71944  23556402.5004                   23556399.4694
  -8676796.32048  -6745538.69946  21808586.3754                   21808585.6094
 -24370037.68048 -18973562.46946  20938735.9384                   20938730.4694
 11  7 26  3 18 30.0000000  0  7G10G12G05G04G29G25G02
 -16086931.82047 -12520676.37545  21906906.1024                   21906902.8594
 -19559635.45348 -15226060.99246  20762225.0784                   20762221.1884
 -20162763.80547 -15695417.17247  20242785.7504                   20242782.1684
 -13834512.65246 -10762889.95743  23837899.5554                   23837896.5164
   3814663.83246   2985163.86744  23535235.1254                   23535230.8754
  -8747244.87148  -6800433.65646  21795180.7974                   21795179.7704
 -24366826.40248 -18971060.14146  20939346.8754                   20939341.7734
 11  7 26  3 19  0.0000000  0  7G10G12G05G04G29G25G02
 -16035597.80547 -12480675.83245  21916674.9774                   21916671.2304
 -19561047.60548 -15227161.36746  20761956.0084                   20761952.6954
 -20212141.12948 -15733892.98047  20233389.4144                   20233386.0634
 -13780510.30946 -10720810.19143  23848175.5784                   23848172.9414
   3703413.96546   2898475.75444  23514065.4924                   23514060.6484
  -8817150.03948  -6854905.19146  21781878.0084                   21781877.0274
 -24363468.98048 -18968443.94146  20939985.5784                   20939980.4574
 11  7 26  3 19 30.0000000  0  7G10G12G05G04G29G25G02
 -15983853.20347 -12440355.34045  21926521.4454                   21926518.1294
 -19561893.25448 -15227820.29746  20761795.2194                   20761791.2584
 -20260939.83248 -15771917.92247  20224103.1644                   20224099.9064
 -13726543.67246 -10678758.26244  23858445.1644                   23858442.8874
   3592150.92246   2811777.39144  23492892.2344                   23492887.4384
  -8886511.40248  -6908953.00046  21768679.0634                   21768677.9454
 -24359967.10948 -18965715.18446  20940652.0784                   20940646.9844
 11  7 26  3 20  0.0000000  0  7G10G12G05G04G29G25G02
 -15931699.32847 -12399715.93745  21936446.1484                   21936442.6954
 -19562171.55948 -15228037.15246  20761742.0474                   20761738.5864
 -20309158.18748 -15809490.64147  20214927.9064                   20214924.1954
 -13672611.54746 -10636733.23843  23868707.7734                   23868705.3634
   3480877.29347   2725070.75044  23471717.8834                   23471712.9024
  -8955326.03548  -6962574.78146  21755584.1094                   21755583.1804
 -24356320.02748 -18962873.28146  20941345.9304                   20941340.6844
 11  7 26  3 20 30.0000000  0  7G10G12G05G04G29G25G02
 -15879141.49247 -12358761.76645  21946447.4454                   21946443.7894
 -19561885.88348 -15227814.53146  20761796.4454                   20761793.0124
 -20356798.22748 -15846612.71547  20205862.1174                   20205858.6414
 -13618716.83646 -10594737.35544  23878963.9224                   23878960.6954
   3369592.10946   2638355.10544  23450540.4454                   23450536.6094
  -9023594.70748  -7015771.14546  21742592.8364                   21742591.9264
 -24352530.63748 -18959920.48446  20942067.1884                   20942061.8404
 11  7 26  3 21  0.0000000  0  7G10G12G05G04G29G25G02
 -15826179.57447 -12317492.72345  21956525.9774                   21956522.4064
 -19561034.53947 -15227151.12946  20761958.4224                   20761955.1954
 -20403856.42248 -15883281.41847  20196907.3204                   20196903.9734
 -13564857.06646 -10552768.68043  23889212.3284                   23889210.3204
   3258299.17647   2551633.43044  23429362.0084                   23429359.0594
  -9091313.30948  -7068538.87946  21729706.7584                   21729705.5434
 -24348597.13348 -18956855.40246  20942815.8054                   20942810.3244
 11  7 26  3 21 30.0000000  0  7G10G12G05G04G29G25G02
 -15772817.65647 -12275911.99245  21966680.0314                   21966676.6094
 -19559619.50848 -15226048.50046  20762227.8134                   20762224.2194
 -20450333.95748 -15919497.64847  20188062.8284                   20188059.3204
 -13511034.19146 -10510828.77043  23899455.0554                   23899452.8404
   3146998.71146   2464905.89144  23408182.0314                   23408179.6174
  -9158481.60948  -7120877.80946  21716924.9534                   21716924.1604
 -24344521.25848 -18953679.37146  20943591.6564                   20943586.0634
 11  7 26  3 22  0.0000000  0  7G10G12G05G04G29G25G02
 -15719054.93747 -12234018.95745  21976910.4844                   21976907.4064
 -19557639.12947 -15224505.33646  20762604.8364                   20762601.4574
 -20496227.62548 -15955258.92247  20179329.7974                   20179326.1524
 -13457245.23046 -10468915.29743  23909690.7664                   23909687.7544
   3035694.89546   2378175.73444  23387001.8674                   23386999.5904
  -9225095.02048  -7172784.35246  21704248.5004                   21704247.6524
 -24340300.34847 -18950390.34046  20944394.5234                   20944389.1524
 11  7 26  3 22 30.0000000  0  7G10G12G05G04G29G25G02
 -14089476.96147 -10964217.92245  22287008.8834                   22287005.6844
 -17979675.40648 -13994923.20346  21062881.1724                   21062877.7934
 -18966116.41048 -14762964.44147  20470500.0084                   20470496.6914
 -11828073.44546  -9199430.78543  24219712.1094                   24219709.0864
   4499811.78546   3519046.12944  23665613.5784                   23665612.0474
  -7715730.80148  -5996656.36746  21991471.3204                   21991470.3524
 -22760516.17248 -17719389.66046  21245017.4924                   21245011.9964
 11  7 26  3 23  0.0000000  0  7G10G12G05G04G29G25G02
 -14034922.09847 -10921707.62145  22297390.2034                   22297387.0084
 -17976568.53948 -13992502.26646  21063472.5004                   21063469.2154
 -19010842.31648 -14797815.77347  20461988.9304                   20461985.5234
 -11774354.87146  -9157572.16443  24229933.3444                   24229931.4884
   4388504.27546   3432313.13344  23644432.3524                   23644431.2274
  -7781231.19148  -6047695.60546  21979006.9694                   21979005.9534
 -22756008.09848 -17715876.87146  21245875.4304                   21245870.0004
 11  7 26  3 23 30.0000000  0  7G10G12G05G04G29G25G02
 -13979976.56647 -10878892.90645  22307845.9064                   22307842.8794
 -17972901.18448 -13989644.57846  21064170.5164                   21064166.7154
 -19054985.45748 -14832213.00447  20453588.7734                   20453585.4184
 -11720673.34046  -9115742.40243  24240149.4224                   24240146.5164
   4277195.26646   3345578.90244  23623251.2894                   23623250.2584
  -7846174.39848  -6098300.66846  21966648.6564                   21966647.9414
 -22751359.01648 -17712254.20346  21246760.1094                   21246754.6724
 11  7 26  3 24  0.0000000  0  7G10G12G05G04G29G25G02
 -13924644.05947 -10835776.66845  22318375.3674                   22318372.4804
 -17968676.02048 -13986352.23846  21064974.5004                   21064971.0474
 -19098546.40248 -14866156.56647  20445299.5944                   20445295.9534
 -11667030.30146  -9073942.64143  24250357.2344                   24250354.5784
   4165885.55546   3258844.16445  23602070.1804                   23602068.4614
  -7910560.07048  -6148471.27346  21954396.4454                   21954395.3444
 -22746570.39548 -17708522.78946  21247671.2034                   21247665.7074
 11  7 26  3 24 30.0000000  0  7G10G12G05G04G29G25G02
 -13868926.44547 -10792360.34045  22328978.0234                   22328975.0864
 -17963893.08648 -13982625.26646  21065884.6724                   21065880.9454
 -19141524.44548 -14899645.93047  20437120.7114                   20437117.2234
 -11613425.30947  -9032172.48443  24260557.8594                   24260555.1994
   4054577.12147   3172110.40244  23580888.0314                   23580886.8714
  -7974386.19948  -6198205.87146  21942250.4224                   21942249.6054
 -22741641.95748 -17704682.43746  21248609.0554                   21248603.6994
 11  7 26  3 25  0.0000000  0  7G10G12G05G04G29G25G02
 -13812826.52047 -10748646.10245  22339653.5634                   22339650.7194
 -17958553.39848 -13978464.47746  21066900.4844                   21066897.2894
 -19183918.57448 -14932680.28547  20429053.5634                   20429049.9694
 -11559858.35946  -8990431.99243  24270751.4614                   24270748.4384
   3943271.35247   3085378.73045  23559707.3524                   23559706.0744
  -8037651.08248  -6247503.11746  21930211.4774                   21930210.8914
 -22736574.20348 -17700733.52346  21249573.6954                   21249568.4184
 11  7 26  3 25 30.0000000  0  7G10G12G05G04G29G25G02
 -13756345.98047 -10704635.27345  22350401.7194                   22350399.2194
 -17952657.43748 -13973870.21546  21068022.8984                   21068019.0944
 -19225728.72348 -14965259.59847  20421097.2894                   20421093.7344
 -11506329.16046  -8948720.92643  24280937.2504                   24280934.8324
   3831970.35247   2998650.76645  23538527.5554                   23538526.3014
  -8100352.83248  -6296361.56646  21918279.7194                   21918279.3164
 -22731366.82448 -17696675.81646  21250564.4384                   21250558.9064
 11  7 26  3 26  0.0000000  0  7G10G12G05G04G29G25G02
 -13699491.53947 -10660333.09445  22361220.7424                   22361217.4924
 -17946210.25848 -13968846.44946  21069249.2734                   21069245.9734
 -19266958.36348 -14997386.56247  20413251.7584                   20413247.9734
 -11452841.91446  -8907042.55943  24291116.0314                   24291113.1484
   3720671.64147   2911924.58644  23517348.5234                   23517346.3634
  -8162493.91048  -6344783.12946  21906454.8444                   21906453.7194
 -22726024.16448 -17692512.68746  21251581.2194                   21251575.7894
 11  7 26  3 26 30.0000000  0  7G10G12G05G04G29G25G02
 -13642265.00447 -10615740.98045  22372110.2114                   22372106.9964
 -17939212.31648 -13963393.50446  21070581.1724                   21070577.6644
 -19307606.29348 -15029060.24647  20405516.5944                   20405512.7074
 -11399396.08646  -8865396.46943  24301286.7664                   24301283.7734
   3609377.70347   2825202.13744  23496169.3834                   23496167.5984
  -8224072.27048  -6392766.20746  21894736.4694                   21894735.7814
 -22720546.16448 -17688244.09846  21252623.5784                   21252618.2464
 11  7 26  3 27  0.0000000  0  7G10G12G05G04G29G25G02
 -13584670.13747 -10570861.86745  22383070.7584                   22383067.4534
 -17931665.84447 -13957513.13746  21072016.9844                   21072013.2814
 -19347673.53948 -15060281.45347  20397892.0554                   20397888.3134
 -11345992.85246  -8823783.56643  24311448.5164                   24311445.8754
   3498088.61347   2738483.46544  23474991.9454                   23474989.1804
  -8285087.65648  -6440310.61346  21883125.7034                   21883124.8364
 -22714934.07448 -17683871.03146  21253691.4304                   21253686.0784
 11  7 26  3 27 30.0000000  0  7G10G12G05G04G29G25G02
 -13526705.92647 -10525694.93045  22394100.7584                   22394097.1724
 -17923568.31648 -13951203.37146  21073558.1174                   21073554.5984
 -19387156.21548 -15091047.14847  20390378.7344                   20390375.1914
 -11292628.94546  -8782201.30943  24321603.3054                   24321601.5164
   3386809.75047   2651772.75044  23453816.4144                   23453813.2504
  -8345535.14148  -6487412.50446  21871622.8364                   21871621.8364
 -22709184.63748 -17679390.93046  21254785.4694                   21254779.9924
 11  7 26  3 28  0.0000000  0  7G10G12G05G04G29G25G02
 -13468377.48047 -10480244.18445  22405200.2664                   22405196.8554
 -17914923.27048 -13944466.96146  21075203.0554                   21075199.0824
 -19426057.06248 -15121359.47347  20382975.8674                   20382972.3484
 -11239306.76646  -8740651.57443  24331750.4384                   24331748.7544
   3275539.94947   2565069.09444  23432642.1414                   23432639.0044
  -8405415.94148  -6534072.84046  21860227.6414                   21860226.8324
 -22703301.06248 -17674806.30546  21255905.1954                   21255899.6484
 11  7 26  3 28 30.0000000  0  7G10G12G05G04G29G25G02
 -13409686.02747 -10434510.56645  22416369.4304                   22416365.4614
 -17905730.99247 -13937304.14146  21076952.3594                   21076948.6914
 -19464374.36748 -15151217.08647  20375684.6024                   20375681.1024
 -11186025.43446  -8699133.66043  24341889.7814                   24341887.0474
   3164282.23447   2478374.84844  23411470.4304                   23411467.0394
  -8464727.43048  -6580289.55146  21848941.4224                   21848940.2704
 -22697282.28548 -17670116.32446  21257050.4144                   21257045.0594
 11  7 26  3 29  0.0000000  0  7G10G12G05G04G29G25G02
 -13350635.69147 -10388497.30945  22427606.1024                   22427602.2664
 -17895994.46148 -13929717.23446  21078805.2894                   21078801.4304
 -19502109.77348 -15180621.27747  20368503.6334                   20368500.1884
 -11132786.82046  -8657649.04343  24352019.9454                   24352017.9304
   3053036.39147   2391689.87144  23390300.6804                   23390297.4884
  -8523470.04348  -6626062.98846  21837762.8134                   21837761.9654
 -22691130.16848 -17665322.44546  21258221.0784                   21258215.5904
 11  7 26  3 29 30.0000000  0  7G10G12G05G04G29G25G02
 -13291230.93747 -10342207.87545  22438910.0314                   22438906.7304
 -17885715.93748 -13921707.99246  21080760.9534                   21080757.2734
 -19539264.92248 -15209573.30547  20361433.4144                   20361429.7934
 -11079592.44946  -8616198.88743  24362142.7734                   24362140.0124
   2941802.30947   2305014.04344  23369133.7734                   23369130.2854
  -8581644.15248  -6671393.45746  21826692.6414                   21826691.8634
 -22684847.19148 -17660426.60546  21259416.8524                   21259411.3914
